[[{"header":{"parameterUnit":"m.s-1","parameterCategory":1,"la1":31.0,"la2":29.5877,"lo1":-88.7671,"lo2":-86.6584,"dy":0.0162,"dx":0.0185,"nx":115,"ny":88,"refTime":"2023-04-26T06:00:00:Z","depth":0,"parameterNumber":2,"parameterNumberName":"U-component_of_WINDS"},"data":[0.0,0.0,0.0,0.0,0.0,0.0,0.0,0.0,0.0,0.0,0.0,0.0,0.0,0.0,0.0,0.0,0.0,0.0,0.0,0.0,0.0,0.0,0.0,0.0,0.0,0.0,0.0,0.0,0.0,0.0,0.0,0.0,0.0,0.0,0.0,0.0,0.0,0.0,0.0,0.0,0.0,0.0,0.0,0.0,0.0,0.0,0.0,0.0,0.0,0.0,0.0,0.0,0.0,0.0,0.0,0.0,0.0,0.0,0.0,0.0,0.0,0.0,0.0,0.0,0.0,0.0,0.0,0.0,0.0,0.0,0.0,0.0,0.0,0.0,0.0,0.0,0.0,0.0,0.0,0.0,0.0,0.0,0.0,0.0,0.0,0.0,0.0,0.0,0.0,0.0,0.0,0.0,0.0,0.0,0.0,0.0,0.0,0.0,0.0,0.0,0.0,0.0,0.0,0.0,0.0,0.0,0.0,0.0,0.0,0.0,0.0,0.0,0.0,0.0,0.0,0.0,0.0,0.0,0.0,0.0,0.0,0.0,0.0,0.0,0.0,0.0,0.0,0.0,0.0,0.0,0.0,0.0,0.0,0.0,0.0,0.0,0.0,0.0,0.0,0.0,0.0,0.0,0.0,0.0,0.0,0.0,0.0,0.0,0.0,0.0,0.0,0.0,0.0,0.0,0.0,0.0,0.0,0.0,0.0,0.0,0.0,0.0,0.0,0.0,0.0,0.0,0.0,0.0,0.0,0.0,0.0,0.0,0.0,0.0,0.0,0.0,0.0,0.0,0.0,0.0,0.0,0.0,0.0,0.0,0.0,0.0,0.0,0.0,0.0,0.0,0.0,0.0,0.0,0.0,0.0,0.0,0.0,0.0,0.0,0.0,0.0,0.0,0.0,0.0,0.0,0.0,0.0,0.0,0.0,0.0,0.0,0.0,0.0,0.0,0.0,0.0,0.0,0.0,0.0,0.0,0.0,0.0,0.0,0.0,0.0,0.0,0.0,0.0,0.0,0.0,0.0,0.0,0.0,0.0,0.0,0.0,0.0,0.0,0.0,0.0,0.0,0.0,0.0,0.0,0.0,0.0,0.0,0.0,0.0,0.0,0.0,0.0,0.0,0.0,0.0,0.0,0.0,0.0,0.0,0.0,0.0,0.0,0.0,0.0,0.0,0.0,0.0,0.0,0.0,0.0,0.0,0.0,0.0,0.0,0.0,0.0,0.0,0.0,0.0,0.0,0.0,0.0,0.0,0.0,0.0,0.0,0.0,0.0,0.0,0.0,0.0,0.0,0.0,0.0,0.0,0.0,0.0,0.0,0.0,0.0,0.0,0.0,0.0,0.0,0.0,0.0,0.0,0.0,0.0,0.0,0.0,0.0,0.0,0.0,0.0,0.0,0.0,0.0,0.0,0.0,0.0,0.0,0.0,0.0,0.0,0.0,0.0,0.0,0.0,0.0,0.0,0.0,0.0,0.0,0.0,0.0,0.0,0.0,0.0,0.0,0.0,0.0,0.0,0.0,0.0,0.0,0.0,0.0,0.0,0.0,0.0,0.0,0.0,0.0,0.0,0.0,0.0,0.0,0.0,0.0,0.0,0.0,0.0,0.0,0.0,0.0,0.0,0.0,0.0,0.0,0.0,0.0,0.0,0.0,0.0,0.0,0.0,0.0,0.0,0.0,0.0,0.0,0.0,0.0,0.0,0.0,0.0,0.0,0.0,0.0,0.0,0.0,0.0,0.0,0.0,0.0,0.0,0.0,0.0,0.0,0.0,0.0,0.0,0.0,0.0,0.0,0.0,0.0,0.0,0.0,0.0,0.0,0.0,0.0,0.0,0.0,0.0,0.0,0.0,0.0,0.0,0.0,0.0,0.0,0.0,0.0,0.0,0.0,0.0,0.0,0.0,0.0,0.0,0.0,0.0,0.0,0.0,0.0,0.0,0.0,0.0,0.0,0.0,0.0,0.0,0.0,0.0,0.0,0.0,0.0,0.0,0.0,0.0,0.0,0.0,0.0,0.0,0.0,0.0,0.0,0.0,0.0,0.0,0.0,0.0,0.0,0.0,0.0,0.0,0.0,0.0,0.0,0.0,0.0,0.0,0.0,0.0,0.0,0.0,0.0,0.0,0.0,0.0,0.0,0.0,0.0,0.0,0.0,0.0,0.0,0.0,0.0,0.0,0.0,0.0,0.0,0.0,0.0,0.0,0.0,0.0,0.0,0.0,0.0,0.0,0.0,0.0,0.0,0.0,0.0,0.0,0.0,0.0,0.0,0.0,0.0,0.0,0.0,0.0,0.0,0.0,0.0,0.0,0.0,0.0,0.0,0.0,0.0,0.0,0.0,0.0,0.0,0.0,0.0,0.0,0.0,0.0,0.0,0.0,0.0,0.0,0.0,0.0,0.0,0.0,0.0,0.0,0.0,0.0,0.0,0.0,0.0,0.0,0.0,0.0,0.0,0.0,0.0,0.0,0.0,0.0,0.0,0.0,0.0,0.0,0.0,0.0,0.0,0.0,0.0,0.0,0.0,0.0,0.0,0.0,0.0,0.0,0.0,0.0,0.0,0.0,0.0,0.0,0.0,0.0,0.0,0.0,0.0,0.0,0.0,0.0,0.0,0.0,0.0,0.0,0.0,0.0,0.0,0.0,0.0,0.0,0.0,0.0,0.0,0.0,0.0,0.0,0.0,0.0,0.0,0.0,0.0,0.0,0.0,0.0,0.0,0.0,0.0,0.0,0.0,0.0,0.0,0.0,0.0,0.0,0.0,0.0,0.0,0.0,0.0,0.0,0.0,0.0,0.0,0.0,0.0,0.0,0.0,0.0,0.0,0.0,0.0,0.0,0.0,0.0,0.0,0.0,0.0,0.0,0.0,0.0,0.0,0.0,0.0,0.0,0.0,0.0,0.0,0.0,0.0,0.0,0.0,0.0,0.0,0.0,0.0,0.0,0.0,0.0,0.0,0.0,0.0,0.0,0.0,0.0,0.0,0.0,0.0,0.0,0.0,0.0,0.0,0.0,0.0,0.0,0.0,0.0,0.0,0.0,0.0,0.0,0.0,0.0,0.0,0.0,0.0,0.0,0.0,0.0,0.0,0.0,0.0,0.0,0.0,0.0,0.0,0.0,0.0,0.0,0.0,0.0,0.0,0.0,0.0,0.0,0.0,0.0,0.0,0.0,0.0,0.0,0.0,0.0,0.0,0.0,0.0,0.0,0.0,0.0,0.0,0.0,0.0,0.0,0.0,0.0,0.0,0.0,0.0,0.0,0.0,0.0,0.0,0.0,0.0,0.0,0.0,0.0,0.0,0.0,0.0,0.0,0.0,0.0,0.0,0.0,0.0,0.0,0.0,0.0,0.0,0.0,0.0,0.0,0.0,0.0,0.0,0.0,0.0,0.0,0.0,0.0,0.0,0.0,0.0,0.0,0.0,0.0,0.0,0.0,0.0,0.0,0.0,0.0,0.0,0.0,0.0,0.0,0.0,0.0,0.0,0.0,0.0,0.0,0.0,0.0,0.0,0.0,0.0,0.0,0.0,0.0,0.0,0.0,0.0,0.0,0.0,0.0,0.0,0.0,0.0,0.0,0.0,0.0,0.0,0.0,0.0,0.0,0.0,0.0,0.0,0.0,0.0,0.0,0.0,0.0,0.0,0.0,0.0,0.0,0.0,0.0,0.0,0.0,0.0,0.0,0.0,0.0,0.0,0.0,0.0,0.0,0.0,0.0,0.0,0.0,0.0,0.0,0.0,0.0,0.0,0.0,0.0,0.0,0.0,0.0,0.0,0.0,0.0,0.0,0.0,0.0,0.0,0.0,0.0,0.0,0.0,0.0,0.0,0.0,0.0,0.0,0.0,0.0,0.0,0.0,0.0,0.0,0.0,0.0,0.0,0.0,0.0,0.0,0.0,0.0,0.0,0.0,0.0,0.0,0.0,0.0,0.0,0.0,0.0,0.0,0.0,0.0,0.0,0.0,0.0,0.0,0.0,0.0,0.0,0.0,0.0,0.0,0.0,0.0,0.0,0.0,0.0,0.0,0.0,0.0,0.0,0.0,0.0,0.0,0.0,0.0,0.0,0.0,0.0,0.0,0.0,0.0,0.0,0.0,0.0,0.0,0.0,0.0,0.0,0.0,0.0,0.0,0.0,0.0,0.0,0.0,0.0,0.0,0.0,0.0,0.0,0.0,0.0,0.0,0.0,0.0,0.0,0.0,0.0,0.0,0.0,0.0,0.0,0.0,0.0,0.0,0.0,0.0,0.0,0.0,0.0,1.4003,0.0,0.0,0.0,0.0,0.0,0.0,0.0,0.0,0.0,0.0,0.0,0.0,0.0,0.0,0.0,0.0,0.0,0.0,0.0,0.0,0.0,0.0,0.0,0.0,0.0,0.0,0.0,0.0,0.0,0.0,0.0,0.0,0.0,0.0,0.0,0.0,0.0,0.0,0.0,0.0,0.0,0.0,0.0,0.0,0.0,0.0,0.0,0.0,0.0,0.0,0.0,0.0,0.0,0.0,0.0,0.0,0.0,0.0,0.0,0.0,0.0,0.0,0.0,0.0,0.0,0.0,0.0,0.0,0.0,0.0,0.0,0.0,0.0,0.0,0.0,0.0,0.0,0.0,0.0,0.0,0.0,0.0,0.0,0.0,0.0,0.0,0.0,0.0,0.0,0.0,0.0,0.0,0.0,0.0,0.0,0.0,0.0,0.0,0.0,0.0,0.0,0.0,0.0,0.0,0.0,0.0,0.0,0.0,0.0,0.0,1.5455,1.5246,1.4772,1.4318,1.395,0.0,0.0,0.0,0.0,0.0,0.0,0.0,0.0,0.0,0.0,0.0,0.0,0.0,0.0,0.0,0.0,0.0,0.0,0.0,0.0,0.0,0.0,0.0,0.0,0.0,0.0,0.0,0.0,0.0,0.0,0.0,0.0,0.0,0.0,0.0,0.0,0.0,0.0,0.0,0.0,0.0,0.0,0.0,0.0,0.0,0.0,0.0,0.0,0.0,0.0,0.0,0.0,0.0,0.0,0.0,0.0,0.0,0.0,0.0,0.0,0.0,0.0,0.0,0.0,0.0,0.0,0.0,0.0,0.0,0.0,0.0,0.0,0.0,0.0,0.0,0.0,0.0,0.0,0.0,0.0,0.0,0.0,0.0,0.0,0.0,0.0,0.0,0.0,0.0,0.0,0.0,0.0,0.0,0.0,0.0,0.0,0.0,0.0,0.0,0.0,0.0,0.0,0.0,0.0,0.0,0.0,0.0,0.0,0.0,0.0,0.0,0.0,1.4788,1.423,1.3639,0.0,0.0,0.0,0.0,0.0,0.0,0.0,0.0,0.0,0.0,0.0,0.0,0.0,0.0,0.0,0.0,0.0,0.0,0.0,0.0,0.0,0.0,0.0,0.0,0.0,0.0,0.0,0.0,0.0,0.0,0.0,0.0,0.0,0.0,0.0,0.0,0.0,0.0,0.0,0.0,0.0,0.0,0.0,0.0,0.0,0.0,0.0,0.0,0.0,0.0,0.0,0.0,0.0,0.0,0.0,0.0,0.0,0.0,0.0,0.0,0.0,0.0,0.0,0.0,0.0,0.0,0.0,0.0,0.0,0.0,0.0,0.0,0.0,0.0,0.0,0.0,0.0,0.0,0.0,0.0,0.0,0.0,0.0,0.0,0.0,0.0,0.0,0.0,0.0,0.0,0.0,0.0,0.0,0.0,0.0,0.0,0.0,0.0,0.0,0.0,0.0,0.0,0.0,0.0,0.0,0.0,0.0,0.0,0.0,0.0,1.5492,1.5305,1.4774,0.0,1.2957,0.0,0.0,0.0,0.0,0.0,0.0,0.0,0.0,0.0,0.0,0.0,0.0,0.0,0.0,0.0,0.0,0.0,0.0,0.0,0.0,0.0,0.0,0.0,0.0,0.0,0.0,0.0,0.0,0.0,0.0,0.0,0.0,0.0,0.0,0.0,0.0,0.0,0.0,0.0,0.0,0.0,0.0,0.0,0.0,0.0,0.0,0.0,0.0,0.0,0.0,0.0,0.0,0.0,0.0,0.0,0.0,0.0,0.0,0.0,0.0,0.0,0.0,0.0,0.0,0.0,0.0,0.0,0.0,0.0,0.0,0.0,0.0,0.0,0.0,0.0,0.0,0.0,0.0,0.0,0.0,0.0,0.0,0.0,0.0,0.0,0.0,0.0,0.0,0.0,0.0,0.0,0.0,0.0,0.0,0.0,0.0,0.0,0.0,0.0,0.0,0.0,0.0,0.0,0.0,0.0,0.0,0.0,0.0,0.0,0.0,1.5551,1.5253,1.4412,1.3577,0.0,0.0,0.0,0.0,0.0,0.0,0.0,0.0,0.0,0.0,0.0,0.0,0.0,0.0,0.0,0.0,0.0,0.0,0.0,0.0,0.0,0.0,0.0,0.0,0.0,0.0,0.0,0.0,0.0,0.0,0.0,0.0,0.0,0.0,0.0,0.0,0.0,0.0,0.0,0.0,0.0,0.0,0.0,0.0,0.0,0.0,0.0,0.0,0.0,0.0,0.0,0.0,0.0,0.0,0.0,0.0,0.0,0.0,0.0,0.0,0.0,0.0,0.0,0.0,0.0,0.0,0.0,0.0,0.0,0.0,0.0,0.0,0.0,0.0,0.0,0.0,0.0,0.0,0.0,0.0,0.0,0.0,0.0,0.0,0.0,0.0,0.0,0.0,0.0,0.0,0.0,0.0,0.0,0.0,0.0,0.0,0.0,0.0,0.0,0.0,0.0,0.0,0.0,0.0,0.0,0.0,0.0,0.0,0.0,0.0,1.587,1.5485,1.4956,1.4062,1.3246,1.257,0.0,0.0,0.0,0.0,0.0,0.0,0.0,0.0,0.0,0.0,0.0,0.0,0.0,0.0,0.0,0.0,0.0,0.0,0.0,0.0,0.0,0.0,0.0,0.0,0.0,0.0,0.0,0.0,0.0,0.0,0.0,0.0,0.0,0.0,0.0,0.0,0.0,0.0,0.0,0.0,0.0,0.0,0.0,0.0,0.0,0.0,0.0,0.0,0.0,0.0,0.0,0.0,0.0,0.0,0.0,0.0,0.0,0.0,0.0,0.0,0.0,0.0,0.0,0.0,0.0,0.0,0.0,0.0,0.0,0.0,0.0,0.0,0.0,0.0,0.0,0.0,0.0,0.0,0.0,0.0,0.0,0.0,0.0,0.0,0.0,0.0,0.0,0.0,0.0,0.0,0.0,0.0,0.0,0.0,0.0,0.0,0.0,0.0,0.0,0.0,0.0,0.0,0.0,0.0,0.0,0.0,0.0,0.0,1.6187,1.5805,1.5208,1.4367,1.3798,1.3156,0.0,0.0,0.0,0.0,0.0,0.0,0.0,0.0,0.0,0.0,0.0,0.0,0.0,0.0,0.0,0.0,0.0,0.0,0.0,0.0,0.0,0.0,0.0,0.0,0.0,0.0,0.0,0.0,0.0,0.0,0.0,0.0,0.0,0.0,0.0,0.0,0.0,0.0,0.0,0.0,0.0,0.0,0.0,0.0,0.0,0.0,0.0,0.0,0.0,0.0,0.0,0.0,0.0,0.0,0.0,0.0,0.0,0.0,0.0,0.0,0.0,0.0,0.0,0.0,0.0,0.0,0.0,0.0,0.0,0.0,0.0,0.0,0.0,0.0,0.0,0.0,0.0,0.0,0.0,0.0,0.0,0.0,0.0,0.0,0.0,0.0,0.0,0.0,0.0,0.0,0.0,0.0,0.0,0.0,0.0,0.0,0.0,0.0,0.0,0.0,0.0,0.0,0.0,0.0,0.0,0.0,0.0,0.0,0.0,1.6109,1.5455,1.4788,1.4135,1.3543,1.2871,0.0,0.0,0.0,0.0,0.0,0.0,0.0,0.0,0.0,0.0,0.0,0.0,0.0,0.0,0.0,0.0,0.0,0.0,0.0,0.0,0.0,0.0,0.0,0.0,0.0,0.0,0.0,0.0,0.0,0.0,0.0,0.0,0.0,0.0,0.0,0.0,0.0,0.0,0.0,0.0,0.0,0.0,0.0,0.0,0.0,0.0,0.0,0.0,0.0,0.0,0.0,0.0,0.0,0.0,0.0,0.0,0.0,0.0,0.0,0.0,0.0,0.0,0.0,0.0,0.0,0.0,0.0,0.0,0.0,0.0,0.0,0.0,0.0,0.0,0.0,0.0,0.0,0.0,0.0,0.0,0.0,0.0,0.0,0.0,0.0,0.0,0.0,0.0,0.0,0.0,0.0,0.0,0.0,0.0,0.0,0.0,0.0,0.0,0.0,0.0,0.0,0.0,0.0,0.0,0.0,0.0,0.0,0.0,0.0,1.5718,0.0,1.4369,0.0,1.3199,1.2538,0.0,0.0,0.0,0.0,0.0,0.0,0.0,0.0,0.0,0.0,0.0,0.0,0.0,0.0,0.0,0.0,0.0,0.0,0.0,0.0,0.0,0.0,0.0,0.0,0.0,0.0,0.0,0.0,0.0,0.0,0.0,0.0,0.0,0.0,0.0,0.0,0.0,0.0,0.0,0.0,0.0,0.0,0.0,0.0,0.0,0.0,0.0,0.0,0.0,0.0,0.0,0.0,0.0,0.0,0.0,0.0,0.0,0.0,0.0,0.0,0.0,0.0,0.0,0.0,0.0,0.0,0.0,0.0,0.0,0.0,0.0,0.0,0.0,0.0,0.0,0.0,0.0,0.0,0.0,0.0,0.0,0.0,0.0,0.0,0.0,0.0,0.0,0.0,0.0,0.0,0.0,0.0,0.0,0.0,0.0,0.0,0.0,0.0,0.0,0.0,0.0,0.0,0.0,0.0,0.0,0.0,0.0,0.0,1.5748,1.5042,1.4578,1.4048,1.3353,1.2818,1.2143,0.0,0.0,0.0,0.0,0.0,0.0,0.0,0.0,0.0,0.0,0.0,0.0,0.0,0.0,0.0,0.0,0.0,0.0,0.0,0.0,0.0,0.0,0.0,0.0,0.0,0.0,0.0,0.0,0.0,0.0,0.0,0.0,0.0,0.0,0.0,0.0,0.0,0.0,0.0,0.0,0.0,0.0,0.0,0.0,0.0,0.0,0.0,0.0,0.0,0.0,0.0,0.0,0.0,0.0,0.0,0.0,0.0,0.0,0.0,0.0,0.0,0.0,0.0,0.0,0.0,0.0,0.0,0.0,0.0,0.0,0.0,0.0,0.0,0.0,0.0,0.0,0.0,0.0,0.0,0.0,0.0,0.0,0.0,0.0,0.0,0.0,0.0,0.0,0.0,0.0,0.0,0.0,0.0,0.0,0.0,0.0,0.0,0.0,0.0,0.0,0.0,0.0,0.0,0.0,0.0,0.0,0.0,0.0,0.0,1.5004,1.4862,1.4488,1.3863,1.3256,1.2417,0.0,0.0,0.0,0.0,0.0,0.0,0.0,0.0,0.0,0.0,0.0,0.0,0.0,0.0,0.0,0.0,0.0,0.0,0.0,0.0,0.0,0.0,0.0,0.0,0.0,0.0,0.0,0.0,0.0,0.0,0.0,0.0,0.0,0.0,0.0,0.0,0.0,0.0,0.0,0.0,0.0,0.0,0.0,0.0,0.0,0.0,0.0,0.0,0.0,0.0,0.0,0.0,0.0,0.0,0.0,0.0,0.0,0.0,0.0,0.0,0.0,0.0,0.0,0.0,0.0,0.0,0.0,0.0,0.0,0.0,0.0,0.0,0.0,0.0,0.0,0.0,0.0,0.0,0.0,0.0,0.0,0.0,0.0,0.0,0.0,0.0,0.0,0.0,0.0,0.0,0.0,0.0,0.0,0.0,0.0,0.0,0.0,0.0,0.0,0.0,0.0,0.0,0.0,0.0,0.0,0.0,0.0,0.0,0.0,1.5495,1.5202,1.4725,1.4077,1.3313,1.2455,1.1473,0.0,0.0,0.0,0.0,0.0,0.0,0.0,0.0,0.0,0.0,0.0,0.0,0.0,0.0,0.0,0.0,0.0,0.0,0.0,0.0,0.0,0.0,0.0,0.0,0.0,0.0,0.0,0.0,0.0,0.0,0.0,0.0,0.0,0.0,0.0,0.0,0.0,0.0,0.0,0.0,0.0,0.0,0.0,0.0,0.0,0.0,0.0,0.0,0.0,0.0,0.0,0.0,0.0,0.0,0.0,0.0,0.0,0.0,0.0,0.0,0.0,0.0,0.0,0.0,0.0,0.0,0.0,0.0,0.0,0.0,0.0,0.0,0.0,0.0,0.0,0.0,0.0,0.0,0.0,0.0,0.0,0.0,0.0,0.0,0.0,0.0,0.0,0.0,0.0,0.0,0.0,0.0,0.0,0.0,0.0,0.0,0.0,0.0,0.0,0.0,0.0,0.0,0.0,0.0,0.0,0.0,0.0,0.0,1.6308,1.5572,1.483,1.4087,1.3205,1.2328,0.0,0.0,0.0,0.0,0.0,0.0,0.0,0.0,0.0,0.0,0.0,0.0,0.0,0.0,0.0,0.0,0.0,0.0,0.0,0.0,0.0,0.0,0.0,0.0,0.0,0.0,0.0,0.0,0.0,0.0,0.0,0.0,0.0,0.0,0.0,0.0,0.0,0.0,0.0,0.0,0.0,0.0,0.0,0.0,0.0,0.0,0.0,0.0,0.0,0.0,0.0,0.0,0.0,0.0,0.0,0.0,0.0,0.0,0.0,0.0,0.0,0.0,0.0,0.0,0.0,0.0,0.0,0.0,0.0,0.0,0.0,0.0,0.0,0.0,0.0,0.0,0.0,0.0,0.0,0.0,0.0,0.0,0.0,0.0,0.0,0.0,0.0,0.0,0.0,0.0,0.0,0.0,0.0,0.0,0.0,0.0,0.0,0.0,0.0,0.0,0.0,0.0,0.0,0.0,0.0,0.0,0.0,0.0,0.0,1.6453,1.6282,1.5727,1.4773,1.4127,1.3111,0.0,0.0,0.0,0.0,0.0,0.0,0.0,0.0,0.0,0.0,0.0,0.0,0.0,0.0,0.0,0.0,0.0,0.0,0.0,0.0,0.0,0.0,0.0,0.0,0.0,0.0,0.0,0.0,0.0,0.0,0.0,0.0,0.0,0.0,0.0,0.0,0.0,0.0,0.0,0.0,0.0,0.0,0.0,0.0,0.0,0.0,0.0,0.0,0.0,0.0,0.0,0.0,0.0,0.0,0.0,0.0,0.0,0.0,0.0,0.0,0.0,0.0,0.0,0.0,0.0,0.0,0.0,0.0,0.0,0.0,0.0,0.0,0.0,0.0,0.0,0.0,0.0,0.0,0.0,0.0,0.0,0.0,0.0,0.0,0.0,0.0,0.0,0.0,0.0,0.0,0.0,0.0,0.0,0.0,0.0,0.0,0.0,0.0,0.0,0.0,0.0,0.0,0.0,0.0,0.0,0.0,0.0,0.0,1.6761,1.6623,1.6734,1.6263,1.5108,1.4243,1.3199,0.0,0.0,0.0,0.0,0.0,0.0,0.0,0.0,0.0,0.0,0.0,0.0,0.0,0.0,0.0,0.0,0.0,0.0,0.0,0.0,0.0,0.0,0.0,0.0,0.0,0.0,0.0,0.0,0.0,0.0,0.0,0.0,0.0,0.0,0.0,0.0,0.0,0.0,0.0,0.0,0.0,0.0,0.0,0.0,0.0,0.0,0.0,0.0,0.0,0.0,0.0,0.0,0.0,0.0,0.0,0.0,0.0,0.0,0.0,0.0,0.0,0.0,0.0,0.0,0.0,0.0,0.0,0.0,0.0,0.0,0.0,0.0,0.0,0.0,0.0,0.0,0.0,0.0,0.0,0.0,0.0,0.0,0.0,0.0,0.0,0.0,0.0,0.0,0.0,0.0,0.0,0.0,0.0,0.0,0.0,0.0,0.0,0.0,0.0,0.0,0.0,0.0,0.0,0.0,0.0,0.0,0.0,0.0,1.6889,1.6736,1.6889,1.6417,1.5228,1.3973,1.2959,0.0,0.0,0.0,0.0,0.0,0.0,0.0,0.0,0.0,0.0,0.0,0.0,0.0,0.0,0.0,0.0,0.0,0.0,0.0,0.0,0.0,0.0,0.0,0.0,0.0,0.0,0.0,0.0,0.0,0.0,0.0,0.0,0.0,0.0,0.0,0.0,0.0,0.0,0.0,0.0,0.0,0.0,0.0,0.0,0.0,0.0,0.0,0.0,0.0,0.0,0.0,0.0,0.0,0.0,0.0,0.0,0.0,0.0,0.0,0.0,0.0,0.0,0.0,0.0,0.0,0.0,0.0,0.0,0.0,0.0,0.0,0.0,0.0,0.0,0.0,0.0,0.0,0.0,0.0,0.0,0.0,0.0,0.0,0.0,0.0,0.0,0.0,0.0,0.0,0.0,0.0,0.0,0.0,0.0,0.0,0.0,0.0,0.0,0.0,0.0,0.0,0.0,0.0,0.0,0.0,0.0,0.0,0.0,1.6127,1.6256,1.6253,1.5908,1.5209,1.4367,1.3284,0.0,0.0,0.0,0.0,0.0,0.0,0.0,0.0,0.0,0.0,0.0,0.0,0.0,0.0,0.0,0.0,0.0,0.0,0.0,0.0,0.0,0.0,0.0,0.0,0.0,0.0,0.0,0.0,0.0,0.0,0.0,0.0,0.0,0.0,0.0,0.0,0.0,0.0,0.0,0.0,0.0,0.0,0.0,0.0,0.0,0.0,0.0,0.0,1.0019,0.0,0.0,0.0,0.0,0.0,0.0,0.0,0.0,0.0,0.0,0.0,0.0,0.0,0.0,0.0,0.0,0.0,0.0,0.0,0.0,0.0,0.0,0.0,0.0,0.0,0.0,0.0,0.0,0.0,0.0,0.0,0.0,0.0,0.0,0.0,0.0,0.0,0.0,0.0,0.0,0.0,0.0,0.0,0.0,0.0,0.0,0.0,0.0,0.0,0.0,0.0,0.0,0.0,0.0,0.0,0.0,0.0,0.0,0.0,1.5433,1.5721,1.5649,1.5394,1.5002,1.4086,1.3037,0.0,0.0,0.0,0.0,0.0,0.0,0.0,0.0,0.0,0.0,0.0,0.0,0.0,0.0,0.0,0.0,0.0,0.0,0.0,0.0,0.0,0.0,0.0,0.0,0.0,0.0,0.0,0.0,0.0,0.0,0.0,0.0,0.0,0.0,0.0,0.0,0.0,0.0,0.0,0.0,0.0,0.0,0.0,0.0,0.0,0.0,0.0,0.0,0.0,0.0,0.0,0.0,0.0,0.0,0.0,0.0,0.0,0.0,0.0,0.0,0.0,0.0,0.0,0.0,0.0,0.0,0.0,0.0,0.0,0.0,0.0,0.0,0.0,0.0,0.0,0.0,0.0,0.0,0.0,0.0,0.0,0.0,0.0,0.0,0.0,0.0,0.0,0.0,0.0,0.0,0.0,0.0,0.0,0.0,0.0,0.0,0.0,0.0,0.0,0.0,0.0,0.0,0.0,0.0,0.0,0.0,0.0,1.4497,1.4719,1.5125,1.5042,1.489,1.4632,1.3564,1.2618,1.1779,0.0,0.0,0.0,0.0,0.0,0.0,0.0,0.0,0.0,0.0,0.0,0.0,0.0,0.0,0.0,0.0,0.0,0.0,0.0,0.0,0.0,0.0,0.0,0.0,0.0,0.0,0.0,0.0,0.0,0.0,0.0,0.0,0.0,0.0,0.0,0.0,0.0,0.0,0.923,0.9072,0.0,0.0,0.0,0.0,0.0,0.0,0.0,0.0,0.9925,0.0,0.0,0.0,0.0,0.0,0.0,0.0,0.0,0.0,0.0,0.0,0.0,0.0,0.0,0.0,0.0,0.0,0.0,0.0,0.0,0.0,0.0,0.0,0.0,0.0,0.0,0.0,0.0,0.0,0.0,0.0,0.0,0.0,0.0,0.0,0.0,0.0,0.0,0.0,0.0,0.0,0.0,0.0,0.0,0.0,0.0,0.0,0.0,0.0,0.0,0.0,0.0,0.0,0.0,0.0,0.0,1.3912,1.3764,1.3951,1.4449,1.4551,1.4409,1.3961,1.3335,1.2397,1.1132,0.0,0.0,0.0,0.0,0.0,0.0,0.0,0.0,0.0,0.0,0.0,0.0,0.0,0.0,0.0,0.0,0.0,0.0,0.0,0.0,0.0,0.0,0.0,0.0,0.0,0.0,0.0,0.0,0.0,0.0,0.0,0.0,0.0,0.0,0.0,0.0,0.0,0.0,0.0,0.8887,0.9046,0.0,0.0,0.0,0.0,0.0,0.0,0.0,0.0,0.9458,0.0,0.0,0.0,0.0,0.0,0.0,0.0,0.0,0.0,0.0,0.0,0.0,0.0,0.0,0.0,0.0,0.0,0.0,0.0,0.0,0.0,0.0,0.0,0.0,0.0,0.0,0.0,0.0,0.0,0.0,0.0,0.0,0.0,0.0,0.0,0.0,0.0,0.0,0.0,0.0,0.0,0.0,0.0,0.0,0.0,0.0,0.0,0.0,0.0,0.0,0.0,0.0,0.0,0.0,0.0,1.3163,1.3132,1.3347,1.3852,1.3874,1.3796,1.3626,1.2755,1.1841,0.0,0.0,0.0,0.0,0.0,0.0,0.0,0.0,0.0,0.0,0.0,0.0,0.0,0.0,0.0,0.0,0.0,0.0,0.0,0.0,0.0,0.0,0.0,0.0,0.0,0.0,0.0,0.0,0.0,0.0,0.0,0.0,0.0,0.0,0.0,0.0,0.0,0.0,0.0,0.0,0.8912,0.9126,0.9187,0.0,0.0,0.0,0.0,0.0,0.0,0.9432,0.9278,0.0,0.0,0.0,0.0,0.0,0.0,0.0,0.0,0.0,0.0,0.0,0.0,0.0,0.0,0.0,0.0,0.0,0.0,0.0,0.0,0.0,0.0,0.0,0.0,0.0,0.0,0.0,0.0,0.0,0.0,0.0,0.0,0.0,0.0,0.0,0.0,0.0,0.0,0.0,0.0,0.0,0.0,0.0,0.0,0.0,0.0,0.0,0.0,0.0,0.0,0.0,0.0,0.0,0.0,0.0,1.2441,1.2502,1.2735,1.3214,1.318,1.313,1.31,1.2134,1.1288,0.0,0.0,0.0,0.0,0.0,0.0,0.0,0.0,0.0,0.0,0.0,0.0,0.0,0.0,0.0,0.0,0.0,0.0,0.0,0.0,0.0,0.0,0.0,0.0,0.0,0.0,0.0,0.0,0.0,0.0,0.0,0.0,0.0,0.0,0.0,0.0,0.0,0.0,0.0,0.0,0.0,0.9187,0.9177,0.9187,0.0,0.0,0.0,0.0,0.9597,0.9254,0.0,0.0,0.0,0.0,0.0,0.0,0.0,0.0,0.0,0.0,0.0,0.0,0.0,0.0,0.0,0.0,0.0,0.0,0.0,0.0,0.0,0.0,0.0,0.0,0.0,0.0,0.0,0.0,0.0,0.0,0.0,0.0,0.0,0.0,0.0,0.0,0.0,0.0,0.0,0.0,0.0,0.0,0.0,0.0,0.0,0.0,0.0,0.0,0.0,0.0,0.0,0.0,0.0,0.0,0.0,0.0,1.1775,1.1805,1.2012,1.2434,1.2556,1.2362,1.1833,1.1672,1.0937,0.0,0.0,0.0,0.0,0.0,0.0,0.0,0.0,0.0,0.0,0.0,0.0,0.0,0.0,0.0,0.0,0.0,0.0,0.0,0.0,0.0,0.0,0.0,0.0,0.0,0.0,0.0,0.0,0.0,0.0,0.0,0.0,0.0,0.0,0.0,0.0,0.0,0.0,0.0,0.0,0.0,0.9157,0.9036,0.9126,0.9165,0.0,0.0,0.0,0.9032,0.8937,0.0,0.0,0.0,0.0,0.0,0.0,0.0,0.0,0.0,0.0,0.0,0.0,0.0,0.0,0.0,0.0,0.0,0.0,0.0,0.0,0.0,0.0,0.0,0.0,0.0,0.0,0.0,0.0,0.0,0.0,0.0,0.0,0.0,0.0,0.0,0.0,0.0,0.0,0.0,0.0,0.0,0.0,0.0,0.0,0.0,0.0,0.0,0.0,0.0,0.0,0.0,0.0,0.0,0.0,0.0,1.0303,1.1207,1.1538,1.1813,1.2004,1.2,1.1861,1.1599,1.1056,1.0305,0.0,0.0,0.0,0.0,0.0,0.0,0.0,0.0,0.0,0.0,0.0,0.0,0.0,0.0,0.0,0.0,0.0,0.0,0.0,0.0,0.0,0.0,0.0,0.0,0.0,0.0,0.0,0.0,0.0,0.0,0.0,0.0,0.0,0.0,0.0,0.0,0.0,0.0,0.0,0.0,0.0,0.0,0.9136,0.9286,0.0,0.0,0.0,0.9581,0.9249,0.0,0.0,0.0,0.0,0.0,0.0,0.0,0.0,0.0,0.0,0.0,0.0,0.0,0.0,0.0,0.0,0.0,0.0,0.0,0.0,0.0,0.0,0.0,0.0,0.0,0.0,0.0,0.0,0.0,0.0,0.0,0.0,0.0,0.0,0.0,0.0,0.0,0.0,0.0,0.0,0.0,0.0,0.0,0.0,0.0,0.0,0.0,0.0,0.0,0.0,0.0,0.0,0.0,0.0,0.0,0.0,0.0,1.0727,1.1117,1.1408,1.1593,1.1502,1.1389,1.127,1.0513,0.0,0.0,0.0,0.0,0.0,0.0,0.0,0.0,0.0,0.0,0.0,0.0,0.0,0.0,0.0,0.0,0.0,0.0,0.0,0.0,0.0,0.0,0.0,0.0,0.0,0.0,0.0,1.0306,0.0,0.0,0.0,0.0,0.0,0.0,0.0,0.0,0.0,0.0,0.0,0.0,0.0,0.0,0.9529,0.9335,0.9548,0.9722,0.0,0.0,0.993,0.9459,0.9342,0.9155,0.0,0.0,0.0,0.0,0.0,0.0,0.0,0.0,0.0,0.0,0.0,0.0,0.0,0.0,0.0,0.0,0.0,0.0,0.0,0.0,0.0,0.0,0.0,0.0,0.0,0.0,0.0,0.0,0.0,0.0,0.0,0.0,0.0,0.0,0.0,0.0,0.0,0.0,0.0,0.0,0.0,0.0,0.0,0.0,0.0,0.0,0.0,0.0,0.0,0.0,0.0,0.0,0.0,0.0,0.0,1.0201,1.0283,1.0559,1.1032,1.1048,1.0819,1.0409,1.0195,0.9529,0.0,0.0,0.0,0.0,0.0,0.0,0.0,0.0,0.0,0.0,0.0,0.0,0.0,0.0,0.0,0.0,0.0,0.0,0.0,0.0,0.0,0.0,0.0,0.0,0.0,0.0,0.0,0.0,0.0,0.0,0.0,0.0,0.0,0.0,0.0,0.0,0.0,0.0,0.0,0.0,0.0,0.9791,0.9615,0.985,1.0069,0.0,0.0,0.9928,0.9392,0.9307,0.9177,0.8762,0.0,0.0,0.0,0.0,0.0,0.0,0.0,0.0,0.0,0.0,0.0,0.0,0.0,0.0,0.0,0.0,0.0,0.0,0.0,0.0,0.0,0.0,0.0,0.0,0.0,0.0,0.0,0.0,0.0,0.0,0.0,0.0,0.0,0.0,0.0,0.0,0.0,0.0,0.0,0.0,0.0,0.0,0.0,0.0,0.0,0.0,0.0,0.0,0.0,0.0,0.0,0.0,0.0,0.9096,0.9878,1.0101,1.0319,1.055,1.0573,1.0388,1.0013,0.9699,0.9029,0.0,0.0,0.0,0.0,0.0,0.0,0.0,0.0,0.0,0.0,0.0,0.0,0.0,0.0,0.0,0.0,0.0,0.0,0.0,0.0,0.0,0.0,0.0,0.0,0.0,0.0,0.0,0.0,0.9568,0.9307,0.9372,0.0,0.0,0.0,0.0,0.0,0.0,0.0,0.0,0.0,0.0,0.9814,0.9576,0.993,0.0,0.0,1.0442,1.0351,0.9708,0.9538,0.9289,0.8793,0.8578,0.0,0.0,0.0,0.0,0.0,0.0,0.0,0.0,0.0,0.0,0.0,0.0,0.0,0.0,0.0,0.0,0.0,0.0,0.0,0.0,0.0,0.0,0.0,0.0,0.0,0.0,0.0,0.0,0.0,0.0,0.0,0.0,0.0,0.0,0.0,0.0,0.0,0.0,0.0,0.0,0.0,0.0,0.0,0.0,0.0,0.0,0.0,0.0,0.0,0.0,0.0,0.0,0.8826,0.9601,0.9813,0.9997,1.0201,1.0262,1.0117,0.9722,0.9408,0.8755,0.0,0.0,0.0,0.0,0.0,0.0,0.0,0.0,0.0,0.0,0.0,0.0,0.0,0.0,0.0,0.0,0.0,0.0,0.0,0.0,0.0,0.0,0.0,0.0,0.0,0.0,0.0,0.0,0.9116,0.8742,0.8397,0.0,0.0,0.0,0.0,0.0,0.0,0.0,0.0,0.0,0.0,0.9817,0.9607,1.0017,1.0352,1.0372,1.0503,1.0405,0.973,0.9486,0.9222,0.8721,0.0,0.0,0.0,0.0,0.0,0.0,0.0,0.0,0.0,0.0,0.0,0.0,0.0,0.0,0.0,0.0,0.0,0.0,0.0,0.0,0.0,0.0,0.0,0.0,0.0,0.0,0.0,0.0,0.0,0.0,0.0,0.0,0.0,0.0,0.0,0.0,0.0,0.0,0.0,0.0,0.0,0.0,0.0,0.0,0.0,0.0,0.0,0.0,0.0,0.0,0.0,0.0,0.0,0.0,0.9375,0.9306,0.9491,0.9991,1.0216,1.0053,0.9521,0.9432,0.8798,0.7518,0.0,0.0,0.0,0.0,0.0,0.0,0.0,0.0,0.0,0.0,0.0,0.0,0.0,0.0,0.0,0.0,0.0,0.0,0.0,0.0,0.0,0.0,0.0,0.0,0.0,0.0,0.9267,0.9274,0.9005,0.0,0.0,0.0,0.0,0.0,0.0,0.0,0.0,0.0,0.0,0.9727,0.9848,0.9688,1.014,1.0419,1.0448,1.0202,0.9839,0.9291,0.9053,0.8808,0.0,0.0,0.0,0.0,0.0,0.0,0.0,0.0,0.0,0.0,0.0,0.0,0.0,0.0,0.0,0.0,0.0,0.0,0.0,0.0,0.0,0.0,0.0,0.0,0.0,0.0,0.0,0.9686,0.9871,0.0,0.0,0.0,0.0,0.0,0.0,0.0,0.0,0.0,0.0,0.0,1.0101,0.9998,0.0,0.0,0.0,0.0,0.0,0.0,0.0,0.0,0.0,0.0,0.0,0.0,0.8409,0.9213,0.914,0.9292,0.9729,0.9973,0.9758,0.9048,0.9053,0.8201,0.6356,0.0,0.0,0.0,0.0,0.0,0.0,0.0,0.0,0.0,0.0,0.0,0.0,0.0,0.0,0.0,0.0,0.0,0.0,0.0,0.0,0.0,0.0,0.0,0.0,0.0,0.8328,0.0,0.0,0.0,0.0,0.0,0.0,0.0,0.0,0.0,0.0,0.0,0.9276,0.9293,0.9253,0.9197,0.9056,0.9229,0.9355,0.0,0.0,0.0,0.0,0.0,0.0,0.0,0.0,0.0,0.0,0.0,0.0,0.0,0.0,0.9177,0.8298,0.8186,0.8223,0.8176,0.0,0.0,0.0,0.0,0.0,0.0,0.0,0.0,0.0,0.0,0.0,0.0,0.0,0.0,0.0,0.0,0.9791,0.0,0.0,0.0,0.0,0.0,0.0,0.0,0.0,1.0428,1.0352,1.0437,1.0458,1.03,0.0,0.978,0.9452,0.0,0.0,0.0,0.0,0.0,0.0,0.0,0.0,0.8528,0.9113,0.917,0.9307,0.9585,0.975,0.9497,0.8814,0.8477,0.7547,0.5958,0.5198,0.4418,0.0,0.0,0.0,0.0,0.0,0.0,0.0,0.0,0.0,0.0,0.0,0.0,0.0,0.0,0.0,0.0,0.0,0.0,0.0,0.0,0.0,0.0,0.0,0.7717,0.0,0.0,0.0,0.0,0.0,0.0,0.0,0.0,0.0,0.9639,0.9354,0.9073,0.909,0.8889,0.8704,0.8546,0.0,0.0,0.0,0.0,0.0,0.0,0.0,0.8899,0.9144,0.926,0.941,0.9686,0.9739,0.9735,0.9586,0.0,0.0,0.854,0.8491,0.8584,0.8561,0.8707,0.8782,0.8643,0.8532,0.8436,0.0,0.0,0.0,0.0,0.0,0.0,0.0,0.0,0.9394,0.9515,0.0,0.9726,0.0,0.0,0.0,0.0,0.0,0.0,0.0,0.0,1.0752,1.0478,1.0151,1.035,1.0339,1.0149,1.0283,1.0266,1.0076,0.8894,0.0,0.0,0.0,0.0,0.0,0.0,0.8688,0.9043,0.9328,0.9537,0.9618,0.9552,0.9275,0.8795,0.7766,0.6919,0.6287,0.5204,0.4316,0.3708,0.3104,0.0,0.0,0.0,0.0,0.0,0.0,0.0,0.0,0.0,0.0,0.0,0.0,0.0,0.0,0.0,0.0,0.0,0.0,0.0,0.0,0.7197,0.0,0.0,0.0,0.0,0.0,0.0,0.0,0.0,0.0,0.0,0.8995,0.9119,0.9098,0.8911,0.0,0.0,0.0,0.0,0.828,0.8537,0.8302,0.8251,0.8644,0.8649,0.8664,0.8846,0.0,0.0,0.9439,0.9524,0.956,0.9388,0.9554,0.9665,0.9693,0.9589,0.9485,0.9431,0.9516,0.9542,0.9296,0.9313,0.9315,1.1266,0.0,0.0,0.0,0.0,1.0125,1.0267,1.0573,1.0594,1.0636,1.0729,1.0419,0.0,0.0,0.0,0.0,0.0,0.0,1.041,1.0552,1.0453,1.041,1.0412,1.0878,1.1045,1.0965,1.1182,1.1242,1.1062,1.0244,0.9612,0.9152,0.0,0.0,0.0,0.0,0.9269,0.9472,0.9591,0.972,0.988,0.9727,0.9276,0.8539,0.7663,0.6856,0.6097,0.5125,0.4215,0.3379,0.2727,0.0,0.0,0.0,0.0,0.0,0.0,0.0,0.0,0.0,0.0,0.0,0.0,0.0,0.0,0.0,0.0,0.0,0.0,0.0,0.6589,0.703,0.7412,0.0,0.0,0.0,0.0,0.0,0.0,0.0,0.0,0.0,0.8575,0.8496,0.8442,0.0,0.0,0.7765,0.7712,0.7707,0.7772,0.7919,0.0,0.0,0.0,0.8815,0.8989,0.9745,1.0299,1.062,1.0561,1.0634,1.0647,1.0397,1.0434,1.0415,1.0298,1.024,1.0161,1.0025,1.0152,1.0204,0.9867,0.9687,0.9531,1.1852,1.1269,1.0785,1.0684,1.0865,1.0784,1.0885,1.1112,1.1168,1.1205,1.1204,1.0848,1.0813,1.1047,1.087,0.0,0.0,0.0,1.0354,1.0446,1.0312,1.0322,1.0455,1.0917,1.1205,1.1322,1.1516,1.1623,1.16,1.1085,1.0664,1.0324,0.0,0.0,0.9371,0.9529,0.9624,0.9715,0.9863,0.9958,1.0004,0.9593,0.8982,0.8134,0.7338,0.6543,0.5744,0.4724,0.3731,0.2809,0.2077,0.158,0.0,0.0,0.0,0.0,0.0,0.0,0.0,0.0,0.0,0.0,0.0,0.7421,0.0,0.0,0.0,0.0,0.6758,0.618,0.6253,0.6774,0.0,0.0,0.0,0.0,0.0,0.0,0.0,0.8522,0.8619,0.8705,0.8713,0.8594,0.8476,0.8406,0.814,0.7901,0.7795,0.0,0.7988,0.8119,0.821,0.8442,0.899,0.9164,0.9512,1.0276,1.0744,1.0972,1.0887,1.0951,1.0944,1.0709,1.0704,1.0755,1.058,1.0639,1.063,1.0311,1.0429,1.0464,1.0119,1.008,1.0056,1.2169,1.1876,1.1605,1.143,1.1336,1.1336,1.1294,1.1192,1.1285,1.1349,1.1336,1.1074,1.1204,1.1534,1.1107,0.0,0.0,1.0447,1.0321,1.0429,1.0229,1.0214,1.0278,1.0627,1.0971,1.1286,1.1443,1.1614,1.18,1.1495,1.1366,1.1467,1.0178,0.9486,0.9436,0.9742,0.9848,0.9733,1.0101,1.0182,0.9941,0.9287,0.8535,0.7692,0.6892,0.6058,0.5224,0.404,0.297,0.2054,0.1253,0.0801,0.0744,0.0,0.0,0.0,0.0,0.0,0.0,0.0,0.0,0.0,0.0,0.0,0.0,0.0,0.0,0.0,0.6253,0.0,0.6166,0.6518,0.0,0.0,0.0,0.8184,0.8388,0.8574,0.8739,0.8812,0.0,0.0,0.0,0.0,0.902,0.8563,0.8588,0.8534,0.8309,0.8472,0.869,0.8822,0.8864,0.8954,0.9303,0.9681,1.0099,1.053,1.0746,1.0812,1.0704,1.0769,1.0689,1.0443,1.0599,1.0753,1.0602,1.0782,1.0884,1.0347,1.0451,1.0526,1.0189,1.046,1.0574,1.2783,1.2691,1.2375,1.2061,1.1768,1.1768,1.1732,1.1705,1.1746,1.1759,1.1746,1.1578,1.1445,1.1284,1.1077,1.0838,1.0575,1.0243,0.9973,0.9824,0.9885,0.9932,1.0012,1.0546,1.0978,1.1297,1.159,1.1828,1.2005,1.1637,1.1468,1.1474,1.0908,1.0562,1.0439,1.0144,0.9954,0.9929,1.0167,1.0058,0.9549,0.9338,0.8603,0.7349,0.6541,0.5567,0.4418,0.3121,0.2098,0.1367,0.061,0.0205,0.0187,0.0351,0.0,0.0,0.0,0.0,0.0,0.0,0.0,0.0,0.0,0.689,0.7366,0.0,0.6958,0.0,0.6071,0.586,0.6168,0.6632,0.0,0.0,0.8408,0.8921,0.9335,0.9495,0.9677,0.9897,0.9833,0.9781,0.981,0.9801,0.97,0.9486,0.9092,0.8833,0.8879,0.8978,0.9131,0.9345,0.9327,0.9439,0.9939,1.0357,1.0601,1.0746,1.0909,1.1035,1.1004,1.1004,1.0965,1.0727,1.0745,1.0691,1.0425,1.0436,1.0404,1.0172,1.0432,1.0604,1.0147,1.0192,1.0201,1.293,1.2774,1.266,1.2418,1.2075,1.2087,1.2126,1.2222,1.2214,1.2199,1.2185,1.2053,1.1651,1.1113,1.113,1.0952,1.0624,1.0279,1.0,0.9786,0.9794,0.9818,0.9862,1.0261,1.0701,1.1175,1.1518,1.1804,1.2034,1.1832,1.1744,1.1768,1.1278,1.0976,1.0789,1.0413,1.0151,1.0007,1.02,1.0004,0.943,0.9217,0.8479,0.7164,0.6187,0.5094,0.3833,0.2554,0.1549,0.0827,0.0175,-0.017,-0.0132,0.0058,0.0373,0.0,0.0,0.0,0.0,0.0,0.0,0.0,0.0,0.0,0.0,0.0,0.6701,0.0,0.6372,0.0,0.6717,0.7293,0.7902,0.8522,0.9063,0.9553,0.9932,1.0092,1.0202,1.0281,1.0239,1.0206,1.0214,1.0236,1.0248,1.0276,1.0003,0.9755,0.966,0.9755,0.9906,0.9992,1.0007,1.0151,1.0597,1.0807,1.0896,1.084,1.1018,1.1138,1.0996,1.1059,1.1028,1.0839,1.076,1.0634,1.0355,1.0222,1.0117,1.0079,1.0238,1.0285,0.9989,1.0036,1.0086,1.2882,1.2643,1.2776,1.2675,1.244,1.2342,1.2383,1.2529,1.2544,1.2537,1.2483,1.2305,1.179,1.1045,1.1197,1.1099,1.076,1.046,1.0222,1.0031,0.991,0.9852,0.9868,1.0021,1.0403,1.1005,1.1359,1.168,1.1922,1.1938,1.1947,1.1965,1.1404,1.1012,1.0773,1.0594,1.0352,1.0014,1.0174,0.998,0.9422,0.9078,0.8284,0.7018,0.5894,0.4702,0.3444,0.2273,0.1297,0.0539,0.0011,-0.022,-0.0137,0.003,0.0377,0.0,0.1408,0.0,0.0,0.0,0.0,0.0,0.0,0.0,0.0,0.666,0.6639,0.6504,0.6919,0.7254,0.7505,0.8181,0.8803,0.9298,0.9693,1.0063,1.032,1.0467,1.0519,1.0435,1.0421,1.0466,1.0589,1.0603,1.0705,1.0864,1.0893,1.0748,1.0511,1.0561,1.063,1.056,1.0706,1.0786,1.0938,1.104,1.1033,1.0895,1.0998,1.1099,1.0839,1.0902,1.0965,1.076,1.0634,1.0482,1.0269,1.0079,0.9967,0.9919,0.9942,0.9926,0.9857,0.9971,1.0083,1.3367,1.3287,1.3048,1.3023,1.3058,1.2525,1.2246,1.2205,1.2197,1.2104,1.1949,1.1918,1.1656,1.1248,1.1172,1.0965,1.0634,1.057,1.0434,1.0238,1.0228,1.0212,1.0225,1.0455,1.0729,1.1002,1.1448,1.1635,1.1596,1.1596,1.1546,1.1435,1.1323,1.1044,1.0652,0.0,0.0,0.0,1.0038,0.9847,0.9406,0.9078,0.8243,0.6869,0.584,0.0,0.3444,0.2464,0.1619,0.1008,0.0649,0.0,0.0,0.0,0.0,0.0,0.0,0.0,0.0,0.0,0.0,0.0,0.5747,0.6201,0.6439,0.6837,0.707,0.7068,0.7324,0.7701,0.8164,0.8775,0.9244,0.9524,0.9947,1.0326,1.0589,1.0739,1.0887,1.1081,1.1103,1.1116,1.1118,1.1148,1.1165,1.1209,1.1238,1.1191,1.1102,1.0952,1.085,1.0835,1.09,1.0883,1.0718,1.0941,1.1101,1.1036,1.0839,1.0744,1.0672,1.0672,1.0624,1.0428,1.0387,1.0253,0.9958,0.9868,0.9798,0.9644,0.959,0.9638,0.9762,0.9757,0.9734,1.3492,0.0,1.3316,1.3208,0.0,1.2794,1.2406,1.2049,1.2087,1.1996,1.1809,1.1809,1.16,1.1296,1.1225,1.1075,1.0854,1.0846,1.0744,1.0545,1.0491,1.0412,1.0314,1.0578,1.082,1.1098,1.1579,1.1713,1.1602,1.1654,1.1556,1.1287,1.1459,1.1357,1.0967,1.0719,1.0411,1.0007,1.0007,0.9785,0.9368,0.9043,0.825,0.6899,0.0,0.0,0.0,0.0,0.0,0.0,0.0,0.0,0.0,0.0,0.0,0.2221,0.2584,0.3096,0.3788,0.4319,0.4955,0.5782,0.6533,0.6921,0.6895,0.7396,0.7726,0.7812,0.833,0.8815,0.9156,0.9686,1.008,1.0322,1.0538,1.0767,1.0951,1.1055,1.1149,1.1262,1.1301,1.1301,1.1301,1.1301,1.1301,1.1301,1.1301,1.1301,1.1267,1.1137,1.0997,1.0962,1.0976,1.0933,1.077,1.0974,1.109,1.0902,1.076,1.0665,1.0602,1.0523,1.0412,1.0323,1.018,0.9974,0.9852,0.9724,0.9612,0.9532,0.9494,0.9516,0.964,0.9622,0.9631,1.3568,1.3492,1.3492,1.3345,1.3089,1.3038,1.2655,1.2094,0.0,0.0,0.0,1.1755,1.1615,1.135,1.1318,1.1225,1.1138,1.1138,1.1043,1.0886,1.0776,1.0618,1.0464,1.0676,1.0916,1.1175,1.165,1.1776,1.1635,1.175,1.1638,1.1353,1.1622,1.1608,1.1263,1.083,1.0419,1.0066,1.0051,0.9841,0.9408,0.907,0.8343,0.7128,0.634,0.5508,0.46,0.4015,0.351,0.31,0.2956,0.2879,0.2876,0.2956,0.3082,0.3297,0.3564,0.4096,0.4972,0.5319,0.5873,0.6783,0.7597,0.791,0.7606,0.8096,0.8474,0.8631,0.9435,0.9989,1.0136,1.0557,1.0917,1.115,1.1188,1.1255,1.1326,1.1339,1.1322,1.1301,1.1301,1.1301,1.1301,1.1301,1.1301,1.1301,1.1301,1.1289,1.1242,1.1129,1.1013,1.0944,1.094,1.0956,1.0842,1.1036,1.1069,1.0713,1.0665,1.0649,1.0514,1.0349,1.0253,1.0196,0.998,0.982,0.9756,0.9612,0.9494,0.9494,0.9494,0.9494,0.9496,0.9532,0.9584,1.3766,1.3492,1.3492,1.347,1.3404,1.3108,1.2779,1.2375,1.1903,1.1638,1.1622,1.1622,1.1591,1.1552,1.1365,1.1294,1.1256,1.1256,1.124,0.0,1.1216,1.1122,1.1001,1.1076,1.1091,1.1076,1.1502,1.1574,1.1324,1.1462,1.1476,1.1346,1.1513,1.145,1.112,1.0785,1.0472,1.026,1.0252,1.0108,0.9822,0.9208,0.8605,0.7938,0.694,0.6156,0.561,0.513,0.4755,0.4517,0.438,0.4308,0.4308,0.4431,0.4602,0.4864,0.5141,0.5601,0.6288,0.6546,0.7074,0.8052,0.8672,0.879,0.8323,0.8857,0.9341,0.9579,1.0082,1.0501,1.0748,1.1027,1.1263,1.1415,1.1531,1.159,1.1477,1.1456,1.1406,1.1314,1.1301,1.1301,1.1301,1.1301,1.1301,1.1301,1.1301,1.1276,1.115,1.1032,1.0887,1.0795,1.088,1.0886,1.0726,1.0907,1.0927,1.0656,1.0475,1.0349,1.0165,1.0079,1.0015,0.9894,0.983,0.974,0.9596,0.9516,0.9494,0.9494,0.9494,0.9494,0.9494,0.9516,0.952,1.381,1.3506,1.3492,1.3492,1.347,1.3148,1.2904,1.2745,1.2292,1.1993,1.1817,1.1672,1.1591,1.1591,1.1498,1.1466,1.1482,1.1459,1.1466,1.1451,1.1279,1.12,1.1197,1.1205,1.1235,1.1289,1.162,1.1647,1.1404,1.1563,1.1553,1.1333,1.1393,1.1361,1.1187,1.0874,1.0621,1.0409,1.0337,1.0152,0.9841,0.9547,0.898,0.8124,0.7543,0.6939,0.6316,0.6188,0.6057,0.5908,0.6056,0.6178,0.6178,0.6293,0.6459,0.6643,0.6783,0.7091,0.7658,0.8053,0.8512,0.9108,0.9443,0.9686,0.9746,0.9803,0.9953,1.0267,1.0616,1.0896,1.1099,1.1301,1.1465,1.159,1.1603,1.1578,1.1494,1.144,1.1356,1.1314,1.1301,1.1301,1.1301,1.1301,1.1301,1.1301,1.1301,1.1238,1.1112,1.0972,1.082,1.0659,1.0658,1.0634,1.0487,1.0648,1.0703,1.048,1.0371,1.0222,1.0053,0.9942,0.9862,0.9798,0.9708,0.9612,0.9494,0.9494,0.9494,0.9494,0.9494,0.9494,0.9494,0.9462,0.939,1.3763,1.3447,1.3393,1.3382,1.3415,1.321,1.3093,1.3064,1.275,1.2472,1.2209,1.1935,1.1767,1.1686,1.1686,1.1657,1.1614,1.1591,1.1591,1.1576,1.1341,1.1216,1.1246,1.1208,1.1214,1.1323,1.1538,1.1574,1.1446,1.1587,1.1585,1.1413,1.133,1.1284,1.1264,1.0923,1.0634,1.0404,1.0329,1.0191,0.9962,0.9859,0.9374,0.8553,0.8221,0.7774,0.7187,0.7236,0.7239,0.7187,0.7477,0.7664,0.7705,0.7842,0.7987,0.8174,0.8211,0.8439,0.8932,0.9449,0.9816,1.0028,1.0198,1.0506,1.0934,1.0735,1.0621,1.0858,1.1091,1.1301,1.1418,1.1519,1.1653,1.1765,1.1656,1.1594,1.1553,1.144,1.1326,1.1301,1.1301,1.1301,1.1301,1.1301,1.1301,1.1301,1.1301,1.1238,1.1087,1.096,1.0782,1.056,1.0487,1.0457,1.0351,1.0468,1.0496,1.0287,1.0212,1.0101,0.9935,0.9782,0.974,0.9708,0.9612,0.9532,0.9494,0.9494,0.9494,0.9494,0.9494,0.9494,0.9494,0.9424,0.9384,1.3624,1.3311,1.3067,1.3065,1.3222,1.3382,1.3422,1.3397,1.3104,1.2933,1.2852,1.2567,1.2246,1.1981,1.1952,1.1853,1.1635,1.1614,1.1613,1.1621,1.1576,1.1388,1.1173,1.1147,1.095,1.078,1.0907,1.1103,1.1199,1.1304,1.1473,1.1694,1.1458,1.1225,1.1093,1.0789,1.0419,1.0066,1.0213,1.036,1.0407,1.0018,0.9748,0.9645,0.8978,0.8585,0.8443,0.825,0.8149,0.8236,0.8186,0.8217,0.8334,0.8447,0.8687,0.9065,0.9193,0.9495,1.0003,1.0515,1.0748,1.0807,1.1002,1.1217,1.1427,1.1506,1.1502,1.1477,1.1544,1.169,1.1819,1.184,1.1902,1.2014,1.1915,1.1815,1.169,1.1556,1.144,1.1314,1.1301,1.1289,1.128,1.1301,1.1301,1.1301,1.1301,1.1213,1.0985,1.0909,1.0763,1.0464,1.0401,1.0435,1.0365,1.0476,1.0413,1.0103,1.0015,0.9903,0.9702,0.9574,0.951,0.9548,0.9516,0.9478,0.9462,0.9494,0.9468,0.943,0.9446,0.9494,0.9494,0.9478,0.9499,1.3596,1.327,1.3,1.2936,1.3028,1.3101,1.3211,1.3313,1.319,1.3186,1.3269,1.3155,1.2801,1.2295,1.2304,1.2215,1.2131,1.2123,1.2123,1.2131,1.2065,1.1983,1.1918,1.1835,1.1677,1.1459,1.1486,1.1457,1.1417,1.1451,1.156,1.1603,1.1167,1.0892,1.0885,1.0402,1.0076,1.0014,1.0084,1.0162,1.021,1.0201,1.0078,0.9807,0.9506,0.9198,0.8972,0.8972,0.9055,0.9135,0.9328,0.9495,0.9643,0.9767,0.9961,1.0194,1.0252,1.0371,1.06,1.0871,1.104,1.1137,1.1314,1.1494,1.1706,1.1865,1.194,1.1964,1.1943,1.2002,1.2122,1.2073,1.2054,1.215,1.1955,1.1765,1.1694,1.1528,1.1339,1.1204,1.1251,1.1255,1.1213,1.1263,1.1301,1.1301,1.1289,1.1192,1.0947,1.0888,1.0743,1.049,1.0397,1.0367,1.0315,1.0284,1.0214,1.0052,0.9926,0.9772,0.9558,0.9494,0.9478,0.9392,0.9376,0.9328,0.9205,0.9215,0.9215,0.9247,0.9344,0.9408,0.9478,0.9494,0.9512,1.3552,1.3261,1.2949,1.282,1.2826,1.2881,1.2991,1.3101,1.3119,1.3193,1.3328,1.3346,1.311,1.2732,1.265,1.2589,1.2516,1.2509,1.2509,1.2492,1.239,1.239,1.2441,1.234,1.2208,1.2025,1.1893,1.1739,1.1542,1.1576,1.1591,1.1503,1.1026,1.0732,1.067,1.0166,0.9894,0.9903,0.9921,0.996,0.9973,1.0226,1.0191,0.9889,0.9829,0.9631,0.9305,0.9545,0.9667,0.9732,1.012,1.0414,1.0547,1.0713,1.0896,1.104,1.1099,1.1116,1.1124,1.1251,1.1377,1.1515,1.1653,1.1815,1.2017,1.2187,1.2298,1.2382,1.2357,1.2357,1.2332,1.2261,1.2258,1.2274,1.1989,1.1803,1.1703,1.1502,1.1293,1.115,1.1188,1.12,1.1078,1.1137,1.1175,1.1175,1.1256,1.1251,1.1052,1.1014,1.0982,1.0695,1.056,1.0421,1.0328,1.0206,1.0065,0.9876,0.976,0.9632,0.943,0.9366,0.9344,0.9193,0.921,0.9193,0.9103,0.9049,0.9017,0.9033,0.9113,0.9258,0.9302,0.935,0.9382,1.3454,1.3146,1.2777,1.2631,1.2618,1.2801,1.29,1.2893,1.2918,1.2911,1.2955,1.2955,1.3025,1.3118,1.298,1.2809,1.2553,1.256,1.2567,1.2567,1.2536,1.2439,1.2306,1.2306,1.2204,1.2026,1.1783,1.1529,1.1369,1.1498,1.1591,1.1562,1.1209,1.0916,1.0608,1.025,0.9935,0.969,0.9745,0.9799,0.9825,0.996,1.0017,0.9966,0.9865,0.9804,0.9763,0.978,0.9852,0.9981,1.0305,1.056,1.0693,1.096,1.1213,1.144,1.159,1.1653,1.1656,1.1756,1.189,1.2039,1.2138,1.2308,1.2406,1.2541,1.2615,1.2664,1.2747,1.2725,1.2532,1.248,1.2409,1.2311,1.2163,1.1964,1.1719,1.1565,1.1389,1.115,1.1087,1.1061,1.0934,1.0901,1.0968,1.1042,1.1211,1.1346,1.1258,1.1329,1.1266,1.1058,1.0835,1.0653,1.0365,1.0138,0.991,0.9702,0.9556,0.9428,0.9193,0.9022,0.9017,0.9017,0.9017,0.9017,0.9006,0.8985,0.8968,0.8968,0.8968,0.9049,0.9135,0.9055,0.9103,1.334,1.2938,1.2793,1.2616,1.2422,1.2489,1.2588,1.2691,1.2709,1.2783,1.29,1.29,1.2955,1.2996,1.2969,1.3017,1.313,1.314,1.314,1.313,1.3148,1.3052,1.2899,1.2874,1.2646,1.2287,1.2134,1.1853,1.1424,1.1331,1.1318,1.1346,1.1064,1.0806,1.0573,1.0265,0.993,0.965,0.9647,0.9681,0.9693,0.9712,0.9771,0.987,0.9908,0.9994,1.0118,1.0136,1.0226,1.0437,1.0565,1.0769,1.1074,1.133,1.1556,1.1731,1.1803,1.1868,1.1952,1.2098,1.2175,1.2234,1.2357,1.2443,1.2505,1.2615,1.2688,1.2722,1.282,1.2832,1.2771,1.2676,1.2566,1.2431,1.2246,1.2002,1.1765,1.159,1.1356,1.104,1.0896,1.0845,1.095,1.109,1.1209,1.1237,1.1512,1.1586,1.1419,1.1365,1.1264,1.1048,1.0729,1.0439,1.0363,1.0073,0.9819,0.9555,0.9364,0.9204,0.9001,0.8958,0.8952,0.8877,0.8861,0.8813,0.8802,0.8754,0.8765,0.8845,0.8861,0.8888,0.8968,0.8926,0.8974,1.328,1.2968,1.2933,1.2738,1.2477,1.2464,1.2466,1.2534,1.2609,1.275,1.2875,1.2946,1.3032,1.3081,1.31,1.3269,1.3546,1.3392,1.3302,1.3309,1.3309,1.3236,1.3119,1.3108,1.2915,1.2592,1.2455,1.2123,1.1649,1.1353,1.1293,1.1344,1.1046,1.0808,1.0639,1.0334,1.0029,0.9813,0.9659,0.9614,0.9647,0.966,0.9732,0.9844,0.9947,1.0071,1.02,1.0265,1.0406,1.0624,1.0705,1.096,1.1402,1.1631,1.1828,1.193,1.1952,1.2002,1.2101,1.2234,1.2311,1.2369,1.248,1.2566,1.2627,1.2747,1.2796,1.2808,1.2893,1.2966,1.2881,1.2771,1.2639,1.2505,1.2295,1.2039,1.1744,1.1581,1.1293,1.0934,1.0822,1.085,1.0951,1.1223,1.1385,1.1426,1.1721,1.1827,1.1628,1.1493,1.1314,1.109,1.0713,1.037,1.0122,0.9822,0.9561,0.9304,0.9145,0.899,0.8877,0.8861,0.8845,0.8754,0.8695,0.8625,0.8576,0.8533,0.8582,0.8695,0.8689,0.87,0.8765,0.8818,0.8867,1.3299,1.3235,1.324,1.3033,1.2772,1.2771,1.2604,1.2464,1.2702,1.2848,1.2894,1.3079,1.3257,1.3415,1.3393,1.3552,1.3603,1.3203,1.3016,1.3046,1.2993,1.2979,1.2942,1.2914,1.2874,1.2775,1.2517,1.2207,1.1867,1.1557,1.1439,1.1421,1.1187,1.0934,1.0794,1.0451,1.0228,1.002,0.9741,0.9681,0.9766,0.9786,0.9864,0.9986,1.0025,1.0064,1.0051,1.0213,1.0406,1.0565,1.0777,1.1141,1.1603,1.1819,1.1964,1.2101,1.2113,1.2101,1.216,1.2295,1.2409,1.2517,1.2627,1.2759,1.2844,1.2976,1.299,1.2915,1.2966,1.3027,1.2893,1.2749,1.2649,1.2526,1.2357,1.2126,1.1781,1.1578,1.131,1.0881,1.0888,1.1006,1.108,1.133,1.1543,1.1607,1.1832,1.1998,1.1821,1.1737,1.1619,1.1283,1.0763,1.0267,0.9894,0.952,0.9274,0.9033,0.891,0.877,0.8689,0.8641,0.8657,0.8598,0.8614,0.8565,0.8565,0.8517,0.8517,0.8582,0.856,0.856,0.8608,0.8673,0.8695,1.3433,1.3119,1.3292,1.3142,1.2877,1.2864,1.287,1.292,1.3033,1.3066,1.3106,1.3166,1.3226,1.3286,1.3299,1.3345,1.3364,1.3194,1.3255,1.3444,1.3282,1.3095,1.2948,1.2794,1.2618,1.2453,1.2191,1.2007,1.1838,1.1411,1.1209,1.123,1.1022,1.0821,1.0664,1.0413,1.02,0.9954,0.9729,0.9668,0.9786,0.9799,0.9916,1.0187,1.029,1.038,1.0483,1.0457,1.059,1.0896,1.0993,1.1238,1.1631,1.1915,1.2138,1.2335,1.236,1.2468,1.2627,1.2664,1.27,1.2771,1.282,1.2856,1.2893,1.2939,1.2942,1.2903,1.2951,1.2942,1.2881,1.2688,1.2554,1.2517,1.2382,1.2126,1.1715,1.1356,1.1131,1.1065,1.1025,1.1109,1.135,1.1638,1.1816,1.1855,1.2132,1.2293,1.202,1.1766,1.1537,1.12,1.0649,1.011,0.9728,0.936,0.9071,0.884,0.8684,0.8576,0.8479,0.843,0.8447,0.8463,0.8463,0.8463,0.8479,0.8495,0.8479,0.8495,0.8511,0.8511,0.8517,0.8549,0.8582,1.3411,1.3224,1.3439,1.3427,1.3215,1.3132,1.3144,1.322,1.3253,1.3273,1.3347,1.3494,1.3534,1.354,1.3534,1.3534,1.354,1.3534,1.3669,1.3809,1.3439,1.319,1.3046,1.2794,1.2547,1.231,1.2118,1.2049,1.2022,1.1581,1.1313,1.1239,1.1001,1.0805,1.0658,1.042,1.0221,1.0029,0.9838,0.9759,0.984,0.987,1.0025,1.0329,1.045,1.059,1.0744,1.0693,1.0782,1.1074,1.1226,1.1477,1.1756,1.198,1.22,1.2382,1.2421,1.2483,1.2652,1.2676,1.2713,1.2688,1.2735,1.2759,1.2759,1.2783,1.2798,1.2771,1.2844,1.2869,1.2747,1.2603,1.2468,1.2348,1.2221,1.1943,1.1558,1.1221,1.1047,1.1126,1.1266,1.1433,1.1614,1.1885,1.206,1.2107,1.2241,1.2297,1.1972,1.1646,1.1326,1.0933,1.0396,0.9935,0.9536,0.9199,0.8877,0.8651,0.8457,0.836,0.8279,0.8236,0.8236,0.8236,0.8236,0.8231,0.8231,0.8328,0.8355,0.8409,0.843,0.8495,0.8495,0.8517,0.8555,1.3224,1.3474,1.3662,1.369,1.3641,1.3435,1.3308,1.3324,1.3319,1.3401,1.3597,1.3797,1.3965,1.4013,1.3877,1.3883,1.4019,1.3924,1.3883,1.3826,1.3493,1.3227,1.3166,1.2897,1.2642,1.241,1.2298,1.2278,1.2231,1.1942,1.1717,1.139,1.1122,1.0932,1.0728,1.0462,1.0303,1.0236,0.9987,0.9903,0.9976,0.9947,1.0128,1.0424,1.0496,1.0616,1.0833,1.0934,1.0998,1.1162,1.1502,1.174,1.1881,1.2026,1.2163,1.2308,1.2298,1.2335,1.2357,1.2492,1.2505,1.2419,1.2492,1.2517,1.2566,1.2627,1.2639,1.2566,1.2735,1.2759,1.2578,1.2468,1.2332,1.2076,1.1893,1.1619,1.1175,1.1111,1.1097,1.113,1.154,1.1939,1.1791,1.208,1.2143,1.2135,1.212,1.2011,1.1747,1.1451,1.1028,1.0618,1.0238,0.9824,0.9456,0.9193,0.8856,0.8501,0.8323,0.8263,0.8166,0.8117,0.8084,0.8068,0.8052,0.8019,0.8047,0.816,0.8209,0.8209,0.8295,0.8414,0.8463,0.843,0.8538,1.272,1.2683,1.3107,1.3281,1.3278,1.3184,1.325,1.3372,1.3368,1.3348,1.3471,1.355,1.3589,1.3589,1.3589,1.3589,1.361,1.3595,1.3589,1.3569,1.3445,1.3275,1.316,1.2925,1.2757,1.2636,1.2418,1.2305,1.2278,1.2042,1.1748,1.1406,1.1162,1.0894,1.0656,1.0428,1.0313,1.0253,0.9925,0.9865,0.9999,0.9823,0.9927,1.0316,1.0445,1.0616,1.0909,1.1188,1.1352,1.1406,1.1669,1.1856,1.1927,1.2048,1.2172,1.2271,1.2308,1.2357,1.2419,1.2455,1.2468,1.2455,1.2419,1.2517,1.2517,1.252,1.2529,1.2517,1.2578,1.2566,1.248,1.2298,1.1993,1.1594,1.1469,1.1289,1.0979,1.0909,1.0985,1.1095,1.1447,1.1727,1.1943,1.2051,1.2112,1.2081,1.2027,1.1949,1.1622,1.1388,1.1059,1.0634,1.0244,0.9792,0.9408,0.9161,0.8818,0.8398,0.8236,0.8225,0.8128,0.8084,0.8052,0.8014,0.7954,0.7906,0.7971,0.8052,0.8052,0.8031,0.8117,0.822,0.8258,0.8258,0.8493,1.2373,1.2368,1.2576,1.28,1.2932,1.2751,1.285,1.3074,1.3037,1.303,1.3094,1.3094,1.3179,1.3264,1.3264,1.3313,1.3398,1.3398,1.3398,1.3398,1.3406,1.3324,1.3259,1.3147,1.3026,1.2796,1.2584,1.2425,1.2298,1.2124,1.1897,1.1623,1.1323,1.1019,1.0787,1.0548,1.0358,1.0249,0.997,0.9897,1.005,0.9784,0.9885,1.0213,1.038,1.0552,1.0909,1.1339,1.159,1.1606,1.1769,1.1915,1.1968,1.2051,1.2172,1.2295,1.2258,1.2271,1.2295,1.2274,1.2212,1.2175,1.2172,1.2163,1.215,1.2163,1.2175,1.2138,1.2212,1.2212,1.2147,1.1915,1.1578,1.1226,1.1023,1.0937,1.077,1.0922,1.1064,1.1254,1.1546,1.1791,1.1981,1.1965,1.1934,1.1903,1.1856,1.1716,1.1498,1.131,1.1059,1.0609,1.0222,0.9808,0.945,0.9193,0.8952,0.8528,0.8253,0.8225,0.8079,0.8003,0.7889,0.7819,0.7803,0.7808,0.7841,0.7873,0.7873,0.7889,0.7938,0.8003,0.8063,0.809,0.8329,1.199,1.2173,1.2053,1.2241,1.2482,1.2197,1.2242,1.2537,1.2392,1.2406,1.2555,1.2598,1.2683,1.2994,1.2881,1.3079,1.3249,1.32,1.327,1.327,1.3294,1.3308,1.3261,1.333,1.3141,1.2789,1.276,1.2521,1.2284,1.2229,1.2113,1.1824,1.1536,1.1246,1.0958,1.0723,1.0499,1.0318,1.0086,0.9965,0.9987,0.9793,0.9821,1.0076,1.0316,1.0526,1.0922,1.1352,1.1619,1.1678,1.1828,1.1952,1.2064,1.2064,1.2101,1.2163,1.2088,1.2039,1.2014,1.1906,1.1806,1.1719,1.1681,1.1656,1.1703,1.1703,1.1703,1.1715,1.1778,1.1753,1.1628,1.1381,1.1137,1.0862,1.0622,1.0627,1.0819,1.0979,1.1172,1.1449,1.1798,1.1896,1.1833,1.1755,1.1693,1.1622,1.1576,1.1428,1.1247,1.1059,1.0807,1.0498,1.0142,0.9833,0.953,0.9242,0.9022,0.8732,0.8436,0.8258,0.7998,0.7868,0.7689,0.7612,0.7657,0.764,0.7608,0.7624,0.7694,0.771,0.7754,0.7857,0.7949,0.7933,0.8069,1.0997,1.0938,1.1334,1.1426,1.1391,1.1446,1.1519,1.163,1.157,1.1693,1.187,1.1907,1.2042,1.2231,1.2268,1.2375,1.2625,1.2662,1.2683,1.2881,1.3094,1.3139,1.3126,1.3147,1.2969,1.2666,1.2376,1.2208,1.2087,1.207,1.203,1.1877,1.1564,1.1266,1.1009,1.0748,1.0589,1.0492,1.0221,1.0022,0.9958,0.9805,0.9738,0.989,1.0234,1.0578,1.0884,1.1213,1.144,1.1603,1.1828,1.1943,1.194,1.194,1.1915,1.1843,1.1815,1.174,1.1644,1.1581,1.1528,1.1381,1.1343,1.1381,1.1389,1.1364,1.1377,1.1389,1.1393,1.1305,1.1103,1.0913,1.0705,1.0497,1.0385,1.0405,1.0614,1.0792,1.0973,1.1212,1.1485,1.1708,1.1638,1.149,1.1412,1.1357,1.1263,1.113,1.0996,1.0854,1.0665,1.045,1.0117,0.984,0.961,0.9306,0.9006,0.8765,0.8506,0.8279,0.8014,0.7836,0.7689,0.7591,0.7526,0.751,0.751,0.751,0.7591,0.7591,0.7591,0.7689,0.7759,0.7759,0.7948,1.0423,1.033,1.0464,1.0512,1.0487,1.0492,1.0643,1.0808,1.0831,1.0982,1.1203,1.1225,1.1397,1.1666,1.1682,1.1854,1.2176,1.2342,1.247,1.2625,1.2796,1.2896,1.2912,1.2882,1.2802,1.2715,1.2502,1.2254,1.2074,1.1926,1.1857,1.1786,1.1512,1.1261,1.1045,1.0781,1.0637,1.0546,1.0289,1.0087,1.0074,0.9958,0.9964,1.003,1.0345,1.059,1.0807,1.1074,1.1226,1.1364,1.1578,1.1765,1.179,1.174,1.1678,1.1606,1.1477,1.1415,1.1314,1.1188,1.1087,1.1011,1.096,1.0922,1.0922,1.0934,1.0922,1.0922,1.0909,1.0841,1.0629,1.045,1.0257,1.0145,1.0103,1.0215,1.0436,1.0654,1.0879,1.1064,1.1272,1.1351,1.131,1.1256,1.1225,1.12,1.1185,1.1075,1.1043,1.0902,1.0728,1.0491,1.0149,0.9862,0.9664,0.9354,0.8968,0.8716,0.8457,0.8247,0.8036,0.7884,0.7754,0.7673,0.7591,0.751,0.751,0.751,0.751,0.7526,0.7559,0.7559,0.7609,0.7704,0.7979,0.9879,0.9806,0.9576,0.9597,0.9692,0.9609,0.9808,1.0125,1.0142,1.0294,1.0494,1.0538,1.0749,1.1068,1.1133,1.1424,1.186,1.2203,1.2326,1.2454,1.2577,1.2683,1.272,1.2741,1.2789,1.292,1.262,1.2344,1.2086,1.1866,1.1821,1.1719,1.1445,1.1266,1.1091,1.0791,1.0598,1.0511,1.031,1.0121,1.0172,1.0112,1.0244,1.0413,1.0493,1.0577,1.0733,1.0905,1.1014,1.1011,1.1124,1.1301,1.1427,1.1502,1.1381,1.1377,1.1162,1.1044,1.093,1.0777,1.0641,1.059,1.0501,1.0432,1.0424,1.045,1.0437,1.0385,1.036,1.0295,1.0167,1.0025,0.9857,0.9782,0.9816,1.0015,1.0236,1.0562,1.0857,1.1063,1.1156,1.1193,1.1153,1.1106,1.1075,1.1043,1.1028,1.1012,1.0965,1.087,1.0665,1.0491,1.0158,0.9926,0.9734,0.9536,0.9135,0.8904,0.8587,0.8425,0.8247,0.8133,0.8019,0.7792,0.7694,0.7608,0.7542,0.7526,0.7526,0.751,0.751,0.7526,0.7586,0.7679,0.7981,0.8865,0.8632,0.8951,0.9013,0.89,0.92,0.9367,0.9454,0.9476,0.958,0.9777,0.9798,1.0077,1.0376,1.0463,1.0831,1.1419,1.1811,1.2133,1.2299,1.2427,1.2534,1.2662,1.2699,1.2732,1.2653,1.2518,1.2337,1.2152,1.1931,1.1858,1.1866,1.1555,1.1299,1.109,1.0776,1.0509,1.0464,1.0321,1.0198,1.0104,1.0224,1.0409,1.0601,1.0639,1.0686,1.0719,1.0768,1.0719,1.0613,1.0611,1.0711,1.0894,1.1105,1.1094,1.0896,1.0794,1.0675,1.0483,1.0406,1.0278,1.0167,1.0076,1.0064,1.0064,1.0084,1.0035,0.9967,0.9861,0.9734,0.9564,0.9645,0.9495,0.9478,0.9785,1.0064,1.0144,1.0481,1.0857,1.1052,1.1092,1.1066,1.0996,1.0933,1.0886,1.0839,1.0823,1.0791,1.076,1.0634,1.046,1.0317,1.0158,0.9974,0.9804,0.9628,0.9382,0.9242,0.9017,0.8872,0.8684,0.8511,0.8333,0.8117,0.7873,0.771,0.7645,0.758,0.7526,0.751,0.751,0.751,0.7579,0.7683,0.7887,0.8391,0.8259,0.8455,0.8474,0.8382,0.8504,0.871,0.8925,0.8947,0.9144,0.9362,0.9449,0.9624,0.9903,1.0098,1.0467,1.0987,1.1419,1.1698,1.1864,1.2192,1.2448,1.2577,1.2656,1.2705,1.2668,1.2554,1.2393,1.2247,1.1999,1.1887,1.1729,1.1502,1.1329,1.1139,1.0883,1.0591,1.0463,1.0376,1.029,1.0156,1.0387,1.0662,1.085,1.0905,1.0952,1.1056,1.1063,1.1047,1.0999,1.0968,1.096,1.103,1.1116,1.1127,1.0624,1.0448,1.0288,1.0066,0.9999,0.9862,0.9706,0.9656,0.959,0.9577,0.9578,0.9658,0.9721,0.9718,0.9695,0.9797,0.9673,0.9618,0.9667,1.0015,1.0242,1.0367,1.0683,1.091,1.1051,1.0937,1.0867,1.0798,1.0751,1.0703,1.0656,1.0624,1.0593,1.057,1.046,1.0317,1.0292,1.0174,1.0031,0.9878,0.974,0.9606,0.9488,0.9354,0.921,0.9017,0.8797,0.8657,0.8506,0.8231,0.7922,0.7715,0.765,0.758,0.751,0.751,0.7529,0.7584,0.7707,0.793,0.798,0.7956,0.7921,0.7903,0.7872,0.7856,0.8047,0.835,0.8438,0.8684,0.9038,0.9082,0.9192,0.9498,0.9798,1.0168,1.0576,1.0944,1.1154,1.1456,1.1849,1.2192,1.2421,1.2534,1.2641,1.2699,1.2681,1.2596,1.2406,1.2146,1.1896,1.1753,1.1636,1.1404,1.1175,1.0965,1.0739,1.0584,1.0499,1.0475,1.0522,1.0705,1.0953,1.1196,1.1254,1.1324,1.1377,1.1371,1.1298,1.1272,1.1256,1.1268,1.1288,1.142,1.1152,1.0512,1.0322,1.0213,1.0073,0.9926,0.9911,0.9816,0.951,0.9414,0.9415,0.956,0.9527,0.9667,0.9702,0.9757,0.986,0.9906,0.9875,1.0002,1.0287,1.0629,1.0716,1.0904,1.1055,1.1061,1.0822,1.074,1.0728,1.0672,1.0634,1.0586,1.0561,1.0482,1.045,1.0364,1.0269,1.0292,1.0228,1.0095,0.9967,0.9846,0.9766,0.969,0.9562,0.9434,0.9226,0.9017,0.8894,0.8732,0.8522,0.8231,0.7976,0.7715,0.7612,0.7542,0.7526,0.7567,0.766,0.7818,0.8041,0.7245,0.7155,0.728,0.7257,0.7194,0.7411,0.7558,0.7669,0.7893,0.8094,0.8398,0.8398,0.8618,0.9017,0.9428,0.9798,1.0103,1.0386,1.0749,1.1133,1.1413,1.1822,1.2272,1.24,1.2555,1.2641,1.2683,1.2693,1.2578,1.2346,1.2225,1.2087,1.1755,1.1473,1.1361,1.1064,1.0731,1.0687,1.0764,1.0835,1.0903,1.0972,1.111,1.1263,1.148,1.1622,1.1595,1.1577,1.1472,1.1197,1.112,1.0985,1.0841,1.08,1.0798,1.0808,1.0982,1.1189,1.0779,1.0431,1.0232,1.0134,1.0022,1.0002,0.984,0.9763,0.9747,0.9843,0.9784,0.9802,0.9883,0.9806,0.9863,1.01,1.0445,1.0736,1.0909,1.1031,1.1213,1.1204,1.1015,1.084,1.0739,1.0657,1.0586,1.0539,1.0482,1.0409,1.0323,1.0244,1.019,1.018,1.0165,1.0047,1.0015,0.991,0.9878,0.9856,0.9776,0.9632,0.945,0.9242,0.9038,0.8894,0.87,0.8425,0.8057,0.7813,0.7661,0.7531,0.7444,0.7562,0.7747,0.7946,0.8091,0.6807,0.69,0.7033,0.7017,0.6903,0.6966,0.7106,0.7282,0.7382,0.7676,0.7984,0.8028,0.8288,0.8706,0.8968,0.9253,0.9629,0.9951,1.025,1.0706,1.1047,1.1483,1.18,1.2165,1.247,1.2513,1.2641,1.2705,1.2635,1.2575,1.2481,1.2268,1.2057,1.1799,1.1549,1.1285,1.099,1.0833,1.0822,1.0966,1.1146,1.1355,1.1528,1.1586,1.1873,1.196,1.1948,1.1958,1.1893,1.1709,1.164,1.1536,1.1467,1.1446,1.1422,1.1318,1.1588,1.1468,1.0939,1.0578,1.0416,1.0234,1.0065,0.9833,0.9853,0.9851,0.9881,1.0002,0.9971,0.9987,1.009,1.0104,1.0214,1.04,1.0568,1.082,1.1044,1.1192,1.1296,1.1261,1.1207,1.1012,1.0817,1.0729,1.0588,1.0402,1.0325,1.0258,1.0178,1.0101,1.0069,1.0053,1.0015,0.9967,0.9983,0.9958,0.9964,0.9942,0.9935,0.9808,0.968,0.9504,0.9264,0.9022,0.8835,0.8511,0.8122,0.7906,0.7754,0.7542,0.7335,0.7493,0.7655,0.7814,0.8023,0.6514,0.6706,0.6783,0.6768,0.6661,0.6574,0.6672,0.6869,0.6909,0.7231,0.765,0.783,0.8113,0.835,0.846,0.8684,0.9148,0.9541,0.982,1.0207,1.0727,1.1181,1.1505,1.1935,1.2219,1.2305,1.2513,1.2577,1.2619,1.2653,1.2584,1.2388,1.2274,1.2027,1.1707,1.1478,1.1262,1.0979,1.0983,1.1118,1.1333,1.1684,1.1828,1.1966,1.2136,1.2305,1.2305,1.229,1.227,1.2133,1.1995,1.1851,1.1725,1.1644,1.1614,1.1516,1.1628,1.144,1.1046,1.0735,1.0448,1.0252,1.0087,1.004,1.0005,0.9913,0.99,1.0144,1.0052,1.0192,1.0346,1.0237,1.0338,1.0461,1.0679,1.0931,1.1145,1.1189,1.127,1.1306,1.1237,1.1123,1.0954,1.0842,1.0634,1.0313,1.0185,1.0124,1.0101,1.0079,1.0096,1.012,1.01,1.0068,1.0044,1.0045,1.0046,1.004,1.004,0.9967,0.9819,0.965,0.944,0.9199,0.8959,0.8555,0.8133,0.7998,0.7841,0.7534,0.7317,0.7397,0.7539,0.7707,0.7947,0.6412,0.6429,0.6366,0.6363,0.633,0.6307,0.6345,0.644,0.6442,0.6748,0.7183,0.7606,0.7786,0.7918,0.7981,0.8201,0.8679,0.8863,0.9367,0.9951,1.0511,1.0939,1.1268,1.1602,1.1893,1.2059,1.2283,1.2384,1.2448,1.2577,1.2644,1.2656,1.2442,1.2159,1.187,1.1623,1.1496,1.1279,1.1281,1.1345,1.1535,1.1748,1.1868,1.1939,1.2126,1.2305,1.2286,1.2249,1.2176,1.2021,1.1947,1.1781,1.1595,1.1452,1.1378,1.1359,1.1185,1.1077,1.0906,1.0876,1.0855,1.0712,1.0507,1.0321,1.0279,1.0262,1.0287,1.0216,1.0096,1.0056,1.0066,1.0047,1.0187,1.0374,1.0508,1.0631,1.0841,1.1035,1.1139,1.1301,1.1228,1.1002,1.098,1.0835,1.0689,1.0394,1.0312,1.026,1.0231,1.0227,1.0254,1.0262,1.027,1.0242,1.018,1.0164,1.0172,1.0175,1.0181,1.0069,0.9916,0.975,0.9659,0.9278,0.8988,0.8582,0.8209,0.8047,0.7818,0.7452,0.7307,0.7368,0.7562,0.7788,0.8018,0.6412,0.6406,0.6363,0.6333,0.6287,0.6287,0.628,0.6308,0.6335,0.6438,0.6704,0.6899,0.7143,0.7348,0.7452,0.7779,0.8328,0.8732,0.9183,0.9689,1.0272,1.0727,1.1079,1.1429,1.1742,1.1855,1.2043,1.2166,1.2182,1.2412,1.247,1.2486,1.2493,1.2388,1.2117,1.1769,1.1594,1.1569,1.1484,1.1481,1.1627,1.1712,1.1773,1.1793,1.1832,1.1929,1.1935,1.1929,1.1873,1.1793,1.1706,1.1558,1.1366,1.1157,1.1034,1.0998,1.0784,1.0648,1.0586,1.0647,1.0604,1.0341,1.0226,1.0266,1.0311,1.0171,1.0133,1.0072,1.0069,1.0027,1.0002,0.9945,0.9978,1.0174,1.0325,1.0393,1.0531,1.0782,1.0864,1.0962,1.0854,1.0692,1.0729,1.0778,1.0637,1.0484,1.0443,1.042,1.0417,1.0406,1.0436,1.0448,1.046,1.0388,1.0321,1.03,1.0304,1.0289,1.0286,1.0168,1.0044,1.006,0.9906,0.949,0.9032,0.8652,0.8327,0.8084,0.7787,0.7386,0.7277,0.7333,0.7556,0.7824,0.7999,0.6412,0.6412,0.6412,0.6366,0.6344,0.6306,0.6293,0.6289,0.6256,0.6308,0.6412,0.6483,0.6731,0.7046,0.7166,0.7581,0.8249,0.8739,0.9133,0.9696,1.0302,1.0728,1.1021,1.128,1.1598,1.1706,1.1802,1.1914,1.1936,1.2246,1.2384,1.247,1.2565,1.2488,1.2237,1.1908,1.1677,1.164,1.1638,1.1502,1.162,1.1675,1.1712,1.1706,1.1719,1.1744,1.1744,1.1744,1.1688,1.1614,1.1502,1.1391,1.1218,1.104,1.084,1.0719,1.0563,1.0322,1.0262,1.0137,1.024,1.0078,1.0056,1.0075,1.0078,1.0084,1.0124,1.0221,1.0163,1.0093,1.008,1.0042,1.0041,1.0262,1.0234,1.0281,1.0384,1.0565,1.0567,1.0609,1.0544,1.061,1.061,1.0713,1.0779,1.07,1.0767,1.0743,1.0707,1.0695,1.0665,1.0671,1.0665,1.0568,1.0448,1.0452,1.0432,1.0306,1.0301,1.0264,1.0204,1.0194,0.9916,0.9339,0.8923,0.8668,0.8406,0.8134,0.7731,0.7307,0.7285,0.7307,0.7453,0.7677,0.7821,0.6412,0.6412,0.6412,0.6409,0.6385,0.6317,0.6309,0.6281,0.6184,0.6221,0.6383,0.6605,0.6865,0.7116,0.718,0.7665,0.827,0.8818,0.9311,0.9847,1.041,1.0912,1.1177,1.1363,1.1604,1.1678,1.1745,1.1766,1.1754,1.208,1.2283,1.2427,1.2543,1.2575,1.2298,1.2033,1.1774,1.1608,1.1732,1.1637,1.157,1.1671,1.1715,1.1715,1.1727,1.1727,1.1746,1.1727,1.1683,1.1583,1.1527,1.1432,1.127,1.1184,1.1087,1.1069,1.0834,1.0689,1.0652,1.015,1.0035,1.006,1.0088,1.0113,1.0261,1.0274,1.024,1.0328,1.0336,1.0282,1.0266,1.0266,1.0265,1.0259,1.0231,1.0238,1.0334,1.0388,1.0424,1.0462,1.0587,1.0671,1.0617,1.0641,1.0815,1.0912,1.1051,1.1045,1.0912,1.0785,1.0659,1.0647,1.0617,1.0581,1.0484,1.0587,1.0568,1.0415,1.0299,1.0256,1.015,1.0021,0.9651,0.9163,0.8935,0.8783,0.8464,0.8139,0.7773,0.7451,0.7293,0.7311,0.7424,0.7544,0.7672,0.6412,0.6412,0.6412,0.6412,0.6406,0.6371,0.6342,0.6279,0.617,0.6136,0.6249,0.6484,0.672,0.6979,0.7365,0.7772,0.8328,0.8855,0.9349,0.9846,1.0413,1.0865,1.1214,1.1497,1.1703,1.1843,1.1826,1.1718,1.1701,1.1956,1.2033,1.2166,1.2513,1.2656,1.2524,1.231,1.2093,1.2029,1.1962,1.1837,1.1733,1.1786,1.1813,1.1826,1.182,1.1834,1.1821,1.1809,1.1776,1.1699,1.1693,1.1646,1.1539,1.1478,1.137,1.1316,1.1117,1.0894,1.0767,1.0481,1.0329,1.0294,1.0205,1.0236,1.0325,1.0297,1.0323,1.039,1.0434,1.0376,1.0297,1.0286,1.0297,1.0303,1.0285,1.0291,1.0339,1.0352,1.0383,1.0408,1.0491,1.0733,1.081,1.0751,1.0876,1.0904,1.1001,1.0876,1.0731,1.0557,1.043,1.0442,1.043,1.0454,1.0472,1.0641,1.0653,1.0519,1.0352,1.0239,1.0098,0.9965,0.9697,0.9355,0.9131,0.8908,0.8545,0.82,0.7914,0.7656,0.7484,0.7369,0.745,0.751,0.7557,0.6412,0.6412,0.6412,0.6412,0.6412,0.6412,0.6366,0.632,0.6241,0.6206,0.6283,0.6497,0.6744,0.7033,0.7407,0.7955,0.846,0.8921,0.9521,0.9987,1.0414,1.101,1.1438,1.1623,1.1853,1.2015,1.198,1.1839,1.1846,1.1828,1.1961,1.2227,1.2497,1.265,1.2626,1.2518,1.2358,1.227,1.2107,1.2007,1.1914,1.189,1.1896,1.189,1.189,1.1902,1.1894,1.1912,1.1918,1.1904,1.1918,1.1918,1.1852,1.1774,1.1653,1.1575,1.149,1.1291,1.1214,1.1159,1.1063,1.0954,1.0593,1.0382,1.0418,1.0466,1.0544,1.0574,1.0557,1.0641,1.0701,1.0659,1.0677,1.0707,1.0707,1.073,1.07,1.0741,1.0617,1.0616,1.0553,1.0785,1.0916,1.0962,1.0969,1.0937,1.0926,1.0815,1.0743,1.0659,1.0593,1.0605,1.0641,1.0755,1.0767,1.0737,1.0713,1.0611,1.0455,1.0307,1.0189,1.0071,0.9823,0.9528,0.9208,0.8892,0.8588,0.8275,0.8001,0.7798,0.7643,0.7558,0.7514,0.7515,0.7528,0.6412,0.6412,0.6412,0.6412,0.6412,0.6412,0.6406,0.6406,0.6376,0.6396,0.6423,0.6658,0.6867,0.7164,0.7475,0.8025,0.865,0.9006,0.9637,1.0204,1.0546,1.1215,1.1603,1.1762,1.2033,1.2198,1.2204,1.2082,1.2095,1.2043,1.215,1.2381,1.2585,1.2668,1.2687,1.2644,1.2542,1.24,1.2334,1.224,1.2135,1.1992,1.2008,1.1994,1.1973,1.1927,1.1921,1.1929,1.1952,1.1948,1.1964,1.1952,1.1948,1.1936,1.193,1.193,1.1936,1.1894,1.1816,1.1786,1.1749,1.1514,1.096,1.0707,1.0707,1.0858,1.0906,1.105,1.1129,1.1285,1.1388,1.1404,1.1432,1.1432,1.1422,1.1406,1.1352,1.1257,1.1104,1.0959,1.0782,1.0815,1.0791,1.0827,1.1081,1.1293,1.1347,1.1494,1.1404,1.1266,1.1188,1.1093,1.1135,1.1195,1.1141,1.0966,1.0828,1.0713,1.0575,1.0426,1.0319,1.0107,0.9832,0.9512,0.9177,0.887,0.862,0.8361,0.8121,0.7938,0.7807,0.7607,0.7532,0.7572,0.7605,0.6412,0.6412,0.6412,0.6412,0.6412,0.6412,0.6412,0.6412,0.6412,0.6412,0.6412,0.6667,0.6845,0.6967,0.7568,0.8088,0.8535,0.9034,0.9694,1.0167,1.0536,1.1194,1.1634,1.1924,1.2218,1.2408,1.2447,1.2319,1.2303,1.2286,1.2437,1.2663,1.2718,1.2732,1.2711,1.2705,1.2638,1.259,1.2554,1.2472,1.2382,1.2263,1.2227,1.2159,1.1997,1.1956,1.1961,1.1946,1.2015,1.2173,1.2227,1.2281,1.2481,1.2481,1.246,1.2481,1.2463,1.2388,1.2225,1.2177,1.2111,1.1966,1.1539,1.1551,1.1496,1.1388,1.1345,1.1418,1.1452,1.1522,1.1565,1.1629,1.1664,1.167,1.1592,1.1409,1.1354,1.1196,1.1055,1.0956,1.0809,1.0821,1.0759,1.0932,1.121,1.1536,1.1784,1.1946,1.1999,1.1832,1.167,1.1563,1.1466,1.1478,1.1285,1.1105,1.096,1.0828,1.0748,1.0543,1.0187,0.9975,0.9764,0.9477,0.9093,0.8873,0.8679,0.8403,0.8084,0.8117,0.8018,0.7758,0.7572,0.765,0.7727,0.6412,0.6412,0.6412,0.6412,0.6412,0.6412,0.6412,0.6412,0.6412,0.6412,0.6437,0.6667,0.682,0.692,0.7515,0.8038,0.8432,0.8853,0.9501,1.024,1.0413,1.112,1.1658,1.2029,1.2311,1.2555,1.2651,1.2567,1.2578,1.2657,1.279,1.2767,1.2813,1.2798,1.2741,1.2705,1.2705,1.2687,1.2671,1.2641,1.2555,1.2443,1.2363,1.2198,1.1989,1.1903,1.193,1.1909,1.201,1.2225,1.2283,1.2443,1.2607,1.2629,1.2671,1.2668,1.2656,1.2569,1.2466,1.2448,1.2312,1.2131,1.1978,1.1942,1.184,1.1695,1.1609,1.1585,1.1585,1.1609,1.1656,1.1688,1.1717,1.1746,1.1498,1.125,1.111,1.097,1.0899,1.0837,1.0814,1.0861,1.094,1.1095,1.1273,1.1491,1.1786,1.2072,1.2194,1.2221,1.2054,1.19,1.1793,1.1709,1.1516,1.1387,1.1306,1.1238,1.1153,1.0872,1.0283,0.9911,0.9789,0.9431,0.9022,0.8803,0.8592,0.8309,0.8055,0.8122,0.816,0.7941,0.7813,0.7837,0.7914,0.6412,0.6412,0.6412,0.6412,0.6412,0.6412,0.6412,0.6412,0.6412,0.6412,0.6437,0.6642,0.6745,0.6817,0.7266,0.7789,0.8184,0.8602,0.9299,1.0339,1.0413,1.0949,1.1585,1.2005,1.2278,1.2594,1.2791,1.2761,1.2908,1.295,1.294,1.2883,1.2971,1.2973,1.2831,1.2723,1.2662,1.2598,1.2598,1.2577,1.2427,1.232,1.2198,1.1946,1.1752,1.1639,1.1731,1.1747,1.1725,1.1946,1.2118,1.2229,1.247,1.2598,1.2683,1.2705,1.2705,1.2687,1.2629,1.2632,1.2548,1.2328,1.2123,1.2142,1.2074,1.185,1.1724,1.1818,1.185,1.1776,1.1793,1.1621,1.1571,1.1449,1.1239,1.1027,1.0858,1.0629,1.0361,1.0302,1.0257,1.0337,1.0576,1.0684,1.0906,1.1251,1.1612,1.1956,1.2242,1.2355,1.237,1.2213,1.2174,1.2083,1.2027,1.1908,1.1778,1.168,1.1518,1.1129,1.0498,1.0126,0.9825,0.9382,0.8923,0.8695,0.8447,0.8203,0.8106,0.8257,0.8251,0.811,0.8048,0.8065,0.8069,0.6412,0.6412,0.6412,0.6412,0.6412,0.6412,0.6412,0.6412,0.6412,0.6412,0.6412,0.6464,0.6514,0.6614,0.6892,0.7366,0.7832,0.8354,0.9027,0.9743,1.0167,1.0732,1.1414,1.1858,1.2181,1.2467,1.2686,1.2953,1.3199,1.3217,1.3292,1.3527,1.3384,1.3061,1.2933,1.2785,1.2597,1.2454,1.2363,1.2363,1.2272,1.1822,1.1499,1.1354,1.1219,1.0987,1.1014,1.1009,1.1154,1.1413,1.1499,1.1822,1.2342,1.2571,1.2677,1.2705,1.2705,1.2705,1.2705,1.2677,1.2605,1.2593,1.2464,1.2427,1.2287,1.1972,1.1868,1.2022,1.2025,1.1914,1.1765,1.1537,1.1326,1.1134,1.0917,1.0744,1.0549,1.0229,0.9859,0.9777,0.9689,0.9864,1.0125,1.0342,1.0564,1.0884,1.1219,1.1607,1.2047,1.2273,1.2511,1.2443,1.2533,1.2485,1.24,1.2251,1.2037,1.1778,1.1535,1.1128,1.065,1.0076,0.9518,0.9203,0.884,0.8544,0.8326,0.8169,0.8143,0.8309,0.8337,0.8197,0.8325,0.8383,0.8342,0.6412,0.6412,0.6412,0.6412,0.6412,0.6412,0.6412,0.6412,0.6412,0.6412,0.6412,0.6412,0.6412,0.6439,0.6692,0.7064,0.7559,0.8035,0.8832,0.9525,1.0019,1.058,1.1149,1.1712,1.2127,1.2419,1.2691,1.2996,1.339,1.3425,1.3483,1.3766,1.3465,1.3165,1.301,1.2697,1.2459,1.2203,1.207,1.1957,1.193,1.1505,1.1068,1.0917,1.0598,1.0412,1.0381,1.0402,1.0576,1.0917,1.1133,1.1736,1.2213,1.247,1.2598,1.2662,1.2705,1.2705,1.2683,1.265,1.2571,1.2493,1.24,1.2197,1.1985,1.1712,1.1706,1.1791,1.1511,1.1372,1.1222,1.1033,1.0844,1.0669,1.0337,1.0055,0.9907,0.9716,0.9541,0.9519,0.9498,0.958,0.982,1.006,1.0325,1.0759,1.1073,1.1489,1.1881,1.2182,1.2433,1.2598,1.2641,1.2598,1.2451,1.2315,1.2176,1.1897,1.1513,1.0883,1.0269,0.968,0.9172,0.8861,0.8561,0.833,0.8123,0.8003,0.8089,0.8228,0.828,0.8279,0.8454,0.859,0.8521,0.6412,0.6412,0.6412,0.6412,0.6412,0.6412,0.6412,0.6412,0.6412,0.6412,0.6412,0.6412,0.6412,0.6489,0.6642,0.7061,0.7459,0.7786,0.856,0.9183,0.9723,1.024,1.0875,1.1536,1.1975,1.237,1.2686,1.3007,1.3364,1.338,1.3457,1.3726,1.3554,1.3239,1.2873,1.256,1.2364,1.2052,1.1811,1.1429,1.1283,1.1159,1.0785,1.0393,1.0081,0.9959,0.9951,1.0014,1.0107,1.0492,1.0948,1.1521,1.1977,1.2213,1.239,1.2476,1.2497,1.2497,1.254,1.2513,1.2336,1.2161,1.2031,1.1862,1.1659,1.1554,1.1554,1.1309,1.1026,1.0884,1.0751,1.0569,1.0401,1.0171,0.9805,0.9481,0.9376,0.9288,0.9283,0.9257,0.9323,0.9367,0.9623,0.986,1.0209,1.0636,1.1045,1.1489,1.185,1.208,1.231,1.247,1.2555,1.2513,1.2427,1.2225,1.2075,1.1681,1.1219,1.0564,0.9939,0.944,0.8948,0.8511,0.8251,0.8109,0.7972,0.7831,0.797,0.8114,0.8198,0.8263,0.837,0.8498,0.859,0.6412,0.6412,0.6412,0.6412,0.6412,0.6412,0.6412,0.6412,0.6412,0.6412,0.6412,0.6412,0.6412,0.6412,0.6437,0.6711,0.7089,0.7462,0.7811,0.8311,0.9303,0.9846,1.0462,1.1292,1.178,1.2243,1.2662,1.2934,1.3225,1.3219,1.3299,1.3538,1.3308,1.3123,1.3025,1.2682,1.2298,1.1945,1.1665,1.1367,1.0656,1.0488,1.0313,1.0037,0.9835,0.9772,0.9784,0.9833,0.999,1.0345,1.084,1.1273,1.1613,1.1893,1.2075,1.2182,1.2203,1.2225,1.2246,1.2246,1.2062,1.1956,1.1831,1.1709,1.1502,1.1283,1.1139,1.0781,1.0576,1.063,1.0498,1.0209,0.9993,0.9756,0.9433,0.9209,0.9068,0.9092,0.9113,0.914,0.9163,0.9387,0.9703,0.9949,1.0215,1.0631,1.0986,1.1425,1.1952,1.2101,1.2228,1.2353,1.2494,1.2448,1.239,1.1997,1.1765,1.1402,1.0933,1.0225,0.9659,0.9254,0.8793,0.8391,0.8155,0.8022,0.7866,0.7667,0.7767,0.7921,0.8101,0.8219,0.8318,0.8454,0.8568]},{"header":{"parameterUnit":"m.s-1","parameterCategory":1,"la1":31.0,"la2":29.5877,"lo1":-88.7671,"lo2":-86.6584,"dy":0.0162,"dx":0.0185,"nx":115,"ny":88,"refTime":"2023-04-26T06:00:00:Z","depth":0,"parameterNumber":3,"parameterNumberName":"V-component_of_WINDS"},"data":[0.0,0.0,0.0,0.0,0.0,0.0,0.0,0.0,0.0,0.0,0.0,0.0,0.0,0.0,0.0,0.0,0.0,0.0,0.0,0.0,0.0,0.0,0.0,0.0,0.0,0.0,0.0,0.0,0.0,0.0,0.0,0.0,0.0,0.0,0.0,0.0,0.0,0.0,0.0,0.0,0.0,0.0,0.0,0.0,0.0,0.0,0.0,0.0,0.0,0.0,0.0,0.0,0.0,0.0,0.0,0.0,0.0,0.0,0.0,0.0,0.0,0.0,0.0,0.0,0.0,0.0,0.0,0.0,0.0,0.0,0.0,0.0,0.0,0.0,0.0,0.0,0.0,0.0,0.0,0.0,0.0,0.0,0.0,0.0,0.0,0.0,0.0,0.0,0.0,0.0,0.0,0.0,0.0,0.0,0.0,0.0,0.0,0.0,0.0,0.0,0.0,0.0,0.0,0.0,0.0,0.0,0.0,0.0,0.0,0.0,0.0,0.0,0.0,0.0,0.0,0.0,0.0,0.0,0.0,0.0,0.0,0.0,0.0,0.0,0.0,0.0,0.0,0.0,0.0,0.0,0.0,0.0,0.0,0.0,0.0,0.0,0.0,0.0,0.0,0.0,0.0,0.0,0.0,0.0,0.0,0.0,0.0,0.0,0.0,0.0,0.0,0.0,0.0,0.0,0.0,0.0,0.0,0.0,0.0,0.0,0.0,0.0,0.0,0.0,0.0,0.0,0.0,0.0,0.0,0.0,0.0,0.0,0.0,0.0,0.0,0.0,0.0,0.0,0.0,0.0,0.0,0.0,0.0,0.0,0.0,0.0,0.0,0.0,0.0,0.0,0.0,0.0,0.0,0.0,0.0,0.0,0.0,0.0,0.0,0.0,0.0,0.0,0.0,0.0,0.0,0.0,0.0,0.0,0.0,0.0,0.0,0.0,0.0,0.0,0.0,0.0,0.0,0.0,0.0,0.0,0.0,0.0,0.0,0.0,0.0,0.0,0.0,0.0,0.0,0.0,0.0,0.0,0.0,0.0,0.0,0.0,0.0,0.0,0.0,0.0,0.0,0.0,0.0,0.0,0.0,0.0,0.0,0.0,0.0,0.0,0.0,0.0,0.0,0.0,0.0,0.0,0.0,0.0,0.0,0.0,0.0,0.0,0.0,0.0,0.0,0.0,0.0,0.0,0.0,0.0,0.0,0.0,0.0,0.0,0.0,0.0,0.0,0.0,0.0,0.0,0.0,0.0,0.0,0.0,0.0,0.0,0.0,0.0,0.0,0.0,0.0,0.0,0.0,0.0,0.0,0.0,0.0,0.0,0.0,0.0,0.0,0.0,0.0,0.0,0.0,0.0,0.0,0.0,0.0,0.0,0.0,0.0,0.0,0.0,0.0,0.0,0.0,0.0,0.0,0.0,0.0,0.0,0.0,0.0,0.0,0.0,0.0,0.0,0.0,0.0,0.0,0.0,0.0,0.0,0.0,0.0,0.0,0.0,0.0,0.0,0.0,0.0,0.0,0.0,0.0,0.0,0.0,0.0,0.0,0.0,0.0,0.0,0.0,0.0,0.0,0.0,0.0,0.0,0.0,0.0,0.0,0.0,0.0,0.0,0.0,0.0,0.0,0.0,0.0,0.0,0.0,0.0,0.0,0.0,0.0,0.0,0.0,0.0,0.0,0.0,0.0,0.0,0.0,0.0,0.0,0.0,0.0,0.0,0.0,0.0,0.0,0.0,0.0,0.0,0.0,0.0,0.0,0.0,0.0,0.0,0.0,0.0,0.0,0.0,0.0,0.0,0.0,0.0,0.0,0.0,0.0,0.0,0.0,0.0,0.0,0.0,0.0,0.0,0.0,0.0,0.0,0.0,0.0,0.0,0.0,0.0,0.0,0.0,0.0,0.0,0.0,0.0,0.0,0.0,0.0,0.0,0.0,0.0,0.0,0.0,0.0,0.0,0.0,0.0,0.0,0.0,0.0,0.0,0.0,0.0,0.0,0.0,0.0,0.0,0.0,0.0,0.0,0.0,0.0,0.0,0.0,0.0,0.0,0.0,0.0,0.0,0.0,0.0,0.0,0.0,0.0,0.0,0.0,0.0,0.0,0.0,0.0,0.0,0.0,0.0,0.0,0.0,0.0,0.0,0.0,0.0,0.0,0.0,0.0,0.0,0.0,0.0,0.0,0.0,0.0,0.0,0.0,0.0,0.0,0.0,0.0,0.0,0.0,0.0,0.0,0.0,0.0,0.0,0.0,0.0,0.0,0.0,0.0,0.0,0.0,0.0,0.0,0.0,0.0,0.0,0.0,0.0,0.0,0.0,0.0,0.0,0.0,0.0,0.0,0.0,0.0,0.0,0.0,0.0,0.0,0.0,0.0,0.0,0.0,0.0,0.0,0.0,0.0,0.0,0.0,0.0,0.0,0.0,0.0,0.0,0.0,0.0,0.0,0.0,0.0,0.0,0.0,0.0,0.0,0.0,0.0,0.0,0.0,0.0,0.0,0.0,0.0,0.0,0.0,0.0,0.0,0.0,0.0,0.0,0.0,0.0,0.0,0.0,0.0,0.0,0.0,0.0,0.0,0.0,0.0,0.0,0.0,0.0,0.0,0.0,0.0,0.0,0.0,0.0,0.0,0.0,0.0,0.0,0.0,0.0,0.0,0.0,0.0,0.0,0.0,0.0,0.0,0.0,0.0,0.0,0.0,0.0,0.0,0.0,0.0,0.0,0.0,0.0,0.0,0.0,0.0,0.0,0.0,0.0,0.0,0.0,0.0,0.0,0.0,0.0,0.0,0.0,0.0,0.0,0.0,0.0,0.0,0.0,0.0,0.0,0.0,0.0,0.0,0.0,0.0,0.0,0.0,0.0,0.0,0.0,0.0,0.0,0.0,0.0,0.0,0.0,0.0,0.0,0.0,0.0,0.0,0.0,0.0,0.0,0.0,0.0,0.0,0.0,0.0,0.0,0.0,0.0,0.0,0.0,0.0,0.0,0.0,0.0,0.0,0.0,0.0,0.0,0.0,0.0,0.0,0.0,0.0,0.0,0.0,0.0,0.0,0.0,0.0,0.0,0.0,0.0,0.0,0.0,0.0,0.0,0.0,0.0,0.0,0.0,0.0,0.0,0.0,0.0,0.0,0.0,0.0,0.0,0.0,0.0,0.0,0.0,0.0,0.0,0.0,0.0,0.0,0.0,0.0,0.0,0.0,0.0,0.0,0.0,0.0,0.0,0.0,0.0,0.0,0.0,0.0,0.0,0.0,0.0,0.0,0.0,0.0,0.0,0.0,0.0,0.0,0.0,0.0,0.0,0.0,0.0,0.0,0.0,0.0,0.0,0.0,0.0,0.0,0.0,0.0,0.0,0.0,0.0,0.0,0.0,0.0,0.0,0.0,0.0,0.0,0.0,0.0,0.0,0.0,0.0,0.0,0.0,0.0,0.0,0.0,0.0,0.0,0.0,0.0,0.0,0.0,0.0,0.0,0.0,0.0,0.0,0.0,0.0,0.0,0.0,0.0,0.0,0.0,0.0,0.0,0.0,0.0,0.0,0.0,0.0,0.0,0.0,0.0,0.0,0.0,0.0,0.0,0.0,0.0,0.0,0.0,0.0,0.0,0.0,0.0,0.0,0.0,0.0,0.0,0.0,0.0,0.0,0.0,0.0,0.0,0.0,0.0,0.0,0.0,0.0,0.0,0.0,0.0,0.0,0.0,0.0,0.0,0.0,0.0,0.0,0.0,0.0,0.0,0.0,0.0,0.0,0.0,0.0,0.0,0.0,0.0,0.0,0.0,0.0,0.0,0.0,0.0,0.0,0.0,0.0,0.0,0.0,0.0,0.0,0.0,0.0,0.0,0.0,0.0,0.0,0.0,0.0,0.0,0.0,0.0,0.0,0.0,0.0,0.0,0.0,0.0,0.0,0.0,0.0,0.0,0.0,0.0,0.0,0.0,0.0,0.0,0.0,0.0,0.0,0.0,0.0,0.0,0.0,0.0,0.0,0.0,0.0,0.0,0.0,0.0,0.0,0.0,0.0,0.0,0.0,0.0,0.0,0.0,0.0,0.0,0.0,0.0,0.0,0.0,0.0,0.0,0.0,0.0,0.0,0.0,0.0,0.0,0.0,0.0,0.0,0.0,0.0,0.0,0.0,0.0,0.0,0.0,0.0,0.0,0.0,0.0,0.0,0.0,0.0,0.0,0.0,0.0,0.0,0.0,0.0,0.0,0.0,0.0,0.0,0.0,0.0,0.0,0.0,0.0,0.0,0.0,0.0,1.4983,0.0,0.0,0.0,0.0,0.0,0.0,0.0,0.0,0.0,0.0,0.0,0.0,0.0,0.0,0.0,0.0,0.0,0.0,0.0,0.0,0.0,0.0,0.0,0.0,0.0,0.0,0.0,0.0,0.0,0.0,0.0,0.0,0.0,0.0,0.0,0.0,0.0,0.0,0.0,0.0,0.0,0.0,0.0,0.0,0.0,0.0,0.0,0.0,0.0,0.0,0.0,0.0,0.0,0.0,0.0,0.0,0.0,0.0,0.0,0.0,0.0,0.0,0.0,0.0,0.0,0.0,0.0,0.0,0.0,0.0,0.0,0.0,0.0,0.0,0.0,0.0,0.0,0.0,0.0,0.0,0.0,0.0,0.0,0.0,0.0,0.0,0.0,0.0,0.0,0.0,0.0,0.0,0.0,0.0,0.0,0.0,0.0,0.0,0.0,0.0,0.0,0.0,0.0,0.0,0.0,0.0,0.0,0.0,0.0,0.0,1.3569,1.3833,1.4281,1.4682,1.5058,0.0,0.0,0.0,0.0,0.0,0.0,0.0,0.0,0.0,0.0,0.0,0.0,0.0,0.0,0.0,0.0,0.0,0.0,0.0,0.0,0.0,0.0,0.0,0.0,0.0,0.0,0.0,0.0,0.0,0.0,0.0,0.0,0.0,0.0,0.0,0.0,0.0,0.0,0.0,0.0,0.0,0.0,0.0,0.0,0.0,0.0,0.0,0.0,0.0,0.0,0.0,0.0,0.0,0.0,0.0,0.0,0.0,0.0,0.0,0.0,0.0,0.0,0.0,0.0,0.0,0.0,0.0,0.0,0.0,0.0,0.0,0.0,0.0,0.0,0.0,0.0,0.0,0.0,0.0,0.0,0.0,0.0,0.0,0.0,0.0,0.0,0.0,0.0,0.0,0.0,0.0,0.0,0.0,0.0,0.0,0.0,0.0,0.0,0.0,0.0,0.0,0.0,0.0,0.0,0.0,0.0,0.0,0.0,0.0,0.0,0.0,0.0,1.4265,1.4768,1.5315,0.0,0.0,0.0,0.0,0.0,0.0,0.0,0.0,0.0,0.0,0.0,0.0,0.0,0.0,0.0,0.0,0.0,0.0,0.0,0.0,0.0,0.0,0.0,0.0,0.0,0.0,0.0,0.0,0.0,0.0,0.0,0.0,0.0,0.0,0.0,0.0,0.0,0.0,0.0,0.0,0.0,0.0,0.0,0.0,0.0,0.0,0.0,0.0,0.0,0.0,0.0,0.0,0.0,0.0,0.0,0.0,0.0,0.0,0.0,0.0,0.0,0.0,0.0,0.0,0.0,0.0,0.0,0.0,0.0,0.0,0.0,0.0,0.0,0.0,0.0,0.0,0.0,0.0,0.0,0.0,0.0,0.0,0.0,0.0,0.0,0.0,0.0,0.0,0.0,0.0,0.0,0.0,0.0,0.0,0.0,0.0,0.0,0.0,0.0,0.0,0.0,0.0,0.0,0.0,0.0,0.0,0.0,0.0,0.0,0.0,1.3527,1.3796,1.4251,0.0,1.5947,0.0,0.0,0.0,0.0,0.0,0.0,0.0,0.0,0.0,0.0,0.0,0.0,0.0,0.0,0.0,0.0,0.0,0.0,0.0,0.0,0.0,0.0,0.0,0.0,0.0,0.0,0.0,0.0,0.0,0.0,0.0,0.0,0.0,0.0,0.0,0.0,0.0,0.0,0.0,0.0,0.0,0.0,0.0,0.0,0.0,0.0,0.0,0.0,0.0,0.0,0.0,0.0,0.0,0.0,0.0,0.0,0.0,0.0,0.0,0.0,0.0,0.0,0.0,0.0,0.0,0.0,0.0,0.0,0.0,0.0,0.0,0.0,0.0,0.0,0.0,0.0,0.0,0.0,0.0,0.0,0.0,0.0,0.0,0.0,0.0,0.0,0.0,0.0,0.0,0.0,0.0,0.0,0.0,0.0,0.0,0.0,0.0,0.0,0.0,0.0,0.0,0.0,0.0,0.0,0.0,0.0,0.0,0.0,0.0,0.0,1.3459,1.3854,1.4618,1.5396,0.0,0.0,0.0,0.0,0.0,0.0,0.0,0.0,0.0,0.0,0.0,0.0,0.0,0.0,0.0,0.0,0.0,0.0,0.0,0.0,0.0,0.0,0.0,0.0,0.0,0.0,0.0,0.0,0.0,0.0,0.0,0.0,0.0,0.0,0.0,0.0,0.0,0.0,0.0,0.0,0.0,0.0,0.0,0.0,0.0,0.0,0.0,0.0,0.0,0.0,0.0,0.0,0.0,0.0,0.0,0.0,0.0,0.0,0.0,0.0,0.0,0.0,0.0,0.0,0.0,0.0,0.0,0.0,0.0,0.0,0.0,0.0,0.0,0.0,0.0,0.0,0.0,0.0,0.0,0.0,0.0,0.0,0.0,0.0,0.0,0.0,0.0,0.0,0.0,0.0,0.0,0.0,0.0,0.0,0.0,0.0,0.0,0.0,0.0,0.0,0.0,0.0,0.0,0.0,0.0,0.0,0.0,0.0,0.0,0.0,1.3082,1.3535,1.4146,1.4981,1.5682,1.6253,0.0,0.0,0.0,0.0,0.0,0.0,0.0,0.0,0.0,0.0,0.0,0.0,0.0,0.0,0.0,0.0,0.0,0.0,0.0,0.0,0.0,0.0,0.0,0.0,0.0,0.0,0.0,0.0,0.0,0.0,0.0,0.0,0.0,0.0,0.0,0.0,0.0,0.0,0.0,0.0,0.0,0.0,0.0,0.0,0.0,0.0,0.0,0.0,0.0,0.0,0.0,0.0,0.0,0.0,0.0,0.0,0.0,0.0,0.0,0.0,0.0,0.0,0.0,0.0,0.0,0.0,0.0,0.0,0.0,0.0,0.0,0.0,0.0,0.0,0.0,0.0,0.0,0.0,0.0,0.0,0.0,0.0,0.0,0.0,0.0,0.0,0.0,0.0,0.0,0.0,0.0,0.0,0.0,0.0,0.0,0.0,0.0,0.0,0.0,0.0,0.0,0.0,0.0,0.0,0.0,0.0,0.0,0.0,1.2718,1.316,1.3845,1.4716,1.5224,1.5783,0.0,0.0,0.0,0.0,0.0,0.0,0.0,0.0,0.0,0.0,0.0,0.0,0.0,0.0,0.0,0.0,0.0,0.0,0.0,0.0,0.0,0.0,0.0,0.0,0.0,0.0,0.0,0.0,0.0,0.0,0.0,0.0,0.0,0.0,0.0,0.0,0.0,0.0,0.0,0.0,0.0,0.0,0.0,0.0,0.0,0.0,0.0,0.0,0.0,0.0,0.0,0.0,0.0,0.0,0.0,0.0,0.0,0.0,0.0,0.0,0.0,0.0,0.0,0.0,0.0,0.0,0.0,0.0,0.0,0.0,0.0,0.0,0.0,0.0,0.0,0.0,0.0,0.0,0.0,0.0,0.0,0.0,0.0,0.0,0.0,0.0,0.0,0.0,0.0,0.0,0.0,0.0,0.0,0.0,0.0,0.0,0.0,0.0,0.0,0.0,0.0,0.0,0.0,0.0,0.0,0.0,0.0,0.0,0.0,1.2785,1.3569,1.4265,1.4912,1.5426,1.5966,0.0,0.0,0.0,0.0,0.0,0.0,0.0,0.0,0.0,0.0,0.0,0.0,0.0,0.0,0.0,0.0,0.0,0.0,0.0,0.0,0.0,0.0,0.0,0.0,0.0,0.0,0.0,0.0,0.0,0.0,0.0,0.0,0.0,0.0,0.0,0.0,0.0,0.0,0.0,0.0,0.0,0.0,0.0,0.0,0.0,0.0,0.0,0.0,0.0,0.0,0.0,0.0,0.0,0.0,0.0,0.0,0.0,0.0,0.0,0.0,0.0,0.0,0.0,0.0,0.0,0.0,0.0,0.0,0.0,0.0,0.0,0.0,0.0,0.0,0.0,0.0,0.0,0.0,0.0,0.0,0.0,0.0,0.0,0.0,0.0,0.0,0.0,0.0,0.0,0.0,0.0,0.0,0.0,0.0,0.0,0.0,0.0,0.0,0.0,0.0,0.0,0.0,0.0,0.0,0.0,0.0,0.0,0.0,0.0,1.3203,0.0,1.4686,0.0,1.5695,1.6229,0.0,0.0,0.0,0.0,0.0,0.0,0.0,0.0,0.0,0.0,0.0,0.0,0.0,0.0,0.0,0.0,0.0,0.0,0.0,0.0,0.0,0.0,0.0,0.0,0.0,0.0,0.0,0.0,0.0,0.0,0.0,0.0,0.0,0.0,0.0,0.0,0.0,0.0,0.0,0.0,0.0,0.0,0.0,0.0,0.0,0.0,0.0,0.0,0.0,0.0,0.0,0.0,0.0,0.0,0.0,0.0,0.0,0.0,0.0,0.0,0.0,0.0,0.0,0.0,0.0,0.0,0.0,0.0,0.0,0.0,0.0,0.0,0.0,0.0,0.0,0.0,0.0,0.0,0.0,0.0,0.0,0.0,0.0,0.0,0.0,0.0,0.0,0.0,0.0,0.0,0.0,0.0,0.0,0.0,0.0,0.0,0.0,0.0,0.0,0.0,0.0,0.0,0.0,0.0,0.0,0.0,0.0,0.0,1.3258,1.3997,1.4562,1.5181,1.5617,1.6133,1.6599,0.0,0.0,0.0,0.0,0.0,0.0,0.0,0.0,0.0,0.0,0.0,0.0,0.0,0.0,0.0,0.0,0.0,0.0,0.0,0.0,0.0,0.0,0.0,0.0,0.0,0.0,0.0,0.0,0.0,0.0,0.0,0.0,0.0,0.0,0.0,0.0,0.0,0.0,0.0,0.0,0.0,0.0,0.0,0.0,0.0,0.0,0.0,0.0,0.0,0.0,0.0,0.0,0.0,0.0,0.0,0.0,0.0,0.0,0.0,0.0,0.0,0.0,0.0,0.0,0.0,0.0,0.0,0.0,0.0,0.0,0.0,0.0,0.0,0.0,0.0,0.0,0.0,0.0,0.0,0.0,0.0,0.0,0.0,0.0,0.0,0.0,0.0,0.0,0.0,0.0,0.0,0.0,0.0,0.0,0.0,0.0,0.0,0.0,0.0,0.0,0.0,0.0,0.0,0.0,0.0,0.0,0.0,0.0,0.0,1.5268,1.6184,1.6907,1.7448,1.7914,1.8151,0.0,0.0,0.0,0.0,0.0,0.0,0.0,0.0,0.0,0.0,0.0,0.0,0.0,0.0,0.0,0.0,0.0,0.0,0.0,0.0,0.0,0.0,0.0,0.0,0.0,0.0,0.0,0.0,0.0,0.0,0.0,0.0,0.0,0.0,0.0,0.0,0.0,0.0,0.0,0.0,0.0,0.0,0.0,0.0,0.0,0.0,0.0,0.0,0.0,0.0,0.0,0.0,0.0,0.0,0.0,0.0,0.0,0.0,0.0,0.0,0.0,0.0,0.0,0.0,0.0,0.0,0.0,0.0,0.0,0.0,0.0,0.0,0.0,0.0,0.0,0.0,0.0,0.0,0.0,0.0,0.0,0.0,0.0,0.0,0.0,0.0,0.0,0.0,0.0,0.0,0.0,0.0,0.0,0.0,0.0,0.0,0.0,0.0,0.0,0.0,0.0,0.0,0.0,0.0,0.0,0.0,0.0,0.0,0.0,1.8486,1.8627,1.8932,1.9443,1.9621,1.9716,1.9672,0.0,0.0,0.0,0.0,0.0,0.0,0.0,0.0,0.0,0.0,0.0,0.0,0.0,0.0,0.0,0.0,0.0,0.0,0.0,0.0,0.0,0.0,0.0,0.0,0.0,0.0,0.0,0.0,0.0,0.0,0.0,0.0,0.0,0.0,0.0,0.0,0.0,0.0,0.0,0.0,0.0,0.0,0.0,0.0,0.0,0.0,0.0,0.0,0.0,0.0,0.0,0.0,0.0,0.0,0.0,0.0,0.0,0.0,0.0,0.0,0.0,0.0,0.0,0.0,0.0,0.0,0.0,0.0,0.0,0.0,0.0,0.0,0.0,0.0,0.0,0.0,0.0,0.0,0.0,0.0,0.0,0.0,0.0,0.0,0.0,0.0,0.0,0.0,0.0,0.0,0.0,0.0,0.0,0.0,0.0,0.0,0.0,0.0,0.0,0.0,0.0,0.0,0.0,0.0,0.0,0.0,0.0,0.0,2.3129,2.1856,2.1327,2.1615,2.1366,2.1299,0.0,0.0,0.0,0.0,0.0,0.0,0.0,0.0,0.0,0.0,0.0,0.0,0.0,0.0,0.0,0.0,0.0,0.0,0.0,0.0,0.0,0.0,0.0,0.0,0.0,0.0,0.0,0.0,0.0,0.0,0.0,0.0,0.0,0.0,0.0,0.0,0.0,0.0,0.0,0.0,0.0,0.0,0.0,0.0,0.0,0.0,0.0,0.0,0.0,0.0,0.0,0.0,0.0,0.0,0.0,0.0,0.0,0.0,0.0,0.0,0.0,0.0,0.0,0.0,0.0,0.0,0.0,0.0,0.0,0.0,0.0,0.0,0.0,0.0,0.0,0.0,0.0,0.0,0.0,0.0,0.0,0.0,0.0,0.0,0.0,0.0,0.0,0.0,0.0,0.0,0.0,0.0,0.0,0.0,0.0,0.0,0.0,0.0,0.0,0.0,0.0,0.0,0.0,0.0,0.0,0.0,0.0,0.0,0.0,2.5155,2.6215,2.5982,2.4436,2.45,2.3929,0.0,0.0,0.0,0.0,0.0,0.0,0.0,0.0,0.0,0.0,0.0,0.0,0.0,0.0,0.0,0.0,0.0,0.0,0.0,0.0,0.0,0.0,0.0,0.0,0.0,0.0,0.0,0.0,0.0,0.0,0.0,0.0,0.0,0.0,0.0,0.0,0.0,0.0,0.0,0.0,0.0,0.0,0.0,0.0,0.0,0.0,0.0,0.0,0.0,0.0,0.0,0.0,0.0,0.0,0.0,0.0,0.0,0.0,0.0,0.0,0.0,0.0,0.0,0.0,0.0,0.0,0.0,0.0,0.0,0.0,0.0,0.0,0.0,0.0,0.0,0.0,0.0,0.0,0.0,0.0,0.0,0.0,0.0,0.0,0.0,0.0,0.0,0.0,0.0,0.0,0.0,0.0,0.0,0.0,0.0,0.0,0.0,0.0,0.0,0.0,0.0,0.0,0.0,0.0,0.0,0.0,0.0,0.0,2.5233,2.7768,2.9691,2.9952,2.8488,2.7288,2.6045,0.0,0.0,0.0,0.0,0.0,0.0,0.0,0.0,0.0,0.0,0.0,0.0,0.0,0.0,0.0,0.0,0.0,0.0,0.0,0.0,0.0,0.0,0.0,0.0,0.0,0.0,0.0,0.0,0.0,0.0,0.0,0.0,0.0,0.0,0.0,0.0,0.0,0.0,0.0,0.0,0.0,0.0,0.0,0.0,0.0,0.0,0.0,0.0,0.0,0.0,0.0,0.0,0.0,0.0,0.0,0.0,0.0,0.0,0.0,0.0,0.0,0.0,0.0,0.0,0.0,0.0,0.0,0.0,0.0,0.0,0.0,0.0,0.0,0.0,0.0,0.0,0.0,0.0,0.0,0.0,0.0,0.0,0.0,0.0,0.0,0.0,0.0,0.0,0.0,0.0,0.0,0.0,0.0,0.0,0.0,0.0,0.0,0.0,0.0,0.0,0.0,0.0,0.0,0.0,0.0,0.0,0.0,0.0,2.7194,3.0271,3.2186,3.3019,3.2703,2.9796,2.7791,0.0,0.0,0.0,0.0,0.0,0.0,0.0,0.0,0.0,0.0,0.0,0.0,0.0,0.0,0.0,0.0,0.0,0.0,0.0,0.0,0.0,0.0,0.0,0.0,0.0,0.0,0.0,0.0,0.0,0.0,0.0,0.0,0.0,0.0,0.0,0.0,0.0,0.0,0.0,0.0,0.0,0.0,0.0,0.0,0.0,0.0,0.0,0.0,0.0,0.0,0.0,0.0,0.0,0.0,0.0,0.0,0.0,0.0,0.0,0.0,0.0,0.0,0.0,0.0,0.0,0.0,0.0,0.0,0.0,0.0,0.0,0.0,0.0,0.0,0.0,0.0,0.0,0.0,0.0,0.0,0.0,0.0,0.0,0.0,0.0,0.0,0.0,0.0,0.0,0.0,0.0,0.0,0.0,0.0,0.0,0.0,0.0,0.0,0.0,0.0,0.0,0.0,0.0,0.0,0.0,0.0,0.0,0.0,2.7653,3.0532,3.2555,3.3635,3.3764,3.1894,2.9661,0.0,0.0,0.0,0.0,0.0,0.0,0.0,0.0,0.0,0.0,0.0,0.0,0.0,0.0,0.0,0.0,0.0,0.0,0.0,0.0,0.0,0.0,0.0,0.0,0.0,0.0,0.0,0.0,0.0,0.0,0.0,0.0,0.0,0.0,0.0,0.0,0.0,0.0,0.0,0.0,0.0,0.0,0.0,0.0,0.0,0.0,0.0,0.0,1.7983,0.0,0.0,0.0,0.0,0.0,0.0,0.0,0.0,0.0,0.0,0.0,0.0,0.0,0.0,0.0,0.0,0.0,0.0,0.0,0.0,0.0,0.0,0.0,0.0,0.0,0.0,0.0,0.0,0.0,0.0,0.0,0.0,0.0,0.0,0.0,0.0,0.0,0.0,0.0,0.0,0.0,0.0,0.0,0.0,0.0,0.0,0.0,0.0,0.0,0.0,0.0,0.0,0.0,0.0,0.0,0.0,0.0,0.0,0.0,2.8313,3.1489,3.3087,3.4173,3.4709,3.2934,3.0621,0.0,0.0,0.0,0.0,0.0,0.0,0.0,0.0,0.0,0.0,0.0,0.0,0.0,0.0,0.0,0.0,0.0,0.0,0.0,0.0,0.0,0.0,0.0,0.0,0.0,0.0,0.0,0.0,0.0,0.0,0.0,0.0,0.0,0.0,0.0,0.0,0.0,0.0,0.0,0.0,0.0,0.0,0.0,0.0,0.0,0.0,0.0,0.0,0.0,0.0,0.0,0.0,0.0,0.0,0.0,0.0,0.0,0.0,0.0,0.0,0.0,0.0,0.0,0.0,0.0,0.0,0.0,0.0,0.0,0.0,0.0,0.0,0.0,0.0,0.0,0.0,0.0,0.0,0.0,0.0,0.0,0.0,0.0,0.0,0.0,0.0,0.0,0.0,0.0,0.0,0.0,0.0,0.0,0.0,0.0,0.0,0.0,0.0,0.0,0.0,0.0,0.0,0.0,0.0,0.0,0.0,0.0,2.6153,2.8888,3.2298,3.3539,3.4502,3.5163,3.3258,3.0986,2.8438,0.0,0.0,0.0,0.0,0.0,0.0,0.0,0.0,0.0,0.0,0.0,0.0,0.0,0.0,0.0,0.0,0.0,0.0,0.0,0.0,0.0,0.0,0.0,0.0,0.0,0.0,0.0,0.0,0.0,0.0,0.0,0.0,0.0,0.0,0.0,0.0,0.0,0.0,1.8138,1.837,0.0,0.0,0.0,0.0,0.0,0.0,0.0,0.0,1.8569,0.0,0.0,0.0,0.0,0.0,0.0,0.0,0.0,0.0,0.0,0.0,0.0,0.0,0.0,0.0,0.0,0.0,0.0,0.0,0.0,0.0,0.0,0.0,0.0,0.0,0.0,0.0,0.0,0.0,0.0,0.0,0.0,0.0,0.0,0.0,0.0,0.0,0.0,0.0,0.0,0.0,0.0,0.0,0.0,0.0,0.0,0.0,0.0,0.0,0.0,0.0,0.0,0.0,0.0,0.0,0.0,2.4465,2.6546,2.8964,3.1706,3.3415,3.4049,3.3602,3.2698,3.0781,2.7858,0.0,0.0,0.0,0.0,0.0,0.0,0.0,0.0,0.0,0.0,0.0,0.0,0.0,0.0,0.0,0.0,0.0,0.0,0.0,0.0,0.0,0.0,0.0,0.0,0.0,0.0,0.0,0.0,0.0,0.0,0.0,0.0,0.0,0.0,0.0,0.0,0.0,0.0,0.0,1.807,1.847,0.0,0.0,0.0,0.0,0.0,0.0,0.0,0.0,1.8241,0.0,0.0,0.0,0.0,0.0,0.0,0.0,0.0,0.0,0.0,0.0,0.0,0.0,0.0,0.0,0.0,0.0,0.0,0.0,0.0,0.0,0.0,0.0,0.0,0.0,0.0,0.0,0.0,0.0,0.0,0.0,0.0,0.0,0.0,0.0,0.0,0.0,0.0,0.0,0.0,0.0,0.0,0.0,0.0,0.0,0.0,0.0,0.0,0.0,0.0,0.0,0.0,0.0,0.0,0.0,2.4788,2.6886,2.9161,3.1716,3.2685,3.3205,3.3254,3.1373,2.9447,0.0,0.0,0.0,0.0,0.0,0.0,0.0,0.0,0.0,0.0,0.0,0.0,0.0,0.0,0.0,0.0,0.0,0.0,0.0,0.0,0.0,0.0,0.0,0.0,0.0,0.0,0.0,0.0,0.0,0.0,0.0,0.0,0.0,0.0,0.0,0.0,0.0,0.0,0.0,0.0,1.7948,1.843,1.8401,0.0,0.0,0.0,0.0,0.0,0.0,1.8561,1.8508,0.0,0.0,0.0,0.0,0.0,0.0,0.0,0.0,0.0,0.0,0.0,0.0,0.0,0.0,0.0,0.0,0.0,0.0,0.0,0.0,0.0,0.0,0.0,0.0,0.0,0.0,0.0,0.0,0.0,0.0,0.0,0.0,0.0,0.0,0.0,0.0,0.0,0.0,0.0,0.0,0.0,0.0,0.0,0.0,0.0,0.0,0.0,0.0,0.0,0.0,0.0,0.0,0.0,0.0,0.0,2.4918,2.6926,2.9071,3.1416,3.1769,3.2043,3.2372,2.9939,2.8027,0.0,0.0,0.0,0.0,0.0,0.0,0.0,0.0,0.0,0.0,0.0,0.0,0.0,0.0,0.0,0.0,0.0,0.0,0.0,0.0,0.0,0.0,0.0,0.0,0.0,0.0,0.0,0.0,0.0,0.0,0.0,0.0,0.0,0.0,0.0,0.0,0.0,0.0,0.0,0.0,0.0,1.8401,1.8406,1.8401,0.0,0.0,0.0,0.0,1.9222,1.8869,0.0,0.0,0.0,0.0,0.0,0.0,0.0,0.0,0.0,0.0,0.0,0.0,0.0,0.0,0.0,0.0,0.0,0.0,0.0,0.0,0.0,0.0,0.0,0.0,0.0,0.0,0.0,0.0,0.0,0.0,0.0,0.0,0.0,0.0,0.0,0.0,0.0,0.0,0.0,0.0,0.0,0.0,0.0,0.0,0.0,0.0,0.0,0.0,0.0,0.0,0.0,0.0,0.0,0.0,0.0,0.0,2.431,2.6321,2.8171,2.9879,3.0738,3.05,2.9197,2.8799,2.7284,0.0,0.0,0.0,0.0,0.0,0.0,0.0,0.0,0.0,0.0,0.0,0.0,0.0,0.0,0.0,0.0,0.0,0.0,0.0,0.0,0.0,0.0,0.0,0.0,0.0,0.0,0.0,0.0,0.0,0.0,0.0,0.0,0.0,0.0,0.0,0.0,0.0,0.0,0.0,0.0,0.0,1.8416,1.8475,1.843,1.8433,0.0,0.0,0.0,1.8673,1.8632,0.0,0.0,0.0,0.0,0.0,0.0,0.0,0.0,0.0,0.0,0.0,0.0,0.0,0.0,0.0,0.0,0.0,0.0,0.0,0.0,0.0,0.0,0.0,0.0,0.0,0.0,0.0,0.0,0.0,0.0,0.0,0.0,0.0,0.0,0.0,0.0,0.0,0.0,0.0,0.0,0.0,0.0,0.0,0.0,0.0,0.0,0.0,0.0,0.0,0.0,0.0,0.0,0.0,0.0,0.0,2.0331,2.3629,2.5991,2.7788,2.8979,2.9424,2.9312,2.8618,2.7278,2.5749,0.0,0.0,0.0,0.0,0.0,0.0,0.0,0.0,0.0,0.0,0.0,0.0,0.0,0.0,0.0,0.0,0.0,0.0,0.0,0.0,0.0,0.0,0.0,0.0,0.0,0.0,0.0,0.0,0.0,0.0,0.0,0.0,0.0,0.0,0.0,0.0,0.0,0.0,0.0,0.0,0.0,0.0,1.8426,1.8831,0.0,0.0,0.0,1.9644,1.9283,0.0,0.0,0.0,0.0,0.0,0.0,0.0,0.0,0.0,0.0,0.0,0.0,0.0,0.0,0.0,0.0,0.0,0.0,0.0,0.0,0.0,0.0,0.0,0.0,0.0,0.0,0.0,0.0,0.0,0.0,0.0,0.0,0.0,0.0,0.0,0.0,0.0,0.0,0.0,0.0,0.0,0.0,0.0,0.0,0.0,0.0,0.0,0.0,0.0,0.0,0.0,0.0,0.0,0.0,0.0,0.0,0.0,2.2906,2.5153,2.6836,2.786,2.794,2.7881,2.7676,2.5939,0.0,0.0,0.0,0.0,0.0,0.0,0.0,0.0,0.0,0.0,0.0,0.0,0.0,0.0,0.0,0.0,0.0,0.0,0.0,0.0,0.0,0.0,0.0,0.0,0.0,0.0,0.0,1.6314,0.0,0.0,0.0,0.0,0.0,0.0,0.0,0.0,0.0,0.0,0.0,0.0,0.0,0.0,1.8577,1.8698,1.9442,1.9988,0.0,0.0,2.0559,1.9832,1.978,1.9522,0.0,0.0,0.0,0.0,0.0,0.0,0.0,0.0,0.0,0.0,0.0,0.0,0.0,0.0,0.0,0.0,0.0,0.0,0.0,0.0,0.0,0.0,0.0,0.0,0.0,0.0,0.0,0.0,0.0,0.0,0.0,0.0,0.0,0.0,0.0,0.0,0.0,0.0,0.0,0.0,0.0,0.0,0.0,0.0,0.0,0.0,0.0,0.0,0.0,0.0,0.0,0.0,0.0,0.0,0.0,2.2159,2.3301,2.465,2.6189,2.6267,2.5919,2.5285,2.5077,2.3998,0.0,0.0,0.0,0.0,0.0,0.0,0.0,0.0,0.0,0.0,0.0,0.0,0.0,0.0,0.0,0.0,0.0,0.0,0.0,0.0,0.0,0.0,0.0,0.0,0.0,0.0,0.0,0.0,0.0,0.0,0.0,0.0,0.0,0.0,0.0,0.0,0.0,0.0,0.0,0.0,0.0,1.9452,1.9605,2.0251,2.0731,0.0,0.0,2.0582,1.9886,1.9818,1.9512,1.8736,0.0,0.0,0.0,0.0,0.0,0.0,0.0,0.0,0.0,0.0,0.0,0.0,0.0,0.0,0.0,0.0,0.0,0.0,0.0,0.0,0.0,0.0,0.0,0.0,0.0,0.0,0.0,0.0,0.0,0.0,0.0,0.0,0.0,0.0,0.0,0.0,0.0,0.0,0.0,0.0,0.0,0.0,0.0,0.0,0.0,0.0,0.0,0.0,0.0,0.0,0.0,0.0,0.0,1.8598,2.1426,2.289,2.42,2.5353,2.5407,2.504,2.4286,2.3782,2.2704,0.0,0.0,0.0,0.0,0.0,0.0,0.0,0.0,0.0,0.0,0.0,0.0,0.0,0.0,0.0,0.0,0.0,0.0,0.0,0.0,0.0,0.0,0.0,0.0,0.0,0.0,0.0,0.0,1.3971,1.3653,1.401,0.0,0.0,0.0,0.0,0.0,0.0,0.0,0.0,0.0,0.0,1.955,1.9689,2.0819,0.0,0.0,2.2047,2.1917,2.073,2.0572,2.0149,1.8829,1.8369,0.0,0.0,0.0,0.0,0.0,0.0,0.0,0.0,0.0,0.0,0.0,0.0,0.0,0.0,0.0,0.0,0.0,0.0,0.0,0.0,0.0,0.0,0.0,0.0,0.0,0.0,0.0,0.0,0.0,0.0,0.0,0.0,0.0,0.0,0.0,0.0,0.0,0.0,0.0,0.0,0.0,0.0,0.0,0.0,0.0,0.0,0.0,0.0,0.0,0.0,0.0,0.0,1.8273,2.1038,2.227,2.3446,2.4589,2.4585,2.4201,2.3434,2.2888,2.1909,0.0,0.0,0.0,0.0,0.0,0.0,0.0,0.0,0.0,0.0,0.0,0.0,0.0,0.0,0.0,0.0,0.0,0.0,0.0,0.0,0.0,0.0,0.0,0.0,0.0,0.0,0.0,0.0,1.3358,1.3021,1.2945,0.0,0.0,0.0,0.0,0.0,0.0,0.0,0.0,0.0,0.0,1.9963,2.0086,2.1513,2.2584,2.2596,2.2816,2.2538,2.1258,2.0875,2.0266,1.8863,0.0,0.0,0.0,0.0,0.0,0.0,0.0,0.0,0.0,0.0,0.0,0.0,0.0,0.0,0.0,0.0,0.0,0.0,0.0,0.0,0.0,0.0,0.0,0.0,0.0,0.0,0.0,0.0,0.0,0.0,0.0,0.0,0.0,0.0,0.0,0.0,0.0,0.0,0.0,0.0,0.0,0.0,0.0,0.0,0.0,0.0,0.0,0.0,0.0,0.0,0.0,0.0,0.0,0.0,2.1118,2.1276,2.209,2.3682,2.3671,2.3294,2.2566,2.2561,2.1913,2.048,0.0,0.0,0.0,0.0,0.0,0.0,0.0,0.0,0.0,0.0,0.0,0.0,0.0,0.0,0.0,0.0,0.0,0.0,0.0,0.0,0.0,0.0,0.0,0.0,0.0,0.0,1.3869,1.3864,1.3621,0.0,0.0,0.0,0.0,0.0,0.0,0.0,0.0,0.0,0.0,1.9724,2.088,2.0955,2.238,2.3368,2.3398,2.2781,2.2066,2.1304,2.0513,1.9639,0.0,0.0,0.0,0.0,0.0,0.0,0.0,0.0,0.0,0.0,0.0,0.0,0.0,0.0,0.0,0.0,0.0,0.0,0.0,0.0,0.0,0.0,0.0,0.0,0.0,0.0,0.0,1.4127,1.3903,0.0,0.0,0.0,0.0,0.0,0.0,0.0,0.0,0.0,0.0,0.0,1.8873,1.8928,0.0,0.0,0.0,0.0,0.0,0.0,0.0,0.0,0.0,0.0,0.0,0.0,1.8426,2.1062,2.1242,2.209,2.3706,2.3711,2.3059,2.1811,2.1788,2.0952,1.9169,0.0,0.0,0.0,0.0,0.0,0.0,0.0,0.0,0.0,0.0,0.0,0.0,0.0,0.0,0.0,0.0,0.0,0.0,0.0,0.0,0.0,0.0,0.0,0.0,0.0,1.3474,0.0,0.0,0.0,0.0,0.0,0.0,0.0,0.0,0.0,0.0,0.0,1.7608,1.8238,1.9454,2.0299,2.0341,2.1353,2.2106,0.0,0.0,0.0,0.0,0.0,0.0,0.0,0.0,0.0,0.0,0.0,0.0,0.0,0.0,1.9512,1.7422,1.7259,1.7435,1.7458,0.0,0.0,0.0,0.0,0.0,0.0,0.0,0.0,0.0,0.0,0.0,0.0,0.0,0.0,0.0,0.0,1.4363,0.0,0.0,0.0,0.0,0.0,0.0,0.0,0.0,1.8717,1.947,2.0679,2.0975,2.1205,0.0,2.0826,1.9706,0.0,0.0,0.0,0.0,0.0,0.0,0.0,0.0,1.9015,2.1147,2.1569,2.2401,2.3723,2.3465,2.2682,2.1443,2.0884,2.0052,1.8826,1.8705,1.8182,0.0,0.0,0.0,0.0,0.0,0.0,0.0,0.0,0.0,0.0,0.0,0.0,0.0,0.0,0.0,0.0,0.0,0.0,0.0,0.0,0.0,0.0,0.0,1.3833,0.0,0.0,0.0,0.0,0.0,0.0,0.0,0.0,0.0,1.7412,1.7523,1.7736,1.8383,1.9366,2.0047,2.0073,0.0,0.0,0.0,0.0,0.0,0.0,0.0,2.1386,2.1283,2.1233,2.1167,2.1042,2.0974,2.0997,2.1066,0.0,0.0,1.8366,1.8366,1.8754,1.8786,1.947,2.0077,2.0116,2.0439,2.088,0.0,0.0,0.0,0.0,0.0,0.0,0.0,0.0,1.5615,1.5564,0.0,1.5341,0.0,0.0,0.0,0.0,0.0,0.0,0.0,0.0,2.0517,2.0703,2.1017,2.1852,2.2267,2.2334,2.2337,2.2301,2.2109,1.9127,0.0,0.0,0.0,0.0,0.0,0.0,1.9628,2.1305,2.2075,2.2919,2.373,2.2955,2.2118,2.1366,1.9969,1.9305,1.9459,1.9007,1.8788,1.8858,1.7381,0.0,0.0,0.0,0.0,0.0,0.0,0.0,0.0,0.0,0.0,0.0,0.0,0.0,0.0,0.0,0.0,0.0,0.0,0.0,0.0,1.5069,0.0,0.0,0.0,0.0,0.0,0.0,0.0,0.0,0.0,0.0,1.6873,1.7778,1.8423,1.8579,0.0,0.0,0.0,0.0,2.1926,2.2643,2.2168,2.1958,2.2665,2.2098,2.1546,2.1556,0.0,0.0,2.1389,2.1329,2.1378,2.1368,2.2106,2.2228,2.1361,2.1193,2.124,2.1307,2.1952,2.2514,2.2723,2.3306,2.3914,2.0508,0.0,0.0,0.0,0.0,1.8103,1.8404,1.8904,1.8893,1.8847,1.8749,1.8183,0.0,0.0,0.0,0.0,0.0,0.0,2.043,2.1604,2.2322,2.3008,2.3734,2.4468,2.4843,2.4921,2.4824,2.4776,2.4664,2.2741,2.1183,2.0083,0.0,0.0,0.0,0.0,2.0973,2.2013,2.2324,2.2863,2.3707,2.2881,2.1821,2.0584,1.9674,1.9328,1.956,1.9595,1.9411,1.8979,1.7978,0.0,0.0,0.0,0.0,0.0,0.0,0.0,0.0,0.0,0.0,0.0,0.0,0.0,0.0,0.0,0.0,0.0,0.0,0.0,1.6233,1.6664,1.6647,0.0,0.0,0.0,0.0,0.0,0.0,0.0,0.0,0.0,1.7222,1.7565,1.8002,0.0,0.0,1.9402,1.9423,2.0243,2.0927,2.1144,0.0,0.0,0.0,2.2558,2.2783,2.3784,2.4336,2.4645,2.4692,2.4639,2.4633,2.4719,2.4958,2.5029,2.4824,2.4234,2.3864,2.3943,2.4546,2.5137,2.5292,2.5612,2.5879,2.3772,2.1504,2.039,2.02,2.0679,2.0743,2.1021,2.1431,2.1424,2.1382,2.1295,2.0511,2.0309,2.056,2.0632,0.0,0.0,0.0,2.2819,2.3741,2.4331,2.4919,2.5477,2.6195,2.6519,2.6512,2.6407,2.6338,2.6285,2.5081,2.3986,2.2919,0.0,0.0,2.1141,2.1434,2.1841,2.2377,2.2717,2.3144,2.3676,2.2599,2.1288,1.9822,1.9464,1.9415,1.9626,1.9916,1.9887,1.9525,1.8772,1.7723,0.0,0.0,0.0,0.0,0.0,0.0,0.0,0.0,0.0,0.0,0.0,1.263,0.0,0.0,0.0,0.0,1.6417,1.6893,1.7842,1.7881,0.0,0.0,0.0,0.0,0.0,0.0,0.0,1.6372,1.6871,1.7484,1.8241,1.8405,1.8545,1.877,1.9206,1.9495,1.9538,0.0,2.1014,2.136,2.1848,2.2429,2.3118,2.349,2.4109,2.5276,2.578,2.6045,2.6123,2.6075,2.6099,2.6217,2.6493,2.6747,2.6816,2.6583,2.6186,2.5683,2.6183,2.6778,2.6931,2.7508,2.8057,2.6779,2.5946,2.4262,2.3435,2.3307,2.3307,2.3349,2.3399,2.3332,2.3301,2.3242,2.2457,2.2502,2.3166,2.3352,0.0,0.0,2.4952,2.5426,2.6225,2.6346,2.6435,2.6473,2.7239,2.7544,2.7416,2.733,2.7279,2.7178,2.6437,2.6024,2.5831,2.2962,2.1496,2.154,2.2109,2.2447,2.2518,2.3231,2.3558,2.3491,2.2113,2.067,1.9158,1.9294,1.9511,1.971,1.9967,2.0173,2.0287,1.9608,1.8811,1.7934,0.0,0.0,0.0,0.0,0.0,0.0,0.0,0.0,0.0,0.0,0.0,0.0,0.0,0.0,0.0,1.778,0.0,1.9518,1.8763,0.0,0.0,0.0,1.6281,1.6287,1.6168,1.6457,1.7365,0.0,0.0,0.0,0.0,1.9736,1.9064,1.9693,2.0227,2.0278,2.1034,2.1851,2.2576,2.2832,2.3174,2.3961,2.4735,2.5515,2.6185,2.6308,2.6428,2.6493,2.6446,2.6415,2.6597,2.7124,2.7651,2.7709,2.8226,2.8354,2.6823,2.7181,2.7738,2.7947,2.9033,3.007,2.9753,2.9495,2.8461,2.6892,2.5093,2.5093,2.5088,2.51,2.5081,2.5075,2.5081,2.4901,2.5005,2.5271,2.5362,2.5571,2.5808,2.5962,2.6193,2.6541,2.7205,2.752,2.7554,2.8252,2.8506,2.836,2.8242,2.8164,2.8068,2.729,2.6895,2.6787,2.5542,2.4585,2.3936,2.3574,2.3379,2.339,2.3522,2.2994,2.1767,2.1412,2.0579,1.9208,1.9375,1.9616,1.9926,2.0131,2.0282,2.0345,1.9619,1.8827,1.8007,1.6949,0.0,0.0,0.0,0.0,0.0,0.0,0.0,0.0,0.0,1.3915,1.4834,0.0,1.6567,0.0,1.879,1.951,1.9599,1.9261,0.0,0.0,1.8211,1.814,1.8698,1.8661,1.8941,1.977,1.9911,2.0111,2.0596,2.0664,2.0626,2.0489,2.0816,2.1097,2.1077,2.1776,2.2389,2.2597,2.3195,2.3886,2.4717,2.6001,2.6955,2.715,2.7694,2.8149,2.8161,2.8161,2.8197,2.8267,2.8407,2.8594,2.8692,2.8917,2.8928,2.8576,2.8565,2.8647,2.8854,2.9706,3.0487,3.1217,3.0838,3.0377,2.9123,2.7441,2.703,2.6841,2.6819,2.6801,2.6808,2.6814,2.6874,2.6795,2.6664,2.7079,2.732,2.7407,2.7539,2.7662,2.778,2.8294,2.8513,2.8539,2.8876,2.9153,2.9351,2.9239,2.9125,2.9009,2.8564,2.8136,2.7723,2.7018,2.6255,2.538,2.4606,2.406,2.3718,2.3635,2.2804,2.1179,2.123,2.063,1.932,1.9511,1.9784,2.0067,2.025,2.039,2.0472,2.0058,1.9433,1.8613,1.7754,1.6675,0.0,0.0,0.0,0.0,0.0,0.0,0.0,0.0,0.0,0.0,0.0,1.7804,0.0,2.0211,0.0,2.0633,2.0416,2.0188,1.9956,1.9716,1.9722,2.0058,2.0022,2.0186,2.0648,2.0735,2.0925,2.1355,2.1431,2.1577,2.1974,2.2142,2.2103,2.1825,2.2402,2.2954,2.298,2.3718,2.4736,2.5862,2.6831,2.7616,2.8057,2.847,2.8779,2.8834,2.881,2.8822,2.8893,2.8923,2.8969,2.9091,2.9117,2.9175,2.9167,2.9112,2.9095,2.9218,3.0213,3.1101,3.1933,3.1292,3.1133,3.0646,2.994,2.8901,2.8394,2.8223,2.8216,2.8241,2.8243,2.83,2.8031,2.7641,2.8379,2.8773,2.8923,2.9033,2.9117,2.9184,2.9246,2.9286,2.928,2.9311,2.9633,3.0185,3.0179,3.0035,2.9835,2.9829,2.934,2.8445,2.7875,2.7085,2.6128,2.542,2.4611,2.3736,2.3646,2.2815,2.1161,2.129,2.073,1.9415,1.9622,1.9921,2.0177,2.0342,2.0467,2.0579,2.0605,2.0194,1.9316,1.8574,1.773,0.0,1.5326,0.0,0.0,0.0,0.0,0.0,0.0,0.0,0.0,1.8423,1.928,2.0906,2.1615,2.1958,2.1873,2.1629,2.1384,2.1195,2.0995,2.0864,2.0869,2.0795,2.0813,2.0986,2.1015,2.1341,2.2107,2.223,2.2506,2.3035,2.313,2.2917,2.2446,2.2875,2.3359,2.3476,2.4331,2.5487,2.6736,2.7369,2.7919,2.8663,2.8791,2.8773,2.8893,2.887,2.8846,2.8923,2.8969,2.9045,2.91,2.9167,2.9205,2.9222,2.9235,2.924,2.9407,3.046,3.1676,3.3085,3.2886,3.2245,3.1833,3.1524,3.0053,2.9026,2.8365,2.8347,2.8386,2.8452,2.8465,2.8447,2.8464,2.8682,2.8846,2.8969,2.8992,2.9062,2.9112,2.9136,2.9141,2.9178,2.9781,3.014,3.0228,3.0772,3.0659,2.9963,2.9963,2.9501,2.8662,2.8518,2.7683,2.6241,0.0,0.0,0.0,2.3683,2.2851,2.1189,2.129,2.0726,1.9365,1.9638,0.0,2.0177,2.034,2.0424,2.0522,2.0517,0.0,0.0,0.0,0.0,0.0,0.0,0.0,0.0,0.0,0.0,0.0,1.9095,1.9014,1.9244,2.047,2.1401,2.1752,2.1811,2.1784,2.1657,2.1416,2.1197,2.1051,2.0855,2.0997,2.1651,2.1686,2.1896,2.2563,2.2639,2.2697,2.2827,2.2921,2.2956,2.3109,2.3138,2.3074,2.2921,2.3123,2.3301,2.3437,2.4736,2.5913,2.6362,2.7598,2.85,2.8797,2.8893,2.8929,2.8976,2.8976,2.8994,2.9044,2.9079,2.9106,2.9229,2.928,2.9283,2.9355,2.9352,2.9336,2.9336,3.014,3.111,3.3393,0.0,3.2958,3.2538,0.0,3.1273,3.0229,2.9045,2.8606,2.8432,2.851,2.851,2.8575,2.8676,2.8725,2.8804,2.8887,2.8912,2.8929,2.9022,2.9021,2.905,2.9126,2.9924,3.0501,3.0858,3.1598,3.1485,3.0672,3.061,2.9958,2.87,2.8632,2.7978,2.6766,2.5918,2.4904,2.3718,2.3718,2.2878,2.1228,2.1305,2.0744,1.9416,0.0,0.0,0.0,0.0,0.0,0.0,0.0,0.0,0.0,0.0,0.0,1.8421,1.796,1.8017,1.8722,1.8707,1.9376,2.0894,2.1245,2.1183,2.0719,2.1787,2.2479,2.2449,2.2616,2.2704,2.259,2.241,2.2215,2.2103,2.2001,2.2107,2.2452,2.251,2.2638,2.2996,2.3107,2.3107,2.3107,2.3107,2.3107,2.3107,2.3107,2.3107,2.3102,2.3187,2.3383,2.3916,2.513,2.6273,2.6825,2.7858,2.8798,2.887,2.8923,2.8958,2.8981,2.901,2.905,2.9102,2.9152,2.9224,2.9286,2.9328,2.9365,2.9391,2.9383,2.9396,2.9397,3.006,3.0958,3.3531,3.3393,3.3393,3.3031,3.2397,3.227,3.1372,2.9934,0.0,0.0,0.0,2.8512,2.8569,2.8675,2.8688,2.8725,2.8779,2.8779,2.8816,2.8875,2.8917,2.8975,2.9093,2.9889,3.0612,3.1287,3.2008,3.192,3.1119,3.1013,3.0219,2.8821,2.8587,2.8023,2.7024,2.5553,2.4434,2.3714,2.3678,2.2939,2.1445,2.1399,2.0812,1.9583,1.9585,1.9693,1.9925,2.0071,2.0165,2.0213,2.0234,2.0245,2.0226,1.9563,1.9188,1.9251,1.8607,1.8817,2.0178,2.0291,2.0869,2.223,2.2914,2.2932,2.2128,2.2743,2.3125,2.3046,2.3425,2.364,2.3556,2.3435,2.3312,2.318,2.3162,2.3108,2.3095,2.3088,2.3053,2.3107,2.3107,2.3107,2.3107,2.3107,2.3107,2.3107,2.3107,2.3113,2.3114,2.3169,2.3483,2.4225,2.5273,2.6369,2.7133,2.8106,2.8743,2.894,2.8958,2.8964,2.9034,2.9072,2.9106,2.9147,2.9242,2.9296,2.9318,2.9365,2.9383,2.9383,2.9383,2.9383,2.9444,2.9945,3.0687,3.4019,3.3393,3.3393,3.3339,3.3176,3.2495,3.168,3.0726,2.9232,2.8581,2.8587,2.8587,2.86,2.8637,2.8669,2.8718,2.8712,2.8712,2.8718,0.0,2.8749,2.8785,2.8894,2.9722,3.0216,3.043,3.1126,3.1058,3.0338,3.0203,2.9654,2.8803,2.8631,2.7771,2.6237,2.5254,2.4411,2.3631,2.3613,2.3143,2.2159,2.1659,2.1001,2.0216,1.9733,1.9562,1.9644,1.9836,1.9949,1.9964,2.0015,2.005,2.005,1.9883,2.0085,2.0706,2.0619,2.0903,2.1705,2.1751,2.2016,2.2737,2.3468,2.355,2.2868,2.3378,2.3715,2.3599,2.3537,2.3482,2.3348,2.3217,2.3125,2.3051,2.2971,2.2963,2.302,2.3009,2.3034,2.3101,2.3107,2.3107,2.3107,2.3107,2.3107,2.3107,2.3107,2.3119,2.318,2.3259,2.3348,2.3756,2.5022,2.6039,2.659,2.7779,2.8651,2.8982,2.9027,2.9072,2.9158,2.9167,2.9189,2.9251,2.9272,2.9323,2.937,2.9396,2.9383,2.9383,2.9383,2.9383,2.9383,2.9561,2.9908,3.4128,3.3429,3.3393,3.3393,3.3339,3.2542,3.1988,3.1546,3.0423,2.9638,2.9203,2.8799,2.86,2.86,2.8637,2.865,2.8644,2.8632,2.865,2.8656,2.8724,2.8755,2.884,2.9673,3.01,3.0143,3.0874,3.0843,3.01,2.9976,2.9519,2.8724,2.8153,2.7259,2.6038,2.5195,2.4389,2.3586,2.3597,2.3209,2.2364,2.2088,2.1416,2.0331,2.0075,1.9837,1.9511,2.0043,2.0328,2.0351,2.0735,2.0984,2.0984,2.0909,2.1043,2.1395,2.1392,2.1703,2.244,2.282,2.3111,2.3345,2.3632,2.3639,2.317,2.3485,2.3698,2.3542,2.343,2.3301,2.3205,2.3107,2.3026,2.2963,2.2957,2.297,2.299,2.3039,2.3059,2.3101,2.3107,2.3107,2.3107,2.3107,2.3107,2.3107,2.3107,2.3138,2.3199,2.3265,2.3336,2.356,2.4586,2.5594,2.6202,2.7293,2.8297,2.8942,2.9085,2.9117,2.9197,2.9235,2.9262,2.9283,2.9334,2.9365,2.9383,2.9383,2.9383,2.9383,2.9383,2.9383,2.9383,2.9393,2.9724,3.4442,3.3706,3.3517,3.3437,3.3361,3.2748,3.2459,3.2386,3.1607,3.0919,3.0267,2.9493,2.9034,2.8878,2.8878,2.8763,2.8611,2.86,2.86,2.8606,2.87,2.8749,2.8779,2.9485,2.9795,2.9838,3.0404,3.0348,2.977,2.9652,2.9317,2.8608,2.7736,2.6867,2.5984,2.5195,2.4384,2.361,2.3579,2.3298,2.2674,2.2506,2.1885,2.0874,2.0671,2.0384,1.9915,2.054,2.0911,2.0909,2.1449,2.1756,2.1721,2.1692,2.1723,2.1862,2.1889,2.22,2.2931,2.3461,2.3734,2.3624,2.3594,2.3458,2.3283,2.3354,2.3406,2.3319,2.3187,2.3107,2.3028,2.2977,2.2932,2.2874,2.2908,2.294,2.2982,2.3039,2.3095,2.3107,2.3107,2.3107,2.3107,2.3107,2.3107,2.3107,2.3107,2.3138,2.3211,2.3271,2.3354,2.3648,2.4298,2.5244,2.6151,2.7049,2.7979,2.8949,2.9141,2.918,2.9216,2.9288,2.9323,2.9334,2.9365,2.9391,2.9383,2.9383,2.9383,2.9383,2.9383,2.9383,2.9383,2.9385,2.9705,3.5377,3.4619,3.3876,3.3541,3.3459,3.3332,3.3274,3.3158,3.2433,3.206,3.1861,3.1154,3.0357,2.9748,2.9676,2.9337,2.8708,2.8611,2.8654,2.8672,2.8606,2.8681,2.887,2.8943,2.8997,2.9123,2.9222,2.9211,2.8986,2.8882,2.8711,2.8452,2.7705,2.685,2.6015,2.5189,2.4434,2.3714,2.3629,2.3544,2.3374,2.2734,2.2319,2.2215,2.1608,2.1283,2.1129,2.1457,2.1579,2.1525,2.1607,2.1616,2.1571,2.1548,2.181,2.2437,2.247,2.2746,2.3422,2.3411,2.3348,2.3342,2.3229,2.3126,2.3045,2.2984,2.3008,2.302,2.2965,2.2913,2.2825,2.2836,2.2803,2.2745,2.2797,2.2849,2.2913,2.2959,2.3039,2.3101,2.3107,2.3113,2.3096,2.3107,2.3107,2.3107,2.3107,2.315,2.3259,2.3295,2.3448,2.3712,2.4356,2.5232,2.6145,2.7025,2.7989,2.8931,2.9189,2.9227,2.9315,2.9357,2.9378,2.9386,2.9396,2.9388,2.9393,2.9383,2.9412,2.9404,2.9399,2.9383,2.9383,2.9388,2.973,3.5535,3.4739,3.3922,3.3591,3.3556,3.3527,3.3484,3.3423,3.3114,3.2947,3.2893,3.256,3.1734,3.0527,3.0502,3.0328,3.0025,3.0007,3.0007,3.0025,3.0051,3.0084,3.011,3.0142,2.9932,2.9514,2.944,2.9179,2.8754,2.8656,2.8612,2.8405,2.7296,2.6459,2.5997,2.4844,2.4028,2.3736,2.3685,2.3652,2.3588,2.3251,2.2836,2.2422,2.2126,2.1769,2.1462,2.1863,2.2167,2.2156,2.252,2.2746,2.2684,2.2631,2.2738,2.2998,2.2994,2.309,2.3394,2.3313,2.3211,2.3187,2.3101,2.299,2.2882,2.2823,2.2784,2.2771,2.276,2.2751,2.2709,2.2736,2.2701,2.2672,2.2753,2.2874,2.2889,2.2995,2.3088,2.3132,2.3132,2.3108,2.315,2.3125,2.3107,2.3107,2.3113,2.3203,2.3277,2.3283,2.3608,2.4233,2.4719,2.5302,2.6186,2.7099,2.8062,2.8887,2.924,2.9312,2.9362,2.9383,2.9388,2.9395,2.9401,2.9416,2.9475,2.9451,2.9451,2.9441,2.9411,2.939,2.9388,2.9383,2.9603,3.5948,3.5119,3.4067,3.3615,3.3633,3.3612,3.357,3.3527,3.352,3.3491,3.3459,3.3452,3.281,3.1762,3.1458,3.1209,3.1028,3.1009,3.1009,3.1016,3.1057,3.1057,3.1037,3.1077,3.0793,3.0236,2.9952,2.9424,2.8704,2.8606,2.86,2.8382,2.7206,2.6398,2.6001,2.4772,2.3997,2.3761,2.3732,2.3716,2.3711,2.3624,2.3298,2.2812,2.2774,2.2519,2.2021,2.2556,2.2843,2.2858,2.3308,2.3563,2.3482,2.3407,2.3301,2.3211,2.3205,2.3175,2.3193,2.3132,2.307,2.3001,2.2932,2.2849,2.2721,2.2652,2.2592,2.2569,2.2582,2.2582,2.2596,2.2612,2.2636,2.2605,2.2758,2.2855,2.2906,2.3008,2.3089,2.318,2.3162,2.3156,2.3193,2.3187,2.3168,2.3168,2.3368,2.3522,2.3702,2.3892,2.4379,2.5081,2.5455,2.5997,2.6601,2.7253,2.8178,2.8886,2.9275,2.9318,2.9404,2.9424,2.9411,2.9438,2.9433,2.9438,2.9486,2.9482,2.9492,2.9487,2.9463,2.9417,2.9445,2.9429,2.9419,3.6964,3.5995,3.4403,3.3728,3.3691,3.3622,3.3605,3.3587,3.3598,3.358,3.3584,3.3584,3.3494,3.3248,3.2483,3.1752,3.1118,3.1136,3.1154,3.1154,3.1125,3.108,3.1091,3.1091,3.1131,3.1074,3.0498,2.9696,2.8815,2.8637,2.86,2.8527,2.7701,2.6934,2.6174,2.5329,2.455,2.387,2.3784,2.3804,2.3793,2.3716,2.3671,2.3586,2.3671,2.3633,2.3608,2.3685,2.3676,2.3622,2.3525,2.3476,2.3395,2.3271,2.315,2.3039,2.2963,2.2932,2.2908,2.2857,2.281,2.2731,2.2679,2.2609,2.2555,2.248,2.2439,2.2412,2.2387,2.2377,2.2463,2.2515,2.2531,2.2585,2.2665,2.2771,2.2876,2.2976,2.3064,2.318,2.3211,2.3223,2.3283,2.3277,2.3354,2.3513,2.3973,2.447,2.4597,2.5186,2.5642,2.6051,2.6651,2.7438,2.7631,2.7903,2.8378,2.8944,2.9301,2.9343,2.9438,2.9511,2.9492,2.9492,2.9492,2.9492,2.9516,2.9502,2.9507,2.9507,2.9507,2.9482,2.9476,2.9501,2.9486,3.6714,3.5426,3.4793,3.4254,3.3785,3.3739,3.3723,3.3664,3.3657,3.3629,3.3605,3.3605,3.3584,3.3526,3.3243,3.2889,3.2549,3.2524,3.2524,3.2549,3.2542,3.256,3.2641,3.263,3.2363,3.1957,3.1661,3.0827,2.9569,2.8997,2.8688,2.853,2.7864,2.7042,2.621,2.5407,2.4616,2.3886,2.3803,2.381,2.3805,2.3776,2.3773,2.3754,2.3738,2.3723,2.3692,2.3663,2.3624,2.351,2.3453,2.336,2.3217,2.3071,2.2959,2.287,2.2855,2.2799,2.2777,2.2722,2.2659,2.2649,2.2582,2.2535,2.2501,2.2439,2.2398,2.2401,2.2345,2.2338,2.2373,2.2405,2.2467,2.2542,2.2643,2.2751,2.2874,2.2963,2.3059,2.3211,2.3301,2.3324,2.3448,2.3749,2.4038,2.4133,2.4759,2.5241,2.5424,2.5791,2.6218,2.6796,2.7325,2.7875,2.8569,2.8693,2.8926,2.9137,2.9363,2.9414,2.9497,2.9531,2.9512,2.9555,2.956,2.9574,2.9598,2.9612,2.9589,2.9564,2.956,2.9531,2.9507,2.954,2.9526,3.686,3.5872,3.5532,3.4938,3.4222,3.4185,3.4018,3.3806,3.4007,3.4101,3.4095,3.434,3.4454,3.4414,3.4407,3.4342,3.4171,3.3728,3.3448,3.3466,3.3466,3.3495,3.352,3.3545,3.3264,3.2803,3.25,3.1686,3.0445,2.9575,2.918,2.9076,2.8312,2.7482,2.6625,2.5821,2.5018,2.4326,2.3945,2.3795,2.3803,2.3798,2.3789,2.3765,2.3721,2.369,2.3635,2.3607,2.3545,2.3448,2.3389,2.3271,2.3057,2.2921,2.2842,2.2766,2.2777,2.2751,2.2699,2.2649,2.2585,2.2576,2.2515,2.2467,2.2432,2.2387,2.2359,2.2352,2.2303,2.2261,2.231,2.2373,2.2426,2.2501,2.2616,2.2731,2.2863,2.2946,2.3089,2.3348,2.3679,2.3774,2.3857,2.4484,2.4839,2.4928,2.5609,2.614,2.6272,2.663,2.6982,2.7665,2.8001,2.8442,2.8883,2.909,2.9156,2.9341,2.9453,2.9521,2.9555,2.956,2.9564,2.9612,2.965,2.965,2.9664,2.9697,2.9683,2.965,2.9631,2.9608,2.9589,2.9593,2.9578,3.7621,3.7374,3.6688,3.587,3.5092,3.503,3.4571,3.4185,3.4722,3.5002,3.5068,3.5811,3.5933,3.6,3.582,3.5948,3.5553,3.4451,3.3853,3.3821,3.3737,3.37,3.3715,3.3642,3.3594,3.3444,3.2769,3.2009,3.1219,3.0355,2.9898,2.9801,2.9095,2.8209,2.7446,2.6573,2.58,2.4958,2.4186,2.381,2.3797,2.3809,2.3777,2.3705,2.3689,2.3672,2.3678,2.3629,2.3545,2.3453,2.3378,2.3163,2.2957,2.2825,2.2771,2.2699,2.2692,2.2699,2.2689,2.2616,2.2531,2.2494,2.2432,2.238,2.2331,2.2278,2.2247,2.2313,2.2261,2.2225,2.2303,2.2363,2.2443,2.2511,2.2582,2.2685,2.2844,2.297,2.3125,2.3502,2.41,2.4647,2.4849,2.5336,2.5775,2.5918,2.6459,2.7027,2.7147,2.7693,2.8356,2.8597,2.8692,2.8894,2.9148,2.9354,2.9412,2.9487,2.9545,2.9607,2.9631,2.9645,2.9641,2.9678,2.9673,2.9687,2.9687,2.9701,2.9701,2.9683,2.9669,2.9669,2.9655,2.9636,2.965,3.8671,3.7767,3.7996,3.7241,3.605,3.5951,3.5783,3.5557,3.5807,3.5899,3.5947,3.6174,3.6277,3.6256,3.623,3.6234,3.6164,3.5644,3.5392,3.5195,3.4714,3.4451,3.4402,3.3938,3.3691,3.3586,3.2933,3.2439,3.1981,3.0827,3.0131,2.9936,2.9284,2.842,2.7601,2.6735,2.5895,2.5069,2.4233,2.3816,2.3809,2.3804,2.3756,2.3641,2.3596,2.3556,2.3511,2.3522,2.3441,2.3301,2.3277,2.3138,2.2921,2.2797,2.2679,2.2572,2.2558,2.2521,2.2432,2.2412,2.2391,2.2373,2.2345,2.2324,2.2303,2.2299,2.2275,2.232,2.2292,2.2275,2.231,2.2398,2.2474,2.2494,2.2569,2.2685,2.29,2.3124,2.3535,2.4105,2.451,2.4878,2.5455,2.6139,2.6616,2.6706,2.7288,2.7815,2.8019,2.8275,2.86,2.8755,2.8964,2.9156,2.9286,2.9406,2.9496,2.9546,2.9612,2.9664,2.9692,2.9706,2.9701,2.9697,2.9697,2.9697,2.9692,2.9687,2.9692,2.9687,2.9683,2.9683,2.9701,2.9692,2.9683,4.0081,3.9238,3.966,3.9065,3.7775,3.7473,3.7116,3.682,3.6787,3.678,3.6795,3.7074,3.7184,3.7202,3.7184,3.7184,3.7202,3.7184,3.7114,3.6811,3.5824,3.5396,3.5303,3.4563,3.4009,3.3763,3.3293,3.3048,3.2974,3.1763,3.0925,3.0516,2.9771,2.8948,2.8085,2.7235,2.6411,2.5543,2.4737,2.4116,2.3829,2.3754,2.3689,2.3579,2.3504,2.3441,2.3372,2.3395,2.3354,2.3217,2.3144,2.302,2.2857,2.274,2.2646,2.2569,2.2525,2.2491,2.2419,2.2405,2.2384,2.2398,2.2394,2.238,2.238,2.2366,2.2335,2.2373,2.2331,2.2317,2.2387,2.2446,2.2521,2.2565,2.2656,2.276,2.3024,2.3493,2.3963,2.4592,2.5193,2.5717,2.6278,2.697,2.7448,2.7598,2.7944,2.8324,2.8463,2.8556,2.8706,2.8858,2.9055,2.9216,2.9349,2.9456,2.9555,2.9622,2.9678,2.9705,2.9728,2.976,2.976,2.976,2.976,2.9741,2.9741,2.9714,2.9686,2.9692,2.9706,2.9687,2.9687,2.9701,2.9711,4.1703,4.1623,4.1583,4.0915,3.99,3.9228,3.8445,3.7757,3.7676,3.7647,3.7742,3.8231,3.8565,3.8631,3.8452,3.847,3.8649,3.8517,3.847,3.8117,3.7199,3.6464,3.605,3.5254,3.4557,3.4039,3.3788,3.3733,3.3605,3.2754,3.2192,3.1292,3.0454,2.9733,2.8789,2.8075,2.7196,2.6406,2.5517,2.4626,2.39,2.3721,2.3645,2.3516,2.3505,2.343,2.333,2.3283,2.3253,2.3174,2.3008,2.2887,2.2792,2.2738,2.2665,2.2609,2.2592,2.2572,2.2582,2.2508,2.2501,2.2549,2.2508,2.2494,2.2467,2.2432,2.2426,2.2467,2.2394,2.238,2.246,2.2521,2.2596,2.2712,2.2786,2.2927,2.3233,2.3998,2.4563,2.4998,2.6033,2.7053,2.7118,2.7823,2.8136,2.8288,2.8337,2.8426,2.8536,2.8656,2.8822,2.8975,2.9112,2.9254,2.9375,2.9438,2.9541,2.9645,2.9696,2.9732,2.9759,2.9773,2.9782,2.9786,2.979,2.9799,2.9771,2.9741,2.9727,2.9727,2.9723,2.971,2.9697,2.9706,2.9898,4.2431,4.1892,4.2375,4.1726,4.0414,4.0054,3.9456,3.863,3.8549,3.8493,3.8575,3.8733,3.8844,3.8844,3.8844,3.8844,3.8837,3.8862,3.8844,3.8789,3.8501,3.7422,3.6343,3.5452,3.4931,3.4601,3.4119,3.3807,3.3733,3.3029,3.2222,3.139,3.0668,2.9831,2.8982,2.8171,2.763,2.7152,2.5856,2.5083,2.4672,2.4048,2.3709,2.3585,2.3528,2.343,2.3295,2.3162,2.3082,2.3034,2.2902,2.2805,2.279,2.2749,2.2683,2.2629,2.2609,2.2582,2.2549,2.2528,2.2521,2.2528,2.2549,2.2494,2.2494,2.247,2.2487,2.2494,2.246,2.2467,2.2515,2.2592,2.2734,2.294,2.3003,2.3113,2.3478,2.4112,2.4891,2.5631,2.6564,2.7337,2.7882,2.8176,2.8404,2.8418,2.8419,2.8452,2.8587,2.8681,2.881,2.8969,2.913,2.9265,2.939,2.9448,2.9532,2.9654,2.9699,2.9723,2.9749,2.9782,2.979,2.978,2.9816,2.9829,2.9812,2.979,2.979,2.9776,2.9773,2.9765,2.9714,2.9714,3.0114,4.3509,4.3043,4.3146,4.253,4.1488,4.0829,4.0142,3.9576,3.9177,3.9014,3.8993,3.8993,3.8964,3.8935,3.8935,3.8939,3.891,3.891,3.891,3.891,3.8866,3.8088,3.6992,3.6244,3.5727,3.4979,3.4516,3.4137,3.3788,3.3311,3.2687,3.1935,3.1109,3.0326,2.9537,2.8689,2.803,2.755,2.6403,2.5574,2.5072,2.4253,2.379,2.3629,2.3556,2.3459,2.3295,2.3088,2.2963,2.2933,2.285,2.2797,2.2747,2.2725,2.2683,2.2616,2.2636,2.2629,2.2616,2.2605,2.2639,2.2659,2.2683,2.2665,2.2672,2.2665,2.2659,2.2679,2.2639,2.2639,2.2696,2.2797,2.297,2.3144,2.3241,2.3454,2.3874,2.4748,2.556,2.6392,2.7202,2.7862,2.8396,2.8445,2.8458,2.8471,2.8491,2.8549,2.8637,2.8712,2.881,2.8999,2.9117,2.9259,2.9356,2.9438,2.9512,2.9617,2.9695,2.9723,2.9763,2.9803,2.9834,2.9832,2.9836,2.9855,2.9847,2.9838,2.9838,2.9834,2.9821,2.9803,2.9767,2.9739,3.016,4.4649,4.4457,4.3741,4.3222,4.2563,4.1344,4.0515,4.022,3.9529,3.9197,3.9149,3.9135,3.9108,3.9047,3.9064,3.9019,3.8961,3.8957,3.8954,3.8954,3.8884,3.8445,3.7841,3.7382,3.6537,3.5439,3.5117,3.4518,3.3981,3.3772,3.3336,3.2485,3.1696,3.095,3.0057,2.9311,2.8603,2.792,2.711,2.6217,2.5434,2.4586,2.4006,2.3667,2.3585,2.347,2.3289,2.3082,2.2927,2.2919,2.2842,2.2777,2.2718,2.2718,2.2699,2.2665,2.2705,2.2731,2.2745,2.2779,2.2831,2.2876,2.2895,2.2908,2.2906,2.2906,2.2906,2.29,2.2868,2.2881,2.2944,2.3046,2.3187,2.336,2.3513,2.4045,2.4772,2.5554,2.6321,2.7137,2.7922,2.8368,2.8479,2.8512,2.8537,2.8587,2.8606,2.8644,2.8737,2.881,2.8905,2.904,2.9145,2.923,2.933,2.9423,2.9511,2.9598,2.9664,2.9714,2.9785,2.9819,2.9866,2.9906,2.9874,2.9878,2.9887,2.9883,2.9885,2.9881,2.9849,2.9842,2.9798,2.9802,3.0049,4.4521,4.3872,4.363,4.2737,4.1512,4.1011,4.0422,3.9739,3.9533,3.9395,3.9362,3.9331,3.931,3.9313,3.9281,3.9248,3.9147,3.9115,3.9108,3.9064,3.8993,3.8916,3.8529,3.8046,3.7137,3.6208,3.5502,3.4775,3.4134,3.385,3.3449,3.2632,3.1935,3.1005,3.0246,2.9531,2.8944,2.8584,2.7893,2.703,2.6198,2.5337,2.4524,2.3914,2.3642,2.3447,2.3307,2.315,2.3039,2.2957,2.2842,2.276,2.2784,2.2784,2.2797,2.2812,2.2849,2.2887,2.2914,2.2946,2.2995,2.3046,2.3065,2.3046,2.3064,2.3076,2.307,2.3064,2.304,2.3083,2.3181,2.3271,2.3389,2.3612,2.4172,2.4927,2.5665,2.6014,2.6531,2.732,2.8073,2.8573,2.8581,2.8619,2.8651,2.8693,2.8731,2.8761,2.8834,2.8887,2.8958,2.9057,2.9175,2.9249,2.9304,2.9402,2.9516,2.9589,2.9664,2.9728,2.978,2.9828,2.9866,2.9891,2.9907,2.9911,2.9911,2.9911,2.9891,2.9891,2.9891,2.9866,2.9868,2.9868,3.0323,4.4157,4.3658,4.2862,4.1965,4.1105,4.066,4.0157,3.9728,3.9641,3.9599,3.9557,3.9551,3.9502,3.9464,3.9439,3.9388,3.9289,3.9217,3.9176,3.9147,3.9092,3.9038,3.9013,3.857,3.7917,3.7059,3.6244,3.54,3.4697,3.4149,3.3718,3.3225,3.2452,3.1691,3.0815,2.9976,2.9425,2.8877,2.8222,2.7526,2.699,2.6198,2.5296,2.4364,2.3828,2.3441,2.3342,2.3217,2.3144,2.3076,2.297,2.2874,2.2861,2.2887,2.2919,2.2933,2.302,2.3051,2.3101,2.3162,2.3211,2.3247,2.3271,2.3289,2.3289,2.3283,2.3289,2.3289,2.3295,2.3348,2.3424,2.3504,2.3589,2.3829,2.4503,2.5364,2.6075,2.6535,2.7097,2.7864,2.8433,2.8633,2.8712,2.8712,2.8725,2.8755,2.8761,2.8804,2.8816,2.887,2.8934,2.9021,2.9163,2.9262,2.9307,2.9387,2.9507,2.9603,2.9678,2.9737,2.9795,2.9815,2.9849,2.987,2.9891,2.9911,2.9911,2.9911,2.9911,2.9907,2.9899,2.9899,3.0028,3.0265,3.0921,4.3882,4.3558,4.2108,4.1362,4.0959,4.0316,3.9987,3.9867,3.9843,3.9804,3.9772,3.976,3.9683,3.9575,3.9557,3.9514,3.9406,3.9301,3.9242,3.9202,3.9142,3.9108,3.9075,3.8925,3.8642,3.7856,3.7112,3.6298,3.5478,3.4707,3.433,3.4035,3.3179,3.2373,3.1648,3.0739,2.9979,2.9326,2.8568,2.795,2.762,2.6913,2.613,2.5178,2.4572,2.4003,2.3827,2.362,2.3418,2.3247,2.3193,2.3107,2.3045,2.3008,2.3046,2.307,2.3174,2.3253,2.3307,2.3378,2.3418,2.3441,2.3482,2.3534,2.3516,2.3504,2.351,2.3533,2.3544,2.3572,2.3628,2.3689,2.3759,2.4022,2.4682,2.5548,2.628,2.7117,2.8008,2.8494,2.8688,2.8737,2.8773,2.8792,2.8804,2.8816,2.8822,2.8828,2.8846,2.8881,2.8958,2.9021,2.9139,2.924,2.9304,2.9349,2.9476,2.9526,2.9641,2.9687,2.9737,2.9768,2.9799,2.9859,2.9885,2.9887,2.9903,2.9907,2.9907,2.9911,2.9911,2.9907,3.0215,3.0654,3.1424,4.4317,4.3029,4.2685,4.1733,4.0458,4.0151,4.0072,4.0052,4.0046,4.0001,3.9954,3.9949,3.9859,3.9762,3.9739,3.9641,3.9496,3.94,3.9302,3.9231,3.919,3.9156,3.9115,3.9082,3.8969,3.8727,3.8032,3.7207,3.6384,3.5593,3.5122,3.4769,3.3678,3.2816,3.2207,3.124,3.0465,2.9964,2.9248,2.8649,2.7998,2.7621,2.7072,2.6198,2.5845,2.5445,2.4836,2.4581,2.4218,2.356,2.3453,2.3537,2.3732,2.3613,2.3489,2.3301,2.3348,2.3424,2.3511,2.3545,2.3601,2.3628,2.3667,2.3672,2.3672,2.3685,2.3748,2.384,2.3842,2.3831,2.3858,2.4099,2.399,2.4333,2.5366,2.6346,2.6818,2.7755,2.8657,2.898,2.8943,2.8828,2.8834,2.8858,2.8875,2.8893,2.8899,2.8911,2.8923,2.8969,2.9033,2.9084,2.9139,2.9224,2.9302,2.936,2.9419,2.9423,2.9492,2.9536,2.9612,2.9683,2.9733,2.9773,2.9838,2.9881,2.9897,2.9914,2.9907,2.9911,2.9911,2.9911,3.0257,3.0673,3.1488,4.433,4.35,4.2627,4.1766,4.0968,4.0444,4.022,4.0153,4.0148,4.0104,4.0053,4.0033,3.9991,3.9903,3.9854,3.9758,3.9618,3.9496,3.9414,3.9344,3.9264,3.9183,3.9142,3.9096,3.9101,3.899,3.8637,3.8073,3.7278,3.6455,3.5916,3.531,3.45,3.3796,3.2933,3.2174,3.1201,3.0604,2.9974,2.9362,2.8581,2.8394,2.7958,2.7676,2.7507,2.7278,2.6983,2.6832,2.667,2.6351,2.6237,2.6177,2.6063,2.5835,2.5213,2.4004,2.3676,2.3661,2.3714,2.37,2.3736,2.38,2.3862,2.3847,2.3852,2.3894,2.4093,2.4405,2.4553,2.473,2.5193,2.5158,2.5262,2.5557,2.6699,2.7531,2.8006,2.8909,2.9325,2.946,2.9253,2.9112,2.8929,2.8947,2.8964,2.8982,2.8994,2.9005,2.8992,2.9033,2.9084,2.9113,2.9134,2.9184,2.9256,2.9323,2.9347,2.9365,2.9387,2.9433,2.9492,2.9579,2.9641,2.9664,2.9741,2.9825,2.9899,2.9916,2.9914,2.9911,2.9911,2.9987,3.0276,3.0768,3.1659,4.4406,4.4132,4.261,4.1878,4.1586,4.0773,4.0338,4.0256,4.0238,4.0206,4.0147,4.0138,4.0113,4.0041,3.9949,3.9856,3.973,3.963,3.9551,3.9464,3.9369,3.9264,3.9171,3.9156,3.9122,3.9082,3.9027,3.8767,3.811,3.7311,3.6612,3.6104,3.5813,3.4903,3.3703,3.3012,3.2037,3.1347,3.0654,3.0208,2.9508,2.9214,2.9101,2.9071,2.9174,2.9168,2.8791,2.873,2.8591,2.8433,2.8439,2.8561,2.8658,2.8669,2.7387,2.5221,2.4729,2.4732,2.4853,2.4722,2.496,2.5039,2.4613,2.4525,2.4566,2.4783,2.4858,2.5306,2.5481,2.5669,2.611,2.6406,2.6543,2.6975,2.7931,2.9054,2.9293,2.9806,3.0271,3.0186,2.9732,2.9409,2.9226,2.8976,2.8969,2.8987,2.9017,2.9045,2.9057,2.9067,2.91,2.9113,2.9136,2.9162,2.9205,2.9267,2.9294,2.9278,2.932,2.9361,2.9428,2.9492,2.955,2.9598,2.9659,2.9741,2.9831,2.9899,2.9906,2.9903,2.9907,3.0139,3.0579,3.1284,3.2174,4.5105,4.4388,4.3358,4.251,4.1728,4.0857,4.0412,4.0392,4.0368,4.0348,4.0266,4.0266,4.022,4.0152,4.0038,3.9949,3.9873,3.98,3.9683,3.9557,3.9477,3.9357,3.9219,3.9178,3.9149,3.9122,3.9108,3.9064,3.8711,3.8067,3.7696,3.7269,3.6247,3.5312,3.4835,3.3863,3.2904,3.2528,3.1823,3.0972,3.0264,3.0093,3.0064,3.0174,3.0551,3.0727,3.0256,3.0159,2.9885,2.9217,2.9016,2.89,2.8851,2.8887,2.8784,2.8341,2.8148,2.8046,2.7808,2.7084,2.67,2.6529,2.6279,2.614,2.5888,2.5897,2.6028,2.6284,2.6389,2.657,2.679,2.6714,2.7005,2.775,2.8747,2.9597,3.0075,3.0778,3.1232,3.1152,3.0784,3.0037,2.9555,2.9231,2.8987,2.9004,2.9045,2.9092,2.9102,2.913,2.9128,2.9152,2.9158,2.9178,2.9189,2.9246,2.9256,2.9243,2.927,2.9318,2.9356,2.9423,2.9506,2.955,2.9608,2.9687,2.9809,2.9874,2.9893,2.9926,2.9928,3.0402,3.1,3.1796,3.2605,4.5549,4.5159,4.4249,4.3381,4.2529,4.1628,4.0951,4.0523,4.0445,4.043,4.037,4.0362,4.0289,4.0201,4.0143,4.0078,4.001,3.9911,3.9815,3.9695,3.9581,3.9477,3.9363,3.9252,3.9176,3.9163,3.9122,3.9101,3.8959,3.8773,3.8414,3.7826,3.7176,3.6315,3.5677,3.4798,3.3887,3.3035,3.2112,3.1402,3.1152,3.1305,3.1512,3.1512,3.2238,3.2311,3.2169,3.2144,3.2023,3.1633,3.1658,3.1696,3.1721,3.1771,3.1758,3.1796,3.1677,3.0722,2.9064,2.8198,2.7905,2.7555,2.7056,2.6475,2.653,2.6614,2.6874,2.7204,2.7257,2.7438,2.7816,2.7998,2.8498,2.9116,2.9637,3.0501,3.1188,3.1716,3.2176,3.2023,3.1814,3.1096,3.044,3.014,2.9796,2.9426,2.9412,2.9374,2.9298,2.918,2.9191,2.9197,2.9189,2.9205,2.92,2.9229,2.9248,2.9235,2.9216,2.9259,2.9302,2.9359,2.9436,2.9511,2.9588,2.9683,2.9792,2.9829,2.9849,2.9903,2.9975,3.062,3.1284,3.2009,3.2863,4.5809,4.5722,4.4881,4.4132,4.3437,4.2404,4.1538,4.0912,4.0608,4.0492,4.0415,4.04,4.0325,4.0256,4.0233,4.0206,4.0123,4.0031,3.9943,3.9826,3.9689,3.9564,3.9471,3.9343,3.9276,3.9249,3.9163,3.9142,3.9129,3.9015,3.8729,3.8198,3.7845,3.7083,3.6098,3.5392,3.4661,3.3418,3.247,3.1949,3.1894,3.2266,3.2442,3.2766,3.3286,3.3807,3.3807,3.3708,3.3653,3.362,3.3524,3.3409,3.3516,3.3461,3.3493,3.3444,3.324,3.225,3.0607,2.9494,2.8705,2.8215,2.7714,2.7398,2.7348,2.7236,2.7386,2.8108,2.8141,2.8485,2.8866,2.9008,2.9346,2.9903,3.0633,3.1579,3.2311,3.2379,3.2558,3.2545,3.2404,3.236,3.1757,3.1321,3.0773,3.0057,2.9791,2.9771,2.9758,2.9745,2.9904,3.0082,3.013,3.0037,2.9695,2.9591,2.9488,2.9366,2.9366,2.9309,2.94,2.9373,2.938,2.9456,2.9591,2.965,2.9768,2.9785,2.9847,3.0006,3.0261,3.0884,3.1553,3.2336,3.3183,4.5803,4.5742,4.4942,4.4568,4.4336,4.2681,4.1984,4.1693,4.0961,4.0595,4.0481,4.0423,4.0409,4.0383,4.0351,4.0307,4.0187,4.0186,4.0072,3.9911,3.9747,3.9611,3.9539,3.9483,3.9437,3.9366,3.9256,3.9204,3.9183,3.9142,3.9059,3.8952,3.8365,3.7492,3.66,3.5838,3.5119,3.4019,3.3173,3.2718,3.263,3.272,3.2719,3.2859,3.3373,3.3807,3.3814,3.3827,3.3854,3.3888,3.3914,3.3972,3.4036,3.392,3.3883,3.3765,3.3247,3.2459,3.1506,3.0875,3.0654,3.0042,2.9265,2.8501,2.8433,2.873,2.8949,2.885,2.8809,2.8948,2.913,2.9281,2.9584,3.0181,3.0734,3.1207,3.1879,3.2391,3.2582,3.2878,3.2841,3.2587,3.2698,3.2149,3.1601,3.0896,3.082,3.0776,3.0971,3.1014,3.121,3.1351,3.1431,3.1173,3.0535,3.0376,3.0291,3.0083,2.9937,2.9769,2.9635,2.9567,2.9617,2.9595,2.9746,2.9744,2.9727,2.9771,2.9893,3.0167,3.0584,3.1293,3.2351,3.3401,3.4049,4.5803,4.5765,4.5455,4.5065,4.4559,4.3868,4.2981,4.2049,4.161,4.1081,4.0603,4.055,4.0508,4.0511,4.0452,4.0371,4.0261,4.0215,4.0175,3.9975,3.9809,3.9689,3.9613,3.9615,3.9482,3.9469,3.9391,3.9333,3.9308,3.9215,3.9176,3.9007,3.8738,3.8198,3.7362,3.6222,3.5354,3.4828,3.4074,3.358,3.3529,3.3479,3.3478,3.3534,3.3644,3.3921,3.3939,3.3921,3.394,3.3947,3.3998,3.4049,3.4031,3.3771,3.3585,3.3474,3.2825,3.2232,3.1697,3.114,3.0473,2.982,2.9281,2.9143,2.9169,2.9176,2.9169,2.9149,2.9294,2.9433,2.9255,2.9296,2.9552,3.0187,3.0692,3.1061,3.153,3.2167,3.2469,3.2704,3.2616,3.2423,3.2658,3.2868,3.2318,3.1793,3.1785,3.1834,3.2,3.2085,3.2178,3.2215,3.2252,3.2029,3.1414,3.1236,3.1132,3.0808,3.052,3.0333,3.0128,3.0122,3.0153,3.0041,2.9834,2.9805,2.9775,2.9782,3.0042,3.0545,3.1133,3.1762,3.2973,3.4315,3.4735,4.5803,4.5803,4.5803,4.5474,4.4965,4.4694,4.3907,4.2881,4.2491,4.2049,4.1361,4.137,4.133,4.1278,4.1297,4.1282,4.1234,4.1113,4.0987,4.0877,4.0749,4.0477,4.0338,4.0165,4.0034,3.9839,3.9526,3.9431,3.9424,3.9288,3.9204,3.9176,3.9105,3.8576,3.7733,3.6649,3.5738,3.5298,3.4908,3.4253,3.411,3.3967,3.3955,3.3936,3.3973,3.3985,3.3985,3.3985,3.4004,3.403,3.4068,3.4105,3.3957,3.3727,3.3423,3.3113,3.263,3.1886,3.1351,3.0406,2.9897,2.9374,2.9257,2.9313,2.9477,2.9599,2.9771,3.0109,3.0046,2.9946,2.9909,3.0231,3.0396,3.1064,3.1093,3.1407,3.1723,3.2218,3.2341,3.2471,3.2451,3.2594,3.2594,3.291,3.3052,3.2749,3.2954,3.2941,3.2953,3.2977,3.2884,3.2903,3.2884,3.2587,3.2215,3.205,3.181,3.1255,3.101,3.0898,3.0774,3.0633,3.0293,2.9904,2.9765,2.98,3.0057,3.0355,3.0722,3.1106,3.1873,3.2789,3.3617,3.4808,3.4916,4.5803,4.5803,4.5803,4.5784,4.561,4.4949,4.4536,4.4165,4.3488,4.3069,4.2867,4.2913,4.2891,4.2811,4.2622,4.2518,4.2424,4.2393,4.2328,4.2126,4.185,4.2004,4.1712,4.1236,4.0804,4.0559,4.0133,3.972,3.9601,3.936,3.9256,3.919,3.9112,3.8773,3.7919,3.7101,3.6303,3.5658,3.5514,3.497,3.458,3.4443,3.4449,3.4449,3.4486,3.4548,3.4542,3.4548,3.4604,3.4617,3.4574,3.4606,3.4556,3.4358,3.4185,3.4129,3.3404,3.2958,3.2724,3.0669,2.9883,2.9689,2.9824,2.9898,3.0281,3.0483,3.0659,3.098,3.1286,3.1468,3.1597,3.1597,3.1535,3.1517,3.1546,3.1626,3.1924,3.2091,3.2202,3.256,3.2827,3.2964,3.2797,3.2871,3.341,3.3646,3.4011,3.3993,3.3646,3.3256,3.2927,3.2828,3.2735,3.2624,3.2327,3.2643,3.2464,3.1877,3.1463,3.1333,3.0895,3.0444,3.0092,2.9795,2.9925,3.0194,3.065,3.1121,3.1617,3.2196,3.3153,3.4028,3.4743,3.5117,3.5149,4.5803,4.5803,4.5803,4.5803,4.5765,4.5513,4.5123,4.4501,4.3727,4.3317,4.3262,4.3227,4.3191,4.315,4.3145,4.3114,4.297,4.2805,4.2719,4.2648,4.2553,4.2299,4.2127,4.199,4.1669,4.1386,4.0821,4.0365,4.039,3.9805,3.9435,3.9333,3.9163,3.8952,3.8544,3.7956,3.7287,3.7021,3.6611,3.6097,3.5843,3.5743,3.5694,3.5669,3.565,3.5625,3.5588,3.5551,3.5582,3.5608,3.5589,3.5646,3.5578,3.5392,3.5058,3.4891,3.4277,3.3528,3.3138,3.202,3.1556,3.1218,3.0835,3.0928,3.131,3.134,3.1537,3.1741,3.1994,3.1992,3.1751,3.1775,3.1751,3.1708,3.1714,3.1732,3.1881,3.1979,3.2134,3.27,3.3083,3.3847,3.4027,3.3841,3.417,3.3936,3.411,3.3534,3.3088,3.2611,3.2221,3.2197,3.216,3.2234,3.2351,3.281,3.2847,3.2315,3.1918,3.1688,3.1138,3.0668,3.0754,3.09,3.0763,3.0686,3.1478,3.2215,3.2729,3.3411,3.411,3.4575,3.4957,3.5144,3.5174,4.5803,4.5803,4.5803,4.5803,4.5803,4.5803,4.5474,4.4968,4.4407,4.4156,4.4184,4.4134,4.4136,4.4091,4.397,4.3855,4.378,4.3728,4.3621,4.3477,4.3377,4.335,4.3158,4.2724,4.256,4.225,4.1692,4.1204,4.1141,4.0333,3.9743,3.9376,3.9188,3.9078,3.8859,3.8525,3.8105,3.7764,3.7262,3.6884,3.6668,3.6593,3.6612,3.6593,3.6593,3.663,3.6674,3.673,3.6748,3.6773,3.6748,3.6748,3.6544,3.6303,3.5931,3.5689,3.5429,3.4816,3.4513,3.4408,3.4048,3.3714,3.2661,3.2011,3.2122,3.221,3.2451,3.2605,3.2611,3.2871,3.2996,3.2927,3.3044,3.3076,3.3322,3.3396,3.3488,3.368,3.3801,3.419,3.4251,3.4936,3.5222,3.5167,3.5124,3.4622,3.4134,3.3595,3.3187,3.2927,3.2723,3.2698,3.281,3.3163,3.32,3.3107,3.3033,3.2717,3.2418,3.2138,3.2011,3.1639,3.1819,3.1909,3.1657,3.1727,3.2619,3.3344,3.3812,3.42,3.4655,3.4994,3.5163,3.5263,3.532,4.5803,4.5803,4.5803,4.5803,4.5803,4.5803,4.5765,4.5765,4.5729,4.5687,4.5703,4.5571,4.5441,4.5553,4.5583,4.537,4.5155,4.5146,4.4975,4.487,4.457,4.4567,4.4266,4.38,4.3483,4.3072,4.2562,4.2049,4.1923,4.0901,4.0053,3.9491,3.9242,3.9133,3.9045,3.8915,3.8599,3.8235,3.803,3.7671,3.7417,3.7115,3.7233,3.7258,3.7264,3.7259,3.724,3.7196,3.7128,3.7047,3.6959,3.6922,3.6841,3.6804,3.6786,3.6786,3.6804,3.6674,3.6433,3.634,3.6228,3.5504,3.3794,3.3014,3.3014,3.3479,3.3689,3.4073,3.4315,3.4798,3.5113,3.5293,3.5448,3.5715,3.6087,3.6174,3.6211,3.6323,3.639,3.6414,3.6182,3.6294,3.5995,3.5903,3.6459,3.623,3.5988,3.6044,3.556,3.4804,3.4562,3.4203,3.4333,3.4519,3.4352,3.3751,3.3324,3.3033,3.2913,3.2694,3.2605,3.2426,3.2286,3.2239,3.2336,3.2746,3.3559,3.4248,3.4827,3.517,3.5399,3.5223,3.5339,3.553,3.5683,4.5803,4.5803,4.5803,4.5803,4.5803,4.5803,4.5803,4.5803,4.5803,4.5803,4.5803,4.5806,4.58,4.5762,4.5686,4.5577,4.5495,4.5419,4.5243,4.5159,4.5074,4.4895,4.4682,4.4403,4.4242,4.3905,4.3407,4.2874,4.2554,4.1562,4.068,4.016,3.9507,3.9257,3.912,3.9101,3.8897,3.8748,3.8637,3.8458,3.8323,3.8238,3.827,3.8271,3.8342,3.8356,3.8374,3.8399,3.8398,3.839,3.8413,3.8437,3.8414,3.8414,3.842,3.8414,3.8358,3.8198,3.7696,3.7547,3.7343,3.6897,3.5578,3.5615,3.5448,3.5113,3.5045,3.5206,3.5442,3.5727,3.6062,3.6329,3.6645,3.7012,3.7262,3.7318,3.7356,3.7423,3.7547,3.782,3.7618,3.7737,3.7369,3.7583,3.8071,3.7954,3.7877,3.7888,3.7625,3.6756,3.6049,3.5652,3.5355,3.5392,3.4798,3.4179,3.3733,3.3386,3.3514,3.3374,3.2872,3.2692,3.2572,3.2779,3.3211,3.3776,3.4411,3.5001,3.5457,3.587,3.6073,3.573,3.553,3.5893,3.6256,4.5803,4.5803,4.5803,4.5803,4.5803,4.5803,4.5803,4.5803,4.5803,4.5803,4.58,4.5806,4.5804,4.5789,4.5675,4.5586,4.5495,4.5415,4.5304,4.5142,4.5103,4.4913,4.4777,4.4699,4.4581,4.4331,4.412,4.3738,4.3328,4.2389,4.143,4.0414,3.9805,3.9461,3.9212,3.9101,3.9101,3.9045,3.9071,3.9122,3.9149,3.9165,3.921,3.9283,3.9367,3.9393,3.9405,3.9412,3.9361,3.9295,3.9256,3.9165,3.9091,3.9085,3.9071,3.899,3.8952,3.8755,3.8439,3.8383,3.7894,3.7336,3.6934,3.6823,3.6507,3.6061,3.5863,3.5789,3.6056,3.6335,3.6689,3.7068,3.7448,3.7828,3.7904,3.7978,3.804,3.81,3.8405,3.8829,3.9078,3.9329,3.9449,3.9588,3.9477,3.9027,3.8776,3.8728,3.8526,3.7964,3.7238,3.6693,3.6296,3.6036,3.5442,3.5175,3.5058,3.4977,3.5107,3.4745,3.37,3.3527,3.3929,3.4151,3.4343,3.4822,3.5197,3.5546,3.5964,3.645,3.6901,3.6769,3.6657,3.6772,3.7135,4.5803,4.5803,4.5803,4.5803,4.5803,4.5803,4.5803,4.5803,4.5803,4.5803,4.58,4.581,4.5815,4.5784,4.5715,4.5629,4.554,4.5443,4.5325,4.512,4.5103,4.4955,4.4796,4.4705,4.4651,4.4563,4.4426,4.4231,4.4107,4.3198,4.1915,4.0705,4.037,4.0,3.9491,3.9157,3.9115,3.9135,3.9135,3.9142,3.919,3.9224,3.9283,3.938,3.9438,3.9452,3.9445,3.942,3.9426,3.938,3.9328,3.9232,3.9176,3.9135,3.9108,3.9101,3.9101,3.9045,3.8941,3.8878,3.8618,3.8012,3.738,3.7579,3.7437,3.6606,3.6216,3.6781,3.716,3.7348,3.769,3.8009,3.8371,3.8652,3.8795,3.8856,3.8904,3.8987,3.918,3.9479,3.9571,3.9792,3.973,3.9701,3.9661,3.9564,3.9439,3.9336,3.9125,3.8742,3.8285,3.7659,3.7466,3.7188,3.7083,3.6854,3.6794,3.6763,3.6671,3.626,3.5369,3.5315,3.5502,3.5399,3.5215,3.5534,3.5874,3.6251,3.6753,3.744,3.7801,3.7852,3.7865,3.7941,3.796,4.5803,4.5803,4.5803,4.5803,4.5803,4.5803,4.5803,4.5803,4.5803,4.5803,4.5803,4.5816,4.5809,4.5794,4.5773,4.5699,4.5582,4.5489,4.538,4.5232,4.5159,4.5028,4.484,4.4744,4.4678,4.4578,4.4517,4.444,4.4204,4.3485,4.2808,4.2099,4.1345,4.0423,3.9951,3.9568,3.9279,3.9202,3.921,3.921,3.9219,3.9357,3.9452,3.9514,3.9532,3.9618,3.9631,3.9612,3.9551,3.9477,3.9452,3.9357,3.9217,3.9124,3.9089,3.9101,3.9101,3.9101,3.9101,3.9089,3.8866,3.8829,3.8502,3.8677,3.8312,3.7121,3.6867,3.77,3.8211,3.8369,3.8557,3.8871,3.9177,3.9394,3.9617,3.9664,3.9717,3.982,3.9914,3.9954,3.9975,3.9933,3.9867,3.9811,3.9773,3.9667,3.9532,3.942,3.9329,3.9075,3.8938,3.8508,3.8643,3.8495,3.8378,3.8201,3.7961,3.7859,3.7729,3.7342,3.6912,3.6486,3.6151,3.6071,3.6041,3.6373,3.6704,3.7039,3.7605,3.8368,3.8702,3.8772,3.9164,3.9331,3.914,4.5803,4.5803,4.5803,4.5803,4.5803,4.5803,4.5803,4.5803,4.5803,4.5803,4.5803,4.5803,4.5803,4.5819,4.5803,4.5727,4.5628,4.5566,4.5438,4.5298,4.5192,4.5043,4.4926,4.4783,4.4672,4.4592,4.4535,4.4407,4.4228,4.3911,4.3423,4.2843,4.175,4.1128,4.0644,3.9965,3.959,3.9301,3.9404,3.9418,3.9405,3.9471,3.9575,3.9617,3.9724,3.9813,3.9781,3.9775,3.973,3.9617,3.9557,3.9382,3.9257,3.9176,3.9135,3.9115,3.9101,3.9101,3.9108,3.9078,3.898,3.8882,3.8666,3.8464,3.8449,3.7429,3.741,3.812,3.8247,3.839,3.8658,3.8956,3.9353,3.9644,3.9792,3.9865,3.9922,3.9989,4.0031,4.0036,4.0041,4.0001,3.9943,3.9884,3.9836,3.9721,3.9594,3.9496,3.94,3.9308,3.9209,3.9135,3.9122,3.9135,3.8896,3.8836,3.8839,3.8762,3.8634,3.8349,3.7911,3.7178,3.6703,3.682,3.6991,3.7284,3.7609,3.7954,3.8575,3.9344,3.9593,3.9693,4.0095,4.0306,3.9981,4.5803,4.5803,4.5803,4.5803,4.5803,4.5803,4.5803,4.5803,4.5803,4.5803,4.5803,4.5803,4.5803,4.5812,4.581,4.5708,4.5644,4.561,4.5491,4.5389,4.5256,4.5142,4.4973,4.4808,4.4693,4.4605,4.4517,4.4444,4.4318,4.4109,4.3759,4.3122,4.2664,4.2231,4.122,4.0683,4.0519,4.0205,4.0114,4.0021,3.9839,3.9651,3.9815,3.9919,4.006,4.013,4.0193,4.0257,4.0254,3.9853,3.973,3.9446,3.933,3.9257,3.9222,3.9195,3.9188,3.9188,3.9175,3.9163,3.883,3.8496,3.823,3.8201,3.8284,3.8315,3.8315,3.8409,3.8531,3.8673,3.8933,3.9186,3.9594,3.9956,4.0068,4.0266,4.0311,4.0431,4.0512,4.0498,4.0483,4.0473,4.0373,4.0295,4.0108,3.9956,3.9744,3.9577,3.945,3.936,3.9268,3.9176,3.9149,3.9163,3.919,3.9295,3.9341,3.9276,3.9126,3.9086,3.8867,3.8126,3.7723,3.7804,3.8001,3.8151,3.8539,3.8927,3.9616,4.0105,4.0068,4.0055,4.0132,4.0305,4.0306,4.5803,4.5803,4.5803,4.5803,4.5803,4.5803,4.5803,4.5803,4.5803,4.5803,4.5803,4.5803,4.5803,4.5803,4.58,4.576,4.5723,4.5664,4.5605,4.5537,4.5345,4.523,4.5091,4.487,4.4745,4.462,4.4524,4.4466,4.438,4.4361,4.4276,4.3938,4.3191,4.284,4.2604,4.2055,4.1518,4.1234,4.1274,4.1337,4.1203,4.0923,4.0424,4.0634,4.1065,4.1502,4.186,4.2069,4.1611,4.092,4.0104,3.972,3.952,3.9437,3.9341,3.9308,3.9301,3.9295,3.9288,3.9288,3.8997,3.903,3.8925,3.8982,3.9064,3.9108,3.9169,3.929,3.9386,3.9412,3.9609,3.9745,4.0081,4.0441,4.0658,4.101,4.1221,4.1656,4.1971,4.1985,4.198,4.1911,4.1819,4.164,4.1355,4.1108,4.0732,4.0509,3.9949,3.966,3.9457,3.948,3.9476,3.9183,3.9222,3.9548,3.9638,3.9602,3.9592,3.9539,3.938,3.9015,3.8761,3.875,3.8781,3.8888,3.9319,3.9676,3.9955,4.0283,4.0267,4.0283,4.0323,4.0314,4.031]}]]